[[{"header":{"parameterUnit":"m.s-1","parameterCategory":1,"la1":30.6,"la2":29.2853,"lo1":-89.7004,"lo2":-87.6739,"dy":0.0162,"dx":0.0183,"nx":112,"ny":82,"refTime":"2026-05-10T00:00:00:Z","depth":0,"parameterNumber":2,"parameterNumberName":"U-component_of_WINDS"},"data":[0.0,0.0,0.0,0.0,0.0,0.0,0.0,0.0,0.0,0.0,0.0,0.0,0.0,0.0,0.0,0.0,0.0,0.0,0.0,0.0,0.0,0.0,0.0,0.0,0.0,0.0,0.0,0.0,0.0,0.0,0.0,0.0,0.0,0.0,0.0,0.0,0.0,0.0,0.0,0.0,0.0,0.0,0.0,0.0,0.0,0.0,0.0,0.0,0.0,0.0,0.0,0.0,0.0,0.0,0.0,0.0,0.0,0.0,0.0,0.0,0.0,0.0,0.0,0.0,0.0,0.0,0.0,0.0,0.0,0.0,0.0,0.0,0.0,0.0,0.0,0.0,0.0,0.0,0.0,0.0,0.0,0.0,0.0,0.0,0.0,0.0,0.0,0.0,0.0,0.0,-2.4465,-2.8342,-3.1297,-3.2698,-3.1951,-3.092,-2.8189,-2.3221,0.0,0.0,0.0,0.0,0.0,0.0,0.0,0.0,0.0,0.0,0.0,0.0,0.0,0.0,0.0,0.0,0.0,0.0,0.0,0.0,0.0,0.0,0.0,0.0,0.0,0.0,0.0,0.0,0.0,0.0,0.0,0.0,0.0,0.0,0.0,0.0,0.0,0.0,0.0,0.0,0.0,0.0,0.0,0.0,0.0,0.0,0.0,0.0,0.0,0.0,0.0,0.0,0.0,0.0,0.0,0.0,0.0,0.0,0.0,0.0,0.0,0.0,0.0,0.0,0.0,0.0,0.0,0.0,0.0,0.0,0.0,0.0,0.0,0.0,0.0,0.0,0.0,0.0,0.0,0.0,0.0,0.0,0.0,0.0,0.0,0.0,0.0,0.0,0.0,0.0,0.0,0.0,0.0,0.0,0.0,0.0,0.0,0.0,0.0,0.0,0.0,0.0,0.0,0.0,-2.5053,-3.0665,-3.1709,-3.1972,-3.1912,-2.9754,-2.6864,-2.32,0.0,0.0,0.0,0.0,0.0,0.0,0.0,0.0,0.0,0.0,0.0,0.0,0.0,0.0,0.0,0.0,0.0,0.0,0.0,0.0,0.0,0.0,0.0,0.0,0.0,0.0,0.0,0.0,0.0,0.0,0.0,0.0,0.0,0.0,0.0,0.0,0.0,0.0,0.0,0.0,0.0,0.0,0.0,0.0,0.0,0.0,0.0,0.0,0.0,0.0,0.0,0.0,0.0,0.0,0.0,0.0,0.0,0.0,0.0,0.0,0.0,0.0,0.0,0.0,0.0,0.0,0.0,0.0,0.0,0.0,0.0,0.0,0.0,0.0,0.0,0.0,0.0,0.0,0.0,0.0,0.0,0.0,0.0,0.0,0.0,0.0,0.0,0.0,0.0,0.0,0.0,0.0,0.0,0.0,0.0,0.0,0.0,0.0,0.0,0.0,0.0,0.0,0.0,-2.3572,-2.6006,-3.0559,-3.1033,-3.0859,-3.0417,-2.8888,-2.6305,-2.2427,-1.9823,0.0,0.0,0.0,0.0,0.0,0.0,0.0,0.0,0.0,0.0,0.0,0.0,0.0,0.0,0.0,0.0,0.0,0.0,0.0,0.0,0.0,0.0,0.0,0.0,0.0,0.0,0.0,0.0,0.0,0.0,0.0,0.0,0.0,0.0,0.0,0.0,0.0,0.0,0.0,0.0,0.0,0.0,0.0,0.0,0.0,0.0,0.0,0.0,0.0,0.0,0.0,0.0,0.0,0.0,0.0,0.0,0.0,0.0,0.0,0.0,0.0,0.0,0.0,0.0,0.0,0.0,0.0,0.0,0.0,0.0,0.0,0.0,0.0,0.0,0.0,0.0,0.0,0.0,0.0,0.0,0.0,0.0,0.0,0.0,0.0,0.0,0.0,0.0,0.0,0.0,0.0,0.0,0.0,0.0,0.0,0.0,0.0,0.0,0.0,0.0,0.0,0.0,-2.5554,-2.7138,-3.0088,-3.0212,-2.9813,-2.9165,-2.7805,-2.5446,-2.1767,-1.8783,0.0,0.0,0.0,0.0,0.0,0.0,0.0,0.0,0.0,0.0,0.0,0.0,0.0,0.0,0.0,0.0,0.0,0.0,0.0,0.0,0.0,0.0,0.0,0.0,0.0,0.0,0.0,0.0,0.0,0.0,0.0,0.0,0.0,0.0,0.0,0.0,0.0,0.0,0.0,0.0,0.0,0.0,0.0,0.0,0.0,0.0,0.0,0.0,0.0,0.0,0.0,0.0,0.0,0.0,0.0,0.0,0.0,0.0,0.0,0.0,0.0,0.0,0.0,0.0,0.0,0.0,0.0,0.0,0.0,0.0,0.0,0.0,0.0,0.0,0.0,0.0,0.0,0.0,0.0,0.0,0.0,0.0,0.0,0.0,0.0,0.0,0.0,0.0,0.0,0.0,0.0,0.0,0.0,0.0,0.0,0.0,0.0,0.0,0.0,0.0,0.0,0.0,-2.5843,-2.8482,-3.0223,-2.9679,-2.9165,-2.9107,-2.6178,-2.3568,-2.1712,-1.7697,0.0,0.0,0.0,0.0,0.0,0.0,0.0,0.0,0.0,0.0,0.0,0.0,0.0,0.0,0.0,0.0,0.0,0.0,0.0,0.0,0.0,0.0,0.0,0.0,0.0,0.0,0.0,0.0,0.0,0.0,0.0,0.0,0.0,0.0,0.0,0.0,0.0,0.0,0.0,0.0,0.0,0.0,0.0,0.0,0.0,0.0,0.0,0.0,0.0,0.0,0.0,0.0,0.0,0.0,0.0,0.0,0.0,0.0,0.0,0.0,0.0,0.0,0.0,0.0,0.0,0.0,0.0,0.0,0.0,0.0,0.0,0.0,0.0,0.0,0.0,0.0,0.0,0.0,0.0,0.0,0.0,0.0,0.0,0.0,0.0,0.0,0.0,0.0,0.0,0.0,0.0,0.0,0.0,0.0,0.0,0.0,0.0,0.0,0.0,0.0,0.0,0.0,-2.413,-2.6357,-2.8427,-2.8358,-2.7899,-2.7215,-2.5551,-2.3417,-2.0773,0.0,0.0,0.0,0.0,0.0,0.0,0.0,0.0,0.0,0.0,0.0,0.0,0.0,0.0,0.0,0.0,0.0,0.0,0.0,0.0,0.0,0.0,0.0,0.0,0.0,0.0,0.0,0.0,0.0,0.0,0.0,0.0,0.0,0.0,0.0,0.0,0.0,0.0,0.0,0.0,0.0,0.0,0.0,0.0,0.0,0.0,0.0,0.0,0.0,0.0,0.0,0.0,0.0,0.0,0.0,0.0,0.0,0.0,0.0,0.0,0.0,0.0,0.0,0.0,0.0,0.0,0.0,0.0,0.0,0.0,0.0,0.0,0.0,0.0,0.0,0.0,0.0,0.0,0.0,0.0,0.0,0.0,0.0,0.0,0.0,0.0,0.0,0.0,0.0,0.0,0.0,0.0,0.0,0.0,0.0,0.0,0.0,0.0,0.0,0.0,0.0,0.0,-2.129,-2.3471,-2.5521,-2.7396,-2.7344,-2.6871,-2.6072,-2.4525,-2.2447,-1.9764,0.0,0.0,0.0,0.0,0.0,0.0,0.0,0.0,0.0,0.0,0.0,0.0,0.0,0.0,0.0,0.0,0.0,0.0,0.0,0.0,0.0,0.0,0.0,0.0,0.0,0.0,0.0,0.0,0.0,0.0,0.0,0.0,0.0,0.0,0.0,0.0,0.0,0.0,0.0,0.0,0.0,0.0,0.0,0.0,0.0,0.0,0.0,0.0,0.0,0.0,0.0,0.0,0.0,0.0,0.0,0.0,0.0,0.0,0.0,0.0,0.0,0.0,0.0,0.0,0.0,0.0,0.0,0.0,0.0,0.0,0.0,0.0,0.0,0.0,0.0,0.0,0.0,0.0,0.0,0.0,0.0,0.0,0.0,0.0,0.0,0.0,0.0,0.0,0.0,0.0,0.0,0.0,0.0,0.0,0.0,0.0,0.0,0.0,0.0,0.0,0.0,0.0,-2.1322,-2.4316,-2.6607,-2.7478,-2.6797,-2.6192,-2.5989,-2.2926,-2.0348,0.0,0.0,0.0,0.0,0.0,0.0,0.0,0.0,0.0,0.0,0.0,0.0,0.0,0.0,0.0,0.0,0.0,0.0,0.0,0.0,0.0,0.0,0.0,0.0,0.0,0.0,0.0,0.0,0.0,0.0,0.0,0.0,0.0,0.0,0.0,0.0,0.0,0.0,0.0,0.0,0.0,0.0,0.0,0.0,0.0,0.0,0.0,0.0,0.0,0.0,0.0,0.0,0.0,0.0,0.0,0.0,0.0,0.0,0.0,0.0,0.0,0.0,0.0,0.0,0.0,0.0,0.0,0.0,0.0,0.0,0.0,0.0,0.0,0.0,0.0,0.0,0.0,0.0,0.0,0.0,0.0,0.0,0.0,0.0,0.0,0.0,0.0,0.0,0.0,0.0,0.0,0.0,0.0,0.0,0.0,0.0,0.0,0.0,0.0,0.0,0.0,0.0,0.0,-2.0256,-2.2732,-2.462,-2.5347,-2.5174,-2.473,-2.3946,-2.2456,-2.0655,-1.8546,0.0,0.0,0.0,0.0,0.0,0.0,0.0,0.0,0.0,0.0,0.0,0.0,0.0,0.0,0.0,0.0,0.0,0.0,0.0,0.0,0.0,0.0,0.0,0.0,0.0,0.0,0.0,0.0,0.0,0.0,0.0,0.0,0.0,0.0,0.0,0.0,0.0,0.0,0.0,0.0,0.0,0.0,0.0,0.0,0.0,0.0,0.0,0.0,0.0,0.0,0.0,0.0,0.0,0.0,0.0,0.0,0.0,0.0,0.0,0.0,0.0,0.0,0.0,0.0,0.0,0.0,0.0,0.0,0.0,0.0,0.0,0.0,0.0,0.0,0.0,0.0,0.0,0.0,0.0,0.0,0.0,0.0,0.0,0.0,0.0,0.0,0.0,0.0,0.0,0.0,0.0,0.0,0.0,0.0,0.0,0.0,0.0,0.0,0.0,0.0,0.0,0.0,-1.9735,-2.1997,-2.357,-2.3979,-2.4019,-2.3611,-2.2611,-2.1767,-2.0289,-1.7918,0.0,0.0,0.0,0.0,0.0,0.0,0.0,0.0,0.0,0.0,0.0,0.0,0.0,0.0,0.0,0.0,0.0,0.0,0.0,0.0,0.0,0.0,0.0,0.0,0.0,0.0,0.0,0.0,0.0,0.0,0.0,0.0,0.0,0.0,0.0,0.0,0.0,0.0,0.0,0.0,0.0,0.0,0.0,0.0,0.0,0.0,0.0,0.0,0.0,0.0,0.0,0.0,0.0,0.0,0.0,0.0,0.0,0.0,0.0,0.0,0.0,0.0,0.0,0.0,0.0,0.0,0.0,0.0,0.0,0.0,0.0,0.0,0.0,0.0,0.0,0.0,0.0,0.0,0.0,0.0,0.0,0.0,0.0,0.0,0.0,0.0,0.0,0.0,0.0,0.0,0.0,0.0,0.0,0.0,0.0,0.0,0.0,0.0,0.0,0.0,0.0,0.0,-1.9503,-2.1715,-2.3063,-2.3156,-2.3148,-2.2759,-2.1756,-2.0943,-1.947,-1.7119,0.0,0.0,0.0,0.0,0.0,0.0,0.0,0.0,0.0,0.0,0.0,0.0,0.0,0.0,0.0,0.0,0.0,0.0,0.0,0.0,0.0,0.0,0.0,0.0,0.0,0.0,0.0,0.0,0.0,0.0,0.0,0.0,0.0,0.0,0.0,0.0,0.0,0.0,0.0,0.0,0.0,0.0,0.0,0.0,0.0,0.0,0.0,0.0,0.0,0.0,0.0,0.0,0.0,0.0,0.0,0.0,0.0,0.0,0.0,0.0,-1.777,-1.6178,0.0,0.0,0.0,0.0,0.0,0.0,0.0,0.0,0.0,0.0,0.0,0.0,0.0,0.0,0.0,0.0,0.0,0.0,0.0,0.0,0.0,0.0,0.0,0.0,0.0,0.0,0.0,0.0,0.0,0.0,0.0,0.0,0.0,0.0,0.0,0.0,0.0,0.0,0.0,0.0,-1.8488,-2.015,-2.1365,-2.2055,-2.2123,-2.1767,-2.0853,-2.0456,-1.9233,-1.6838,-1.5572,0.0,0.0,0.0,0.0,0.0,0.0,0.0,0.0,0.0,0.0,0.0,0.0,0.0,0.0,0.0,0.0,0.0,0.0,0.0,0.0,0.0,0.0,0.0,0.0,0.0,0.0,0.0,0.0,0.0,0.0,0.0,0.0,0.0,0.0,0.0,0.0,0.0,0.0,0.0,0.0,0.0,0.0,0.0,0.0,0.0,0.0,0.0,0.0,0.0,0.0,0.0,0.0,0.0,0.0,0.0,0.0,0.0,0.0,0.0,-1.9356,-1.7919,0.0,0.0,0.0,0.0,0.0,0.0,0.0,0.0,0.0,0.0,0.0,0.0,0.0,0.0,0.0,0.0,0.0,0.0,0.0,0.0,0.0,0.0,0.0,0.0,0.0,0.0,0.0,0.0,0.0,0.0,0.0,0.0,0.0,0.0,0.0,0.0,0.0,0.0,0.0,0.0,-1.8168,-1.967,-2.0668,-2.1126,-2.1174,-2.0791,-1.9855,-1.9687,-1.8725,-1.6596,-1.5545,0.0,0.0,0.0,0.0,0.0,0.0,0.0,0.0,0.0,0.0,0.0,0.0,0.0,0.0,0.0,0.0,0.0,0.0,0.0,0.0,0.0,0.0,0.0,0.0,0.0,0.0,0.0,0.0,0.0,0.0,0.0,0.0,0.0,0.0,0.0,0.0,0.0,0.0,0.0,0.0,0.0,0.0,0.0,0.0,0.0,0.0,0.0,0.0,0.0,0.0,0.0,0.0,0.0,-2.4491,-2.4457,-2.4338,-2.319,-2.3004,-2.3388,-2.0805,-1.9987,-2.0336,-1.8628,0.0,0.0,0.0,0.0,0.0,0.0,0.0,0.0,0.0,0.0,0.0,0.0,0.0,0.0,0.0,0.0,0.0,0.0,0.0,0.0,0.0,0.0,-1.8517,-1.7697,-1.8317,-1.8257,-1.5159,0.0,0.0,0.0,0.0,0.0,0.0,0.0,0.0,0.0,0.0,0.0,-1.7898,-1.9412,-2.0285,-2.0237,-2.0234,-1.9892,-1.9075,-1.8913,-1.8117,-1.6364,-1.5523,-1.4421,0.0,0.0,0.0,0.0,0.0,0.0,0.0,0.0,0.0,0.0,0.0,0.0,0.0,0.0,0.0,0.0,0.0,0.0,0.0,0.0,0.0,0.0,0.0,0.0,0.0,0.0,0.0,0.0,0.0,0.0,0.0,0.0,-1.7452,-1.7561,0.0,0.0,0.0,0.0,0.0,0.0,0.0,0.0,0.0,0.0,0.0,0.0,0.0,-1.9457,-2.2276,-2.3577,-2.4305,-2.4491,-2.4491,-2.4288,-2.3898,-2.4101,-2.3579,-2.2615,-2.4691,0.0,-2.0789,-2.1369,0.0,0.0,0.0,0.0,0.0,0.0,0.0,0.0,0.0,0.0,0.0,0.0,0.0,0.0,0.0,0.0,0.0,0.0,0.0,0.0,0.0,0.0,-2.0877,-1.9844,-1.9736,-1.9389,-1.7646,-1.6453,-1.5425,-1.4477,-1.3355,-1.2598,0.0,0.0,0.0,0.0,0.0,0.0,-1.6825,-1.8408,-1.9386,-1.9217,-1.9204,-1.913,-1.9002,-1.8566,-1.7665,-1.6133,-1.5713,-1.4863,-1.337,-1.2589,0.0,0.0,0.0,0.0,0.0,0.0,0.0,0.0,0.0,0.0,0.0,0.0,0.0,0.0,0.0,0.0,0.0,0.0,0.0,0.0,0.0,0.0,0.0,0.0,0.0,0.0,0.0,0.0,0.0,-1.6841,-1.7663,-1.8049,-1.7354,-1.6287,0.0,0.0,0.0,0.0,0.0,0.0,0.0,0.0,0.0,-1.9619,-2.0247,-2.1668,-2.3902,-2.4577,-2.4966,-2.5118,-2.4966,-2.5084,-2.5439,-2.5642,-2.4795,-2.3274,-2.5659,-2.5726,-2.4019,-2.2801,-2.1027,-1.891,0.0,0.0,0.0,0.0,-1.7661,-1.8061,-1.9493,-1.9981,-1.9912,-1.9457,0.0,0.0,0.0,0.0,0.0,0.0,0.0,-1.9458,-1.886,-2.003,-2.1253,-2.0783,-2.0669,-2.037,-1.927,-1.8246,-1.7078,-1.5505,-1.4727,-1.4126,-1.3499,-1.3155,0.0,0.0,0.0,-1.6345,-1.7065,-1.8172,-1.8868,-1.878,-1.8776,-1.8707,-1.8556,-1.7954,-1.7058,-1.5853,-1.528,-1.4512,-1.343,-1.3083,-1.2447,0.0,0.0,0.0,0.0,0.0,0.0,0.0,0.0,0.0,0.0,0.0,0.0,0.0,0.0,0.0,0.0,0.0,0.0,0.0,0.0,0.0,0.0,0.0,0.0,0.0,0.0,0.0,0.0,-1.7629,-1.8356,-1.851,-1.8598,-1.7977,0.0,0.0,0.0,0.0,0.0,0.0,-2.0794,-2.0875,-2.1475,-2.2827,-2.2861,-2.3748,-2.5559,-2.5576,-2.5677,-2.5879,-2.5677,-2.5981,-2.6691,-2.6691,-2.5912,-2.4626,-2.6082,-2.6607,-2.6285,-2.4262,-2.2556,-2.1114,-1.9961,-1.8778,-1.7814,-1.8833,-1.9127,-1.9286,-2.0919,-2.1475,-2.1377,-2.078,-2.0308,-1.9822,-1.8861,0.0,0.0,0.0,0.0,-1.9773,-1.9734,-2.0592,-2.1479,-2.1479,-2.1329,-2.104,-2.0433,-1.957,-1.8352,-1.6525,-1.6001,-1.5607,-1.4699,-1.4384,0.0,-1.4607,-1.5745,-1.6778,-1.7293,-1.8091,-1.8577,-1.8497,-1.8324,-1.8147,-1.794,-1.7176,-1.6313,-1.5383,-1.4805,-1.4178,-1.343,-1.3396,-1.3081,-1.239,0.0,0.0,0.0,0.0,0.0,0.0,0.0,0.0,0.0,0.0,0.0,0.0,0.0,0.0,0.0,0.0,0.0,0.0,0.0,0.0,0.0,0.0,0.0,0.0,0.0,0.0,0.0,0.0,0.0,-1.904,-2.093,0.0,0.0,0.0,0.0,-1.9288,-2.0354,-2.1691,-2.3154,-2.3223,-2.3587,-2.4364,-2.44,-2.5117,-2.6607,-2.6623,-2.6623,-2.664,-2.6623,-2.664,-2.6691,-2.6691,-2.664,-2.6556,-2.6657,-2.6333,-2.5783,-2.6268,-2.5609,-2.4177,-2.322,-2.249,-2.1971,-2.1706,-2.1376,-2.1172,-2.1973,-2.2245,-2.2243,-2.2198,-2.1192,-1.9993,-1.9916,-1.9592,0.0,0.0,-2.0087,-2.1344,-2.1146,-2.1671,-2.2231,-2.2231,-2.1718,-2.119,-2.114,-1.9955,-1.8657,-1.785,-1.7117,-1.6676,-1.6821,0.0,-1.5861,-1.6061,-1.6809,-1.7266,-1.7057,-1.7939,-1.85,-1.8238,-1.7589,-1.7173,-1.7166,-1.625,-1.535,-1.4589,-1.4525,-1.4171,-1.343,-1.3396,-1.3057,-1.2322,-1.2278,0.0,0.0,0.0,0.0,0.0,0.0,0.0,0.0,0.0,0.0,0.0,0.0,0.0,0.0,0.0,0.0,0.0,0.0,0.0,0.0,0.0,0.0,0.0,0.0,0.0,0.0,0.0,0.0,-2.0489,-2.1418,0.0,-1.8987,-2.0315,-2.1263,-2.1148,-2.2174,-2.3406,-2.4734,-2.481,-2.5164,-2.5902,-2.5926,-2.6183,-2.6691,-2.6691,-2.6691,-2.6691,-2.6691,-2.6691,-2.6691,-2.6691,-2.6691,-2.6691,-2.6691,-2.61,-2.5181,-2.594,-2.5297,-2.3715,-2.2909,-2.2503,-2.2331,-2.2049,-2.2034,-2.2182,-2.2262,-2.2296,-2.2296,-2.2296,-2.1942,-2.1479,-2.1479,-2.1356,-2.1203,-2.1119,-2.1549,-2.2005,-2.1932,-2.2104,-2.2192,-2.1701,-2.0991,-2.0297,-1.9807,-1.891,-1.8104,-1.785,-1.7591,-1.7285,-1.6888,-1.699,-1.6993,-1.6588,-1.7175,-1.7624,-1.7535,-1.7853,-1.8042,-1.7957,-1.7277,-1.6842,-1.6843,-1.5627,-1.484,-1.4701,-1.4136,-1.3718,-1.3549,-1.3455,-1.3278,-1.3015,-1.2539,-1.1661,0.0,0.0,0.0,0.0,0.0,0.0,0.0,0.0,0.0,0.0,0.0,0.0,0.0,0.0,0.0,0.0,0.0,0.0,0.0,0.0,0.0,0.0,0.0,0.0,0.0,-2.056,-2.1537,-2.1324,-2.2108,-2.1981,-2.0212,-2.1636,-2.2636,-2.2558,-2.3569,-2.4671,-2.5763,-2.5765,-2.6034,-2.6674,-2.7029,-2.7046,-2.6691,-2.7233,-2.7199,-2.6691,-2.6691,-2.6691,-2.6674,-2.5965,-2.5839,-2.6176,-2.607,-2.552,-2.4715,-2.5236,-2.4664,-2.3477,-2.3535,-2.3533,-2.3494,-2.3284,-2.3094,-2.2872,-2.2459,-2.2296,-2.2296,-2.2296,-2.2296,-2.2296,-2.2296,-2.2296,-2.2296,-2.2296,-2.2296,-2.2296,-2.2296,-2.2124,-2.1803,-2.1309,-2.0399,-1.9558,-1.9321,-1.8493,-1.7867,-1.8121,-1.7969,-1.7631,-1.7162,-1.7473,-1.7642,-1.7145,-1.749,-1.78,-1.78,-1.78,-1.78,-1.78,-1.7139,-1.6591,-1.6341,-1.5191,-1.4454,-1.4332,-1.374,-1.3442,-1.354,-1.3455,-1.3396,-1.3396,-1.267,-1.1907,-1.1111,0.0,0.0,0.0,0.0,0.0,0.0,0.0,0.0,0.0,0.0,0.0,0.0,0.0,0.0,0.0,0.0,0.0,0.0,0.0,0.0,0.0,0.0,0.0,-1.9704,-2.1637,-2.2591,-2.1507,-2.3161,-2.3431,-2.1015,-2.2963,-2.411,-2.3479,-2.4546,-2.5493,-2.6172,-2.6101,-2.6276,-2.6742,-2.7672,-2.774,-2.6843,-2.8231,-2.8231,-2.6826,-2.6742,-2.6691,-2.6641,-2.4541,-2.4178,-2.5125,-2.4823,-2.4583,-2.441,-2.441,-2.4095,-2.3752,-2.5316,-2.5815,-2.5662,-2.5564,-2.4598,-2.3274,-2.2564,-2.2296,-2.2296,-2.2296,-2.2296,-2.2296,-2.2296,-2.2296,-2.2296,-2.2296,-2.2296,-2.2296,-2.2296,-2.1769,-2.1207,-2.1173,-2.0022,-1.9113,-1.9782,-1.8814,-1.8003,-1.8724,-1.8302,-1.78,-1.78,-1.78,-1.78,-1.78,-1.78,0.0,-1.78,-1.78,-1.78,-1.78,-1.712,-1.6377,-1.5653,-1.4897,-1.4152,-1.3455,-1.3407,-1.3396,-1.3404,-1.3396,-1.3396,-1.3396,-1.269,-1.1915,-1.1147,0.0,0.0,0.0,0.0,0.0,0.0,0.0,0.0,0.0,0.0,0.0,0.0,0.0,0.0,0.0,0.0,0.0,0.0,0.0,0.0,0.0,-1.9309,-2.1009,-2.1125,-2.2098,-2.2818,-2.2949,-2.3462,-2.3541,-2.2882,-2.3429,-2.3893,-2.4106,-2.4885,-2.5601,-2.6166,-2.6623,-2.715,-2.7772,-2.7351,-2.8027,-2.9939,-2.8197,-2.8231,-2.9939,-2.7757,-2.6691,-2.6641,-2.4541,-2.3752,-2.4053,-2.4502,-2.4583,-2.441,-2.441,-2.4095,-2.3638,-2.4095,-2.4471,-2.4697,-2.4135,-2.3454,-2.2793,-2.259,-2.2409,-2.2296,-2.2296,-2.2296,-2.2296,-2.2296,-2.2296,-2.2296,-2.2296,-2.2296,-2.2296,-2.2296,-2.2158,-2.1718,-2.0606,-2.0014,-1.9456,-1.8594,-1.8087,-1.785,-1.8065,-1.7935,-1.78,-1.78,-1.78,-1.78,-1.78,-1.78,-1.78,-1.78,-1.78,-1.78,-1.78,-1.6665,-1.5817,-1.5621,-1.4428,-1.3659,-1.3549,-1.3448,-1.3446,-1.354,-1.3455,-1.3396,-1.3396,-1.269,-1.2191,0.0,0.0,0.0,0.0,0.0,0.0,0.0,0.0,0.0,0.0,0.0,0.0,0.0,0.0,0.0,0.0,0.0,0.0,0.0,0.0,0.0,0.0,-2.0152,-2.1804,-2.2069,-2.267,-2.3212,-2.355,-2.3595,-2.3595,-2.3595,-2.3595,-2.3844,-2.4423,-2.4841,-2.5446,-2.6308,-2.6688,-2.7289,-2.821,-2.7684,-2.821,-2.9939,-2.9042,-2.9465,-3.1173,-2.9414,-2.7464,-2.536,-2.4142,-2.3595,-2.3616,-2.4048,-2.4173,-2.4053,-2.4053,-2.3879,0.0,0.0,0.0,0.0,0.0,-2.346,-2.3145,-2.2548,-2.2274,-2.2122,-2.1856,-2.1761,-2.1759,-2.1759,-2.1754,-2.1759,-2.1759,-2.1751,-2.1749,-2.1757,-2.1529,-2.1021,-1.9994,-1.9519,-1.9006,-1.8019,-1.78,-1.78,-1.78,-1.78,0.0,-1.78,-1.78,-1.78,-1.78,-1.78,-1.78,-1.78,-1.78,-1.78,-1.78,-1.6758,-1.5939,-1.5636,-1.4524,0.0,0.0,0.0,-1.3438,-1.3506,-1.3438,0.0,0.0,0.0,0.0,0.0,0.0,0.0,0.0,-1.1638,-1.2088,0.0,0.0,0.0,0.0,0.0,0.0,0.0,0.0,0.0,0.0,0.0,0.0,0.0,0.0,0.0,0.0,-2.0491,-2.1914,-2.2495,-2.312,-2.353,-2.3595,-2.3595,-2.3595,-2.3595,-2.367,-2.3969,-2.456,-2.4739,-2.5337,-2.6527,-2.6573,0.0,0.0,0.0,-2.8244,-2.8335,-3.0085,-3.1038,-3.119,-3.0622,-2.7993,-2.3595,-2.3595,-2.3595,-2.3595,-2.3595,-2.3595,-2.3595,-2.3595,-2.3595,-2.3659,-2.4116,-2.4425,-2.4541,-2.4188,-2.4041,-2.383,-2.2585,0.0,0.0,-2.1417,-2.1173,-2.1114,-2.1102,-2.1066,-2.1,-2.099,-2.099,-2.1006,-2.099,-2.051,-1.9902,-1.9444,-1.883,-1.8283,-1.7932,-1.7794,-1.7783,-1.7901,-1.785,-1.78,-1.78,-1.78,-1.78,-1.78,-1.78,-1.78,-1.78,-1.78,-1.78,-1.78,0.0,0.0,-1.566,-1.4911,-1.4195,-1.3455,-1.3396,-1.3396,-1.3396,-1.3396,-1.3396,-1.3396,-1.3396,-1.3396,-1.3396,-1.3396,-1.3396,-1.3371,-1.2,-1.1745,0.0,0.0,0.0,0.0,0.0,0.0,0.0,0.0,0.0,0.0,0.0,0.0,0.0,0.0,0.0,-1.9562,-2.0794,-2.175,-2.1885,-2.246,-2.3054,-2.3551,-2.3595,-2.3595,-2.3595,-2.4081,-2.4455,-2.459,-2.5615,-2.6318,-2.6572,-2.7084,-2.7707,-2.8451,-2.7883,-2.8106,-2.9167,-2.9349,-3.0025,-3.1137,-2.7034,0.0,-2.3595,-2.3595,-2.3595,-2.3595,-2.3595,-2.3595,-2.3595,-2.3595,-2.3595,-2.3595,-2.3709,-2.3773,-2.3815,-2.3722,-2.358,-2.3416,-2.3141,-2.2936,-2.2794,-2.2658,-2.2245,-2.1804,-2.1808,-2.1424,0.0,-2.0995,-2.0994,-2.1011,-2.0998,-2.0886,-2.0479,-1.9286,-1.8883,-1.869,-1.8359,-1.7822,-1.7657,-1.8508,-1.8217,-1.78,-1.78,-1.78,-1.78,-1.78,-1.78,-1.78,-1.78,-1.78,-1.78,-1.78,-1.7143,-1.6393,-1.5658,-1.4917,-1.4195,-1.3455,-1.3396,-1.3396,-1.3396,-1.3396,-1.3396,-1.3396,-1.3396,-1.3396,-1.3396,-1.3396,-1.3396,-1.3396,-1.3101,-1.3034,0.0,0.0,0.0,0.0,0.0,0.0,0.0,0.0,0.0,0.0,0.0,-1.7341,-1.76,0.0,-1.9806,-1.9806,-2.0833,-2.1558,-2.1299,-2.2072,-2.2785,-2.312,-2.3421,-2.3595,-2.3595,-2.4201,-2.4739,-2.5068,-2.6033,-2.6761,-2.7091,-2.742,-2.7885,-2.8463,-2.7852,-2.8107,-2.9384,-2.868,-2.8877,-2.9951,-2.6182,-2.4361,-2.429,-2.3804,-2.3595,-2.3595,-2.3595,-2.3595,-2.3595,-2.3595,-2.3595,-2.3595,-2.3595,-2.3595,-2.3595,-2.3595,-2.3534,-2.3411,-2.3112,-2.2917,-2.2794,-2.2454,-2.1901,-2.1347,-2.1337,-2.0889,-2.0356,-2.035,-2.0337,-2.0337,-2.0337,-2.0354,-2.0132,-1.9249,-1.8793,-1.8565,-1.8587,-1.7789,-1.735,-1.8402,-1.8026,-1.7595,-1.7777,-1.78,-1.78,-1.78,-1.78,-1.78,-1.78,-1.78,-1.78,-1.78,-1.7143,-1.6557,-1.6179,-1.5148,-1.4195,-1.3455,-1.3396,-1.3396,-1.3396,-1.3396,-1.3396,-1.3396,-1.3396,-1.3396,-1.3396,-1.3396,-1.3599,-1.3944,-1.3946,-1.376,0.0,0.0,0.0,0.0,0.0,0.0,0.0,-1.351,-1.4603,-1.6243,-1.7786,-1.8982,-1.9396,-1.9849,-2.0125,-2.0125,-2.0938,-2.142,-2.1015,-2.1783,-2.2421,-2.2484,-2.3037,-2.3509,-2.3767,-2.4395,-2.5068,-2.5749,-2.6408,-2.7031,-2.757,-2.76,-2.7835,-2.8295,-2.786,-2.8076,-2.9042,-2.8076,-2.7944,-2.8544,-2.6335,-2.5191,-2.4972,-2.4036,-2.3595,-2.3595,-2.3595,-2.3595,-2.3595,-2.3595,-2.3595,-2.3595,-2.3595,-2.3595,-2.3595,-2.3595,-2.3595,-2.3535,-2.3047,-2.2882,-2.2793,-2.2233,-2.1545,-2.0882,-2.0882,-2.0333,-1.9708,-1.9708,-1.9708,-1.9708,-1.9708,-1.9708,-1.9599,-1.9211,-1.8681,-1.8408,-1.8835,-1.794,-1.7335,-1.8234,-1.7967,-1.7589,-1.7599,-1.7718,-1.7803,-1.7794,-1.78,-1.78,-1.78,-1.78,-1.7783,-1.771,-1.7233,-1.6864,-1.6714,-1.5341,-1.4246,-1.3642,-1.3481,-1.3396,-1.3396,-1.3396,-1.3388,-1.3328,-1.332,-1.332,-1.332,-1.3403,-1.3805,-1.4497,-1.4572,-1.4323,-1.307,-1.274,-1.2816,-1.3863,-1.3057,-1.3047,0.0,-1.7217,-1.7545,-2.0254,-2.0974,-2.1142,-2.1204,-2.1255,-2.1305,-2.1305,-2.1426,-2.1479,-2.1415,-2.1588,-2.1717,-2.1714,-2.237,-2.3243,-2.4395,-2.5083,-2.5779,-2.6437,-2.7121,-2.7525,-2.76,-2.76,-2.7625,-2.7685,-2.765,-2.766,-2.7795,-2.7675,-2.765,-2.772,-2.6253,-2.5364,-2.4972,-2.4036,-2.3595,-2.3595,-2.3595,-2.3595,-2.3595,-2.3595,-2.3595,-2.3595,-2.3595,-2.3595,-2.3595,-2.3595,-2.3595,-2.3595,-2.352,-2.349,-2.349,-2.3415,-2.2577,-2.159,-2.159,-2.0692,-1.9708,-1.9708,-1.9708,-1.9708,-1.9708,-1.9708,-1.9528,-1.8903,-1.8693,-1.8773,-1.9233,-1.8655,-1.8187,-1.8733,-1.8731,-1.8257,-1.7101,-1.7406,-1.7799,-1.7793,-1.78,-1.78,-1.78,-1.78,-1.7693,-1.7395,-1.7547,-1.7412,-1.6758,-1.5341,-1.446,-1.4374,-1.3752,-1.3396,-1.3396,-1.3396,-1.3285,-1.3059,-1.3039,-1.3049,-1.3049,-1.3401,-1.3897,-1.4502,-1.4865,-1.5144,-1.4752,-1.447,-1.4414,-1.6128,-1.568,-1.5484,-1.7986,-1.8605,-1.9076,-2.0544,-2.12,-2.1493,-2.1493,-2.1493,-2.1493,-2.1493,-2.1757,-2.1744,-2.1131,-2.1324,-2.1442,-2.1168,-2.1722,-2.2634,-2.3952,-2.5002,-2.5884,-2.6542,-2.7225,-2.76,-2.76,-2.76,-2.76,-2.76,-2.76,-2.76,-2.76,-2.76,-2.76,-2.7585,-2.6632,-2.5884,-2.5315,-2.4552,-2.3984,-2.3595,-2.3595,-2.3595,-2.3595,-2.3595,-2.3595,-2.3595,-2.3595,-2.3595,-2.3595,-2.3595,-2.3595,-2.3595,-2.3595,-2.3595,-2.3595,-2.3595,-2.2742,-2.1695,-2.1695,-2.0771,-1.9708,-1.9708,-1.9708,-1.9708,-1.9708,-1.9708,-1.9633,-1.9346,-1.8983,-1.8867,-1.945,-1.8699,-1.8028,-1.8422,-1.819,-1.769,-1.6926,-1.7027,-1.7228,-1.723,-1.7227,-1.7288,-1.7491,-1.7337,-1.7169,-1.702,-1.7133,-1.7009,-1.6453,-1.5677,-1.5006,-1.4521,-1.4024,-1.3642,-1.3413,-1.3396,-1.3269,-1.301,-1.2995,-1.3128,-1.3355,-1.3524,-1.4149,-1.5196,-1.5378,-1.5757,-1.549,-1.5261,-1.5277,-1.7156,-1.758,-1.7794,-1.8735,-1.9557,-2.0269,-2.0798,-2.1354,-2.1669,-2.1546,-2.1493,-2.1543,-2.1694,-2.2046,-2.2033,-2.1257,-2.1358,-2.1363,-2.1051,-2.1412,-2.2136,-2.3298,-2.4576,-2.5689,-2.6527,-2.7061,-2.7405,-2.7585,-2.76,-2.76,-2.76,-2.76,-2.76,-2.76,-2.76,-2.76,-2.7585,-2.6926,-2.6348,-2.5854,-2.4993,-2.4231,-2.3595,-2.3595,-2.3595,-2.3595,-2.3595,-2.3595,-2.3595,-2.3595,-2.3595,-2.3595,-2.3595,-2.3595,-2.3595,-2.3595,-2.3595,-2.3595,-2.3595,-2.2862,-2.1934,-2.1754,-2.0887,-1.9947,-1.9753,-1.9708,-1.9708,-1.9708,-1.9708,-1.9708,-1.9708,-1.9322,-1.9113,-1.9612,-1.8944,-1.8261,-1.834,-1.8138,-1.771,-1.6914,-1.6925,-1.6952,-1.6709,-1.6588,-1.6686,-1.7113,-1.6865,-1.6702,-1.6802,-1.6727,-1.6585,-1.6378,-1.5955,-1.5443,-1.4874,-1.4241,-1.3845,-1.3737,-1.3549,-1.3423,-1.3329,-1.3336,-1.348,-1.3774,-1.3875,-1.4545,-1.5699,-1.5803,-1.6193,-1.4436,-1.4291,-1.4494,-1.6049,-1.8047,-1.9638,-1.9829,-2.054,-2.1355,-2.2097,-2.2255,-2.2121,-2.1594,-2.1493,-2.1656,-2.2196,-2.2297,-2.2297,-2.2272,-2.182,-2.1515,-2.1576,-2.1645,-2.1969,-2.2654,-2.3871,-2.5173,-2.6497,-2.6617,-2.6926,-2.757,-2.76,-2.76,-2.76,-2.76,-2.76,-2.76,-2.76,-2.76,-2.7585,-2.6926,-2.6572,-2.6512,-2.5187,-2.4231,-2.3595,-2.3595,-2.3595,-2.3595,-2.3595,-2.3595,-2.3595,-2.3595,-2.3595,-2.3595,-2.3595,-2.3595,-2.3595,-2.3595,-2.3595,-2.3595,-2.3595,-2.3176,-2.2553,-2.1889,-2.1216,-2.0524,-1.9887,-1.9708,-1.9708,-1.9708,-1.9708,-1.9708,-1.9708,-1.9675,-1.9675,-1.9708,-1.9678,-1.9453,-1.8814,-1.9183,-1.8991,-1.704,-1.7239,-1.7363,-1.6454,-1.6034,-1.6081,-1.6738,-1.6515,-1.6431,-1.677,-1.6508,-1.6448,-1.6746,-1.6121,-1.5693,-1.5677,-1.4373,-1.3905,-1.4529,-1.3944,-1.3769,-1.4164,-1.4152,-1.417,-1.4189,-1.4563,-1.5093,-1.5699,-1.6103,-1.6472,-1.5221,-1.5285,-1.5701,-1.8023,-1.8383,-1.8599,-2.0264,-2.0659,-2.0776,-2.1154,-2.0916,-2.0589,-2.0401,-2.0363,-2.0677,-2.1619,-2.2071,-2.2309,-2.2309,-2.2146,-2.1779,-2.1074,-2.1694,-2.211,-2.1974,-2.3559,-2.498,-2.5941,-2.6352,-2.6896,-2.7555,-2.76,-2.76,-2.76,-2.76,-2.76,-2.76,-2.76,-2.76,-2.7585,-2.6926,-2.6587,-2.6542,-2.5202,-2.4485,-2.4231,-2.3789,-2.3595,-2.3595,-2.3595,-2.3595,-2.3595,-2.3595,-2.3595,-2.3595,-2.3595,-2.3595,-2.3595,-2.3595,-2.3595,-2.3595,-2.3595,-2.3176,-2.2658,-2.2433,-2.1575,-2.0643,-2.0438,-2.0034,-1.9708,-1.9708,-1.9708,-1.9708,-1.9708,-1.9708,-1.9708,-1.9708,-1.9708,-1.9498,-1.8825,-1.8877,-1.854,-1.6974,-1.6893,-1.6789,-1.608,-1.6059,-1.613,-1.6134,-1.6045,-1.6005,-1.6107,-1.605,-1.6094,-1.6435,-1.605,-1.5754,-1.5695,-1.5055,-1.4631,-1.4609,-1.4378,-1.4235,-1.4191,-1.4197,-1.4329,-1.4595,-1.4731,-1.5143,-1.5771,-1.5905,-1.6025,-1.5495,-1.5655,-1.6069,-1.8119,-1.8123,-1.8008,-1.9554,-1.9975,-1.9991,-1.9978,-1.9682,-1.9364,-1.9246,-1.9233,-1.966,-2.1006,-2.1493,-2.1857,-2.2259,-2.2309,-2.2056,-2.1395,-2.1965,-2.2272,-2.1931,-2.3266,-2.4568,-2.555,-2.6229,-2.6896,-2.7555,-2.76,-2.76,-2.76,-2.76,-2.76,-2.76,-2.76,-2.76,-2.7585,-2.7165,-2.6811,-2.6557,-2.5457,-2.4829,-2.4575,-2.3894,-2.3595,-2.3595,-2.3595,-2.3595,-2.3595,-2.3595,-2.3595,-2.3595,-2.3595,-2.3595,-2.3595,-2.3595,-2.3595,-2.3595,-2.3595,-2.3325,-2.2942,-2.2478,-2.1739,-2.0961,-2.0483,-2.0034,-1.9708,-1.9708,-1.9708,-1.9708,-1.9708,-1.9708,-1.9708,-1.9708,-1.9708,-1.9579,-1.9146,-1.9066,-1.872,-1.7595,-1.7013,-1.6496,-1.5902,-1.5987,-1.6037,-1.5841,-1.5799,-1.5799,-1.5799,-1.5799,-1.5902,-1.6094,-1.5917,-1.5769,-1.574,-1.531,-1.5044,-1.504,-1.4792,-1.4697,-1.477,-1.477,-1.4892,-1.5155,-1.5155,-1.5379,-1.5799,-1.5799,-1.5799,-1.5303,-1.543,-1.5654,-1.6545,-1.7307,-1.7889,-1.8032,-1.8638,-1.9091,-1.8738,-1.8622,-1.8496,-1.8148,-1.8129,-1.8694,-2.0352,-2.0679,-2.1119,-2.2196,-2.2347,-2.2363,-2.2399,-2.2414,-2.2414,-2.2388,-2.303,-2.4008,-2.5337,-2.6104,-2.6773,-2.7454,-2.7509,-2.7534,-2.7534,-2.7575,-2.76,-2.76,-2.76,-2.76,-2.76,-2.76,-2.727,-2.6641,-2.5959,-2.5277,-2.4619,-2.3954,-2.3625,-2.3595,-2.3595,-2.3595,-2.3595,-2.3595,-2.3595,-2.3595,-2.3595,-2.3595,-2.3595,-2.3595,-2.3595,-2.3595,-2.3595,-2.3595,-2.337,-2.2128,-2.1724,-2.144,-2.0127,-1.9738,-1.9708,-1.9708,-1.9708,-1.9708,-1.9708,-1.9708,-1.9708,-1.9708,-1.9708,-1.9708,-1.9708,-1.9675,-1.945,-1.8763,-1.7567,-1.6496,-1.5902,-1.5799,-1.5799,-1.5799,-1.5799,-1.5799,-1.5799,-1.5799,-1.5799,-1.5799,-1.5799,-1.5799,-1.5799,-1.5197,-1.5139,-1.5769,-1.5183,-1.5153,-1.5799,-1.5799,-1.5799,-1.5799,-1.5799,-1.5799,-1.5799,-1.5799,-1.5799,-1.5381,-1.5654,-1.6177,-1.7236,-1.6779,-1.6585,-1.8594,-1.8215,-1.7619,-1.8203,-1.7647,-1.6913,-1.6437,-1.7024,-1.8003,-1.9246,-2.0476,-2.1656,-2.2744,-2.2895,-2.274,-2.2375,-2.268,-2.2769,-2.235,-2.3382,-2.4222,-2.4567,-2.4829,-2.5254,-2.593,-2.6496,-2.6774,-2.6774,-2.7306,-2.76,-2.76,-2.76,-2.76,-2.76,-2.76,-2.751,-2.733,-2.6632,-2.5974,-2.5307,-2.4634,-2.4051,-2.3595,-2.3595,-2.3595,-2.3595,-2.3595,-2.3595,-2.3595,-2.3595,-2.3595,-2.3595,-2.3595,-2.3595,-2.3595,-2.3595,-2.3595,-2.3445,-2.2688,-2.2092,-2.152,-2.0684,-2.0094,-1.9708,-1.9708,-1.9708,-1.9708,-1.9708,-1.9708,-1.9708,-1.9708,-1.9708,-1.9708,-1.9708,-1.9307,-1.8731,-1.8079,-1.726,-1.6496,-1.5902,-1.5799,-1.5799,-1.5799,-1.5799,-1.5799,-1.5799,-1.5799,-1.5799,-1.5799,-1.5799,-1.5799,-1.5799,-1.5637,-1.5622,-1.5799,-1.5637,-1.5622,-1.5799,-1.5799,-1.5799,-1.5799,-1.5799,-1.5799,-1.5799,-1.5799,-1.5799,-1.6077,-1.6396,-1.689,-1.7012,-1.6343,-1.5871,-1.6857,-1.633,-1.5777,-1.622,-1.5961,-1.5592,-1.5389,-1.6245,-1.7375,-1.8456,-2.0049,-2.1506,-2.2594,-2.2945,-2.2995,-2.2681,-2.292,-2.2982,-2.2681,-2.3322,-2.3767,-2.3767,-2.443,-2.4998,-2.5384,-2.5783,-2.6014,-2.6014,-2.6428,-2.6785,-2.7111,-2.7126,-2.728,-2.76,-2.76,-2.76,-2.757,-2.6911,-2.6228,-2.557,-2.4889,-2.4216,-2.3595,-2.3595,-2.3595,-2.3595,-2.3595,-2.3595,-2.3595,-2.3595,-2.3595,-2.3595,-2.3595,-2.3595,-2.3595,-2.3595,-2.3595,-2.3445,-2.2524,-2.1995,-2.151,-2.0535,-1.9989,-1.9708,-1.9708,-1.9708,-1.9708,-1.9708,-1.9708,-1.9708,-1.9708,-1.9708,-1.9708,-1.9708,-1.9403,-1.8825,-1.7874,-1.7399,-1.6824,-1.5946,-1.5799,-1.5799,-1.5799,-1.5799,-1.5799,-1.5799,-1.5799,-1.5799,-1.5799,-1.5799,-1.5799,-1.5799,-1.5799,-1.5799,-1.5799,-1.5799,-1.5799,-1.5799,-1.5799,-1.5799,-1.5799,-1.5799,-1.5799,-1.5799,-1.5799,-1.5799,-1.7081,-1.7379,-1.7727,-1.6708,-1.6164,-1.5656,-1.4769,-1.4374,-1.4187,-1.3983,-1.424,-1.4573,-1.4655,-1.5618,-1.6763,-1.7915,-1.9497,-2.0993,-2.2146,-2.2694,-2.302,-2.3095,-2.3108,-2.3108,-2.3108,-2.3108,-2.3108,-2.3108,-2.4352,-2.5091,-2.5091,-2.5203,-2.5287,-2.5398,-2.5398,-2.5701,-2.6336,-2.6336,-2.6695,-2.7306,-2.7306,-2.7357,-2.7444,-2.6748,-2.6156,-2.557,-2.4889,-2.4216,-2.3595,-2.3595,-2.3595,-2.3595,-2.3595,-2.3595,-2.3595,-2.3595,-2.3595,-2.3595,-2.3595,-2.3595,-2.3595,-2.3595,-2.3595,-2.3364,-2.2084,-2.1702,-2.1426,-2.009,-1.9708,-1.9708,-1.9708,-1.9708,-1.9708,-1.9708,-1.9708,-1.9708,-1.9708,-1.9708,-1.9708,-1.9708,-1.9708,-1.9277,-1.7935,-1.7704,-1.7265,-1.5991,-1.5799,-1.5799,-1.5799,-1.5799,-1.5799,-1.5799,-1.5799,-1.5799,-1.5799,-1.5799,-1.5799,-1.5799,-1.5799,-1.5799,-1.5799,-1.5799,-1.5799,-1.5799,-1.5799,-1.5799,-1.5799,-1.5799,-1.5799,-1.5799,-1.5799,-1.5799,-1.7827,-1.8137,-1.877,-1.8359,-1.7065,-1.6084,-1.6754,-1.5639,-1.4371,-1.4117,-1.4133,-1.4051,-1.3586,-1.4789,-1.6208,-1.7338,-1.8882,-2.0501,-2.2083,-2.2397,-2.2594,-2.3045,-2.3108,-2.3108,-2.3108,-2.3108,-2.3108,-2.3108,-2.3365,-2.3501,-2.3501,-2.4134,-2.4766,-2.537,-2.5398,-2.5453,-2.5591,-2.5591,-2.5646,-2.5783,-2.5783,-2.6108,-2.6666,-2.6013,-2.5648,-2.557,-2.4889,-2.4216,-2.3595,-2.3595,-2.3595,-2.3595,-2.3595,-2.3595,-2.3595,-2.3595,-2.3595,-2.3595,-2.3595,-2.3595,-2.3595,-2.3595,-2.3595,-2.337,-2.2093,-2.17,-2.1416,-2.0079,-1.9708,-1.9708,-1.9708,-1.9708,-1.9708,-1.9708,-1.9708,-1.9708,-1.9708,-1.9708,-1.9708,-1.9708,-1.9708,-1.9275,-1.7932,-1.7691,-1.727,-1.5993,-1.5799,-1.5799,-1.5799,-1.5799,-1.5799,-1.5799,-1.5799,-1.5799,-1.5799,-1.5799,-1.5799,-1.5799,-1.5799,-1.5799,-1.5799,-1.5799,-1.5799,-1.5799,-1.5799,-1.5799,-1.5799,-1.5799,-1.5799,-1.5799,-1.5799,-1.5799,-1.834,-1.8589,-1.8983,-1.784,-1.6859,-1.6052,-1.557,-1.4573,-1.3634,-1.3321,-1.346,-1.3546,-1.3248,-1.435,-1.555,-1.6371,-1.789,-1.9547,-2.1217,-2.1707,-2.2196,-2.3007,-2.3108,-2.3108,-2.3108,-2.3108,-2.3108,-2.3108,-2.3108,-2.3108,-2.3108,-2.3484,-2.3855,-2.4179,-2.4208,-2.441,-2.4823,-2.4823,-2.5007,-2.5398,-2.5398,-2.5424,-2.5438,-2.5127,-2.4657,-2.4077,-2.375,-2.3233,-2.2614,-2.2603,-2.2826,-2.3091,-2.2749,-2.3029,-2.3551,-2.3246,-2.3334,-2.3595,-2.3595,-2.3595,-2.3595,-2.3595,-2.3595,-2.3424,-2.2506,-2.1982,-2.1495,-2.0491,-1.9972,-1.9708,-1.9708,-1.9708,-1.9708,-1.9708,-1.9708,-1.9708,-1.9708,-1.9708,-1.9708,-1.9708,-1.9708,-1.9379,-1.8393,-1.8218,-1.7782,-1.6469,-1.6263,-1.6153,-1.5843,-1.5799,-1.5799,-1.5799,-1.5799,-1.5799,-1.5799,-1.5799,-1.5799,-1.5799,-1.5799,-1.5799,-1.5799,-1.5799,-1.5799,-1.5799,-1.5799,-1.5799,-1.5799,-1.5799,-1.5799,-1.5799,-1.5799,-1.5799,-1.9142,-1.9303,-1.9463,-1.7812,-1.6888,-1.5991,-1.4428,-1.3521,-1.2888,-1.2565,-1.2873,-1.3198,-1.3198,-1.4036,-1.4934,-1.558,-1.6911,-1.8455,-2.0264,-2.0981,-2.1719,-2.2794,-2.3032,-2.3108,-2.3108,-2.3108,-2.3108,-2.3108,-2.3108,-2.3108,-2.3108,-2.3108,-2.3108,-2.3108,-2.3108,-2.3395,-2.4031,-2.4031,-2.4271,-2.4733,-2.4733,-2.4518,-2.4092,-2.3942,-2.3444,-2.2685,-2.256,-2.219,-2.1697,-2.1695,-2.2006,-2.242,-2.1917,-2.2311,-2.315,-2.2657,-2.2793,-2.3194,-2.3194,-2.3194,-2.3194,-2.3194,-2.3295,-2.3334,-2.2837,-2.223,-2.1554,-2.0887,-2.0315,-1.9889,-1.9735,-1.9708,-1.9708,-1.9708,-1.9708,-1.9708,-1.9708,-1.9612,-1.9564,-1.9675,-1.9612,-1.9355,-1.8811,-1.8696,-1.8249,-1.6911,-1.6698,-1.648,-1.5872,-1.5799,-1.5799,-1.5799,-1.5799,-1.5799,-1.5799,-1.5799,-1.5799,-1.5799,-1.5799,-1.5799,-1.5799,-1.5799,-1.5799,-1.5799,-1.5799,-1.5799,-1.5799,-1.5799,-1.5799,-1.5799,-1.5799,-1.5799,-2.0777,-2.0879,-2.1156,-2.0499,-1.8348,-1.6263,-1.5714,-1.4248,-1.2888,-1.2565,-1.2873,-1.3198,-1.3198,-1.374,-1.4513,-1.5517,-1.6245,-1.7403,-1.9572,-2.0402,-2.1182,-2.2259,-2.2794,-2.3108,-2.3108,-2.3108,-2.3108,-2.3108,-2.3108,-2.3108,-2.3108,-2.3108,-2.3108,-2.3108,-2.3108,-2.3138,-2.3215,-2.3215,-2.2993,-2.2575,-2.2575,-2.2654,-2.2764,-2.2128,-2.2156,-2.2671,-2.2066,-2.1752,-2.1697,-2.1706,-2.173,-2.1781,-2.1724,-2.1771,-2.1862,-2.1815,-2.1828,-2.1862,-2.1862,-2.1862,-2.1862,-2.1862,-2.2277,-2.2778,-2.2727,-2.2243,-2.1561,-2.0887,-2.0666,-2.0474,-1.9859,-1.9708,-1.9708,-1.9708,-1.9708,-1.9708,-1.9708,-1.9322,-1.9113,-1.9612,-1.9307,-1.8923,-1.8731,-1.869,-1.8231,-1.6909,-1.6692,-1.648,-1.5872,-1.5799,-1.5799,-1.5799,-1.5799,-1.5799,-1.5799,-1.5799,-1.5799,-1.5799,-1.5799,-1.5799,-1.5799,-1.5799,-1.5799,-1.5799,-1.5799,-1.5799,-1.5799,-1.5799,-1.5799,-1.5799,-1.5799,-1.5799,-2.0175,-2.03,-2.0307,-1.9646,-1.8211,-1.669,-1.5759,-1.4549,-1.3481,-1.3022,-1.3064,-1.3198,-1.3198,-1.3403,-1.3828,-1.4614,-1.4928,-1.5701,-1.7541,-1.8317,-1.9371,-2.1144,-2.1807,-2.2397,-2.3045,-2.3108,-2.297,-2.2631,-2.2606,-2.2498,-2.2159,-2.2744,-2.3108,-2.3108,-2.3108,-2.3108,-2.3108,-2.2782,-2.2493,-2.2309,-2.197,-2.1686,-2.144,-2.1168,-2.1017,-2.0936,-2.0662,-2.0557,-2.0557,-2.0557,-2.0781,-2.1113,-2.0706,-2.1013,-2.1663,-2.1293,-2.139,-2.1697,-2.1697,-2.1697,-2.1697,-2.1697,-2.1633,-2.1619,-2.1975,-2.1409,-2.0556,-2.0286,-1.9693,-1.9069,-1.8817,-1.8731,-1.8734,-1.8734,-1.8734,-1.8744,-1.8731,-1.8555,-1.8478,-1.8687,-1.8559,-1.8496,-1.8771,-1.8811,-1.8599,-1.8004,-1.7547,-1.7079,-1.6421,-1.602,-1.5799,-1.5799,-1.5799,-1.5799,-1.5799,-1.5799,-1.5799,-1.5799,-1.5799,-1.5799,-1.5799,-1.5799,-1.5799,-1.5799,-1.5799,-1.5799,-1.5799,-1.5799,-1.5799,-1.5799,-1.5799,-1.5799,-1.9698,-1.9924,-1.9945,-1.9419,-1.8291,-1.7027,-1.5962,-1.4836,-1.3839,-1.3318,-1.3198,-1.3198,-1.3198,-1.3198,-1.3403,-1.3997,-1.4223,-1.4833,-1.6308,-1.7162,-1.8254,-1.9974,-2.0842,-2.1606,-2.2531,-2.2907,-2.2945,-2.2556,-2.2397,-2.2146,-2.1757,-2.2309,-2.2619,-2.2619,-2.2619,-2.2619,-2.2619,-2.2259,-2.1983,-2.182,-2.143,-2.0981,-2.0427,-2.0427,-2.0188,-1.9798,-1.9798,-1.9798,-1.9798,-1.9798,-2.008,-2.0446,-1.9978,-2.0345,-2.1086,-2.0658,-2.0769,-2.1135,-2.1135,-2.1135,-2.1135,-2.1135,-2.0842,-2.0576,-2.1014,-2.0566,-1.9903,-1.9911,-1.903,-1.8113,-1.8099,-1.8094,-1.8104,-1.81,-1.8096,-1.8093,-1.8091,-1.7987,-1.792,-1.806,-1.7968,-1.8032,-1.8579,-1.8668,-1.8553,-1.8266,-1.7826,-1.7223,-1.6383,-1.5906,-1.5595,-1.5418,-1.5418,-1.5522,-1.5784,-1.5799,-1.5799,-1.5799,-1.5799,-1.5799,-1.5799,-1.5799,-1.5799,-1.5799,-1.5799,-1.5799,-1.5799,-1.5799,-1.5799,-1.5799,-1.5799,-1.5799,-1.9798,-2.0251,-2.0679,-2.0679,-1.8978,-1.7171,-1.6607,-1.5203,-1.3839,-1.3318,-1.3198,-1.3198,-1.3198,-1.3198,-1.3403,-1.3997,-1.4551,-1.5273,-1.6337,-1.7488,-1.8405,-1.8958,-2.0012,-2.0918,-2.1455,-2.2498,-2.3108,-2.3095,-2.2594,-2.2309,-2.2297,-2.1794,-2.1506,-2.1506,-2.1506,-2.1506,-2.1506,-2.1493,-2.1257,-2.0717,-2.0704,-2.0402,-1.9811,-1.9811,-1.9811,-1.9798,-1.9798,-1.9798,-1.9798,-1.9798,-1.9798,-1.9798,-1.9798,-1.9798,-1.9824,-1.9798,-1.9798,-1.9824,-1.9824,-1.9824,-1.9824,-1.9824,-1.9824,-1.9811,-1.9824,-1.9856,-1.9909,-1.9905,-1.9038,-1.8092,-1.81,-1.8085,-1.809,-1.8116,-1.8105,-1.8104,-1.8094,-1.7673,-1.7462,-1.7988,-1.7671,-1.7491,-1.8017,-1.8106,-1.7882,-1.7217,-1.71,-1.6671,-1.5479,-1.5302,-1.5109,-1.4576,-1.4517,-1.486,-1.5741,-1.5799,-1.5799,-1.5799,-1.5799,-1.5799,-1.5799,-1.5799,-1.5799,-1.5799,-1.5799,-1.5799,-1.5799,-1.5799,-1.5799,-1.5799,-1.5799,-1.5799,-1.8154,-1.8303,-1.8353,-1.7928,-1.7289,-1.6529,-1.5602,-1.4997,-1.4354,-1.3406,-1.3198,-1.3198,-1.3198,-1.3198,-1.3516,-1.45,-1.479,-1.5148,-1.5856,-1.6923,-1.799,-1.8895,-2.0976,-2.2422,-2.2569,-2.2895,-2.2794,-2.2071,-2.1845,-2.1418,-2.0639,-2.0426,-2.069,-2.1496,-2.1493,-2.1669,-2.2046,-2.1333,-2.1056,-2.1245,-2.0465,-1.9974,-1.9798,-1.9798,-1.9798,-1.9798,-1.9798,-1.9798,-1.9798,-1.9798,-1.9798,-1.9798,-1.9798,-1.9798,-1.9798,-1.9798,-1.9798,-1.9798,-1.9798,-1.9798,-1.9798,-1.9798,-1.9798,-1.9798,-1.9798,-1.9571,-1.9128,-1.8393,-1.7917,-1.752,-1.7115,-1.7016,-1.701,-1.7021,-1.7016,-1.7002,-1.7021,-1.6863,-1.6808,-1.6965,-1.6854,-1.6921,-1.745,-1.7555,-1.7618,-1.7757,-1.7383,-1.6842,-1.608,-1.558,-1.5086,-1.4556,-1.4501,-1.461,-1.4892,-1.4921,-1.4921,-1.4921,-1.4911,-1.4902,-1.4905,-1.5178,-1.533,-1.5329,-1.5637,-1.5637,-1.5314,-1.5314,-1.5314,-1.5329,-1.5651,-1.5799,-1.7285,-1.741,-1.7322,-1.6936,-1.6522,-1.5969,-1.5097,-1.4739,-1.4331,-1.3403,-1.3198,-1.3198,-1.3198,-1.3047,-1.3235,-1.4118,-1.4455,-1.4765,-1.5225,-1.6254,-1.7348,-1.8326,-2.0539,-2.1968,-2.1819,-2.2596,-2.26,-2.1403,-2.1425,-2.1091,-2.0175,-1.9924,-1.9994,-2.0422,-2.0705,-2.1016,-2.1355,-2.093,-2.0607,-2.0446,-2.0245,-1.9738,-1.8992,-1.9553,-1.9643,-1.9397,-1.9669,-1.9798,0.0,-1.9798,-1.9798,-1.9798,-1.9798,-1.9798,-1.9798,-1.9798,-1.9798,-1.9798,-1.9798,-1.9798,-1.9798,-1.9798,-1.9798,-1.9798,-1.9798,-1.9447,-1.882,-1.794,-1.7558,-1.7301,-1.693,-1.6663,-1.65,-1.65,-1.65,-1.65,-1.65,-1.65,-1.65,-1.65,-1.65,-1.6602,-1.6935,-1.7003,-1.7106,-1.7449,-1.7142,-1.6692,-1.6131,-1.5718,-1.5243,-1.4701,-1.4472,-1.4349,-1.4356,-1.4432,-1.4491,-1.4491,-1.4499,-1.4506,-1.4504,-1.4745,-1.4938,-1.511,-1.5387,-1.549,-1.5358,-1.5193,-1.5017,-1.4877,-1.5183,-1.5534,0.0,-1.7197,-1.7159,-1.7121,-1.6355,-1.5449,-1.4896,-1.4425,0.0,-1.3328,-1.3198,-1.321,-1.3248,-1.2862,-1.2686,-1.3278,-1.3776,-1.4259,-1.4671,-1.5716,-1.6713,-1.7533,-1.9154,-2.011,-1.9809,-2.1691,-2.2352,-2.0967,-2.1145,-2.1079,-2.0519,-1.9956,-1.9333,-1.8635,-1.9281,-1.9656,-1.9693,-2.0218,-1.99,-1.8774,-1.9924,-1.9486,-1.7715,-1.9044,-1.9254,-1.8661,-1.9397,-1.9695,-1.9643,-1.9695,-1.9695,-1.9631,-1.9631,-1.9631,-1.9631,-1.9631,-1.9669,-1.9721,-1.9721,-1.9747,-1.9798,-1.9798,-1.9798,-1.9798,-1.9798,-1.9434,-1.8945,-1.8367,-1.784,-1.7448,-1.736,-1.6923,-1.65,-1.65,-1.65,-1.65,-1.65,-1.65,-1.65,-1.65,-1.65,-1.65,-1.65,-1.65,-1.65,-1.65,-1.65,-1.6321,-1.5776,-1.5706,-1.5482,-1.4948,-1.4456,-1.4158,-1.4158,-1.4353,-1.4445,-1.4414,-1.4445,-1.4445,-1.4414,-1.4453,-1.4653,-1.5052,-1.5067,-1.5271,-1.5666,-1.5243,-1.482,-1.4471,-1.4529,-1.5096,-1.5404,0.0,-1.4765,-1.4293,-1.4325,-1.4305,0.0,-1.3866,-1.3934,-1.3328,-1.3198,-1.3341,-1.379,-1.3124,-1.3065,-1.4824,-1.4535,-1.453,-1.5739,-1.7014,-1.8042,-1.8657,-1.9791,-2.0477,-2.04,-2.0862,-2.0722,-1.9617,-1.9625,-1.9281,-1.8382,-1.8182,-1.8031,-1.7841,-1.8043,-1.8336,-1.8795,-1.8501,-1.8694,-1.9388,-1.8655,-1.8375,-1.8436,-1.8232,-1.8004,-1.7895,-1.8635,-1.8635,-1.8167,-1.8741,-1.8635,-1.8112,-1.8112,-1.8112,-1.8112,-1.8112,-1.8463,-1.8953,-1.8953,-1.9333,-1.9798,-1.9798,-1.9798,-1.9798,-1.9798,-1.971,-1.9422,-1.848,-1.8116,-1.7815,-1.6948,-1.66,-1.65,-1.65,-1.65,-1.65,-1.65,-1.65,-1.65,-1.65,-1.65,-1.65,-1.65,-1.65,-1.65,-1.65,-1.65,-1.6317,-1.577,-1.5709,-1.5493,-1.4948,-1.4797,-1.4702,-1.4702,-1.4384,-1.4007,-1.3526,-1.3947,-1.399,-1.3526,-1.3847,-1.4279,-1.4779,-1.4788,-1.4656,-1.4342,-1.4243,-1.4126,-1.407,-1.4771,-1.5253,-1.3581,-1.4135,-1.4758,-1.4438,-1.4419,-1.4387,-1.4048,-1.3648,-1.3269,-1.2952,-1.2703,-1.2717,-1.323,-1.2658,-1.2647,-1.4198,-1.4177,-1.4443,-1.5839,-1.6774,-1.7459,-1.7953,-1.8985,-1.9609,-1.941,-2.0139,-2.0119,-1.8902,-1.9006,-1.8746,-1.7958,-1.7729,-1.744,-1.7118,-1.709,-1.7516,-1.8412,-1.8154,-1.8171,-1.8498,-1.8171,-1.7718,-1.7208,-1.7457,-1.7413,-1.7146,-1.7879,-1.7977,-1.7633,-1.8043,-1.7961,-1.7605,-1.7605,-1.7605,-1.7605,-1.7605,-1.7852,-1.8205,-1.8205,-1.8474,-1.8794,-1.8794,-1.8794,-1.8811,-1.8909,-1.8913,-1.8929,-1.8921,-1.8581,-1.8066,-1.7428,-1.6889,-1.65,-1.65,-1.65,-1.65,-1.65,-1.65,-1.65,-1.65,-1.65,-1.65,-1.65,-1.65,-1.65,-1.65,-1.65,-1.6396,-1.6094,-1.6077,-1.5968,-1.5676,-1.5406,-1.5267,-1.5267,-1.4999,-1.4481,-1.365,-1.3917,-1.3826,-1.3228,-1.3442,-1.3825,-1.433,-1.5004,-1.4872,-1.3889,-1.4143,-1.4171,-1.4007,-1.4505,-1.5131,-1.2162,-1.3737,-1.5496,-1.5249,-1.4945,-1.4686,-1.4552,-1.3464,-1.2466,-1.2413,-1.2123,-1.2013,-1.2435,-1.2172,-1.2192,-1.3082,-1.3643,-1.4351,-1.5512,-1.5958,-1.6328,-1.6746,-1.7823,-1.8359,-1.8037,-1.9342,-1.9684,-1.8434,-1.8579,-1.8514,-1.8002,-1.7509,-1.6978,-1.634,-1.6384,-1.6951,-1.8061,-1.8111,-1.7817,-1.7212,-1.7846,-1.724,-1.5613,-1.6743,-1.6922,-1.6379,-1.7107,0.0,-1.7263,-1.7385,-1.7385,-1.7274,-1.7274,-1.7274,-1.7274,-1.7274,-1.733,-1.744,-1.755,-1.7605,-1.7605,-1.7605,-1.7605,-1.7636,-1.7789,-1.792,-1.8235,-1.9215,-1.8821,-1.8053,-1.7965,-1.7215,-1.65,-1.65,-1.65,-1.65,-1.65,-1.65,-1.65,-1.65,-1.65,-1.65,-1.65,-1.65,-1.65,-1.65,-1.65,-1.65,-1.65,-1.65,-1.65,-1.65,-1.6089,-1.5819,-1.5819,-1.5819,-1.5389,-1.4408,-1.433,-1.4074,-1.3478,-1.3554,-1.3696,-1.393,-1.5246,-1.5255,-1.3922,-1.4296,-1.4384,-1.4232,-1.4217,-1.5006,-1.2654,-1.3811,-1.4549,-1.3231,-1.3399,-1.3686,-1.2952,-1.2588,-1.2324,-1.1993,-1.2118,-1.2477,-1.2977,-1.2925,-1.3112,-1.4103,-1.4531,-1.4889,-1.5376,-1.6135,-1.6787,-1.7227,-1.778,-1.8065,-1.8008,-1.8236,-1.8158,-1.7599,-1.725,-1.6897,-1.6467,-1.5988,-1.569,-1.5584,-1.594,-1.6416,-1.6924,-1.6637,-1.6707,-1.7183,-1.6707,-1.6414,-1.6322,-1.5921,-1.569,-1.5613,0.0,-1.6312,-1.5806,-1.6397,-1.6312,-1.5748,-1.5748,-1.5748,-1.5748,-1.5748,-1.614,-1.6765,-1.7385,-1.7605,-1.7605,-1.7605,-1.7605,-1.7622,-1.7652,-1.8089,-1.8512,-1.8259,-1.7885,-1.7423,-1.6898,-1.6626,-1.65,-1.65,-1.65,-1.65,-1.65,-1.65,-1.65,-1.65,-1.65,-1.65,-1.65,-1.65,-1.65,-1.65,-1.65,-1.65,-1.65,-1.65,-1.65,-1.65,-1.642,-1.6386,-1.6386,-1.6386,-1.6101,-1.5487,-1.5454,-1.5221,-1.4657,-1.5085,-1.4916,-1.408,-1.4751,-1.4745,-1.4075,-1.364,-1.3887,-1.4785,-1.4767,-1.5157,-1.1499,-1.2257,-1.2917,-1.2411,-1.3634,-1.4846,-1.4438,-1.3673,-1.2936,-1.2528,-1.2352,-1.2441,-1.2941,-1.3004,-1.3405,-1.4759,-1.4921,-1.5143,-1.5967,-1.6269,-1.6621,-1.7337,-1.7549,-1.7764,-1.7988,-1.8008,-1.7832,-1.7422,-1.6982,-1.6502,-1.6114,-1.5644,-1.541,-1.541,-1.5605,-1.5918,-1.6367,-1.6193,-1.6395,-1.693,-1.6118,-1.5782,-1.5892,-1.5555,-1.541,-1.541,0.0,-1.5719,-1.5439,-1.5787,-1.57,-1.541,-1.541,-1.541,-1.541,-1.541,-1.5604,-1.595,-1.6301,-1.6415,-1.6415,-1.6415,-1.6415,-1.6419,-1.6539,-1.6809,-1.7049,-1.692,-1.7543,-1.8078,-1.7212,-1.6986,-1.6911,-1.6575,-1.65,-1.65,-1.65,-1.65,-1.65,-1.65,-1.65,-1.65,-1.65,-1.65,-1.65,-1.65,-1.65,-1.65,-1.65,-1.65,-1.65,-1.65,-1.65,-1.65,-1.65,-1.65,-1.6257,-1.5724,-1.5429,-1.5169,-1.4916,-1.5135,-1.4896,-1.4116,-1.4916,-1.493,-1.4097,-1.4393,-1.4833,-1.5318,-1.5329,-1.5626,-1.0771,-1.1079,-1.1579,-1.22,-1.3748,-1.5174,-1.5376,-1.4293,-1.3148,-1.2758,-1.2572,-1.2526,-1.257,-1.2914,-1.3633,-1.5039,-1.5166,-1.5459,-1.6436,-1.6455,-1.6652,-1.7337,-1.7383,-1.751,-1.7832,-1.7773,-1.7578,-1.7256,-1.6826,-1.6426,-1.6114,-1.5644,-1.541,-1.541,-1.5508,-1.5723,-1.6085,-1.6095,-1.6261,-1.6562,-1.5889,-1.5508,-1.541,-1.541,-1.541,-1.541,-1.541,-1.541,-1.541,-1.541,-1.541,-1.541,-1.541,-1.541,-1.541,-1.541,-1.541,-1.541,-1.541,-1.541,-1.541,-1.541,-1.541,-1.5438,-1.5573,-1.5749,-1.5892,-1.592,-1.7245,-1.846,-1.756,-1.7146,-1.6931,-1.6742,-1.6501,-1.6281,-1.6281,-1.6173,-1.6129,-1.6259,-1.6281,-1.6324,-1.6479,-1.65,-1.65,-1.65,-1.65,-1.65,-1.65,-1.65,-1.65,-1.65,-1.65,-1.65,-1.65,-1.65,-1.6329,-1.5909,-1.5389,-1.5135,-1.5273,-1.5273,-1.5009,-1.4488,-1.5286,-1.5299,-1.4475,-1.5184,-1.5636,-1.5873,-1.5756,-1.5988,-1.1853,-1.1457,-1.1189,-1.2522,-1.2669,-1.2687,-1.3495,-1.2954,-1.2199,-1.178,-1.2598,-1.3055,-1.1911,-1.2964,-1.4192,-1.4746,-1.5498,-1.6036,-1.6124,-1.6819,-1.7314,-1.7373,-1.7383,-1.7393,-1.7422,-1.7061,-1.6785,-1.6746,-1.6367,-1.6124,-1.6095,-1.5644,-1.541,-1.541,-1.5831,-1.6065,-1.6095,-1.6095,-1.6105,-1.6144,-1.6075,-1.5831,-1.541,-1.541,-1.541,-1.541,-1.541,-1.541,-1.541,-1.541,-1.541,-1.541,-1.541,-1.541,-1.541,-1.541,-1.541,-1.541,-1.541,-1.541,-1.541,-1.541,-1.541,-1.54,-1.5429,-1.5899,-1.6346,-1.5859,-1.6667,-1.7622,-1.7223,-1.6431,-1.6001,-1.7075,-1.6475,-1.5654,-1.5654,-1.5208,-1.4994,-1.5565,-1.5654,-1.5842,-1.6402,-1.65,-1.65,-1.65,-1.65,-1.65,-1.65,-1.65,-1.65,-1.65,-1.65,-1.65,-1.65,-1.65,-1.6475,-1.6446,-1.5932,-1.5869,-1.635,-1.6375,-1.6132,-1.5613,-1.5655,-1.5655,-1.558,-1.5158,-1.5471,-1.6431,-1.5926,-1.5988,-1.0996,-1.1151,-1.1433,-1.195,-1.182,-1.1991,-1.353,-1.3453,-1.302,-1.2887,-1.3241,-1.3359,-1.2644,-1.3424,-1.4249,-1.4503,-1.5176,-1.585,-1.6406,-1.6523,-1.667,-1.6943,-1.695,-1.695,-1.695,-1.6794,-1.659,-1.6338,-1.6193,-1.5977,-1.5674,-1.5498,-1.541,-1.541,-1.5566,-1.5654,-1.5654,-1.5654,-1.5654,-1.5664,-1.5958,-1.586,-1.542,-1.5693,-1.5664,-1.541,-1.541,-1.541,-1.541,-1.541,-1.541,-1.541,-1.541,-1.541,-1.541,-1.541,-1.541,-1.541,-1.541,-1.541,-1.541,-1.541,-1.541,-1.541,-1.541,-1.5584,-1.5776,-1.5577,-1.5672,-1.5951,-1.6308,-1.6384,-1.6299,-1.6126,-1.5753,-1.5337,-1.5097,-1.4858,-1.4766,-1.4994,-1.5038,-1.5115,-1.5326,-1.5374,-1.5389,-1.5389,-1.538,-1.538,-1.5366,-1.5724,-1.5942,-1.5942,-1.6271,-1.65,-1.65,-1.65,-1.65,-1.65,-1.63,-1.6287,-1.6488,-1.6183,-1.5906,-1.5693,-1.5693,-1.5693,-1.5693,-1.5836,-1.609,-1.65,-1.6284,-1.6305,-1.0721,-1.0755,-1.0901,-1.1208,-1.1086,-1.1299,-1.2853,-1.305,-1.2898,-1.3002,-1.2854,-1.2706,-1.2849,-1.3213,-1.3608,-1.4064,-1.4745,-1.5503,-1.6189,-1.6289,-1.6338,-1.6504,-1.6523,-1.6523,-1.6523,-1.6365,-1.6191,-1.5909,-1.5889,-1.5723,-1.543,-1.541,-1.541,-1.541,-1.541,-1.541,-1.541,-1.541,-1.541,-1.542,-1.5889,-1.586,-1.542,-1.5723,-1.5693,-1.541,-1.541,-1.541,-1.541,-1.541,-1.541,-1.541,-1.541,-1.541,-1.541,-1.541,-1.541,-1.541,-1.541,-1.541,-1.541,-1.541,-1.541,-1.541,-1.541,-1.541,-1.541,-1.541,-1.5205,-1.5127,-1.5668,-1.603,-1.6184,-1.5859,-1.5405,-1.4941,-1.4671,-1.4345,-1.4201,-1.4377,-1.4423,-1.447,-1.4677,-1.4687,-1.4697,-1.4708,-1.4706,-1.4695,-1.471,-1.5075,-1.5325,-1.5325,-1.5694,-1.5939,-1.5942,-1.5932,-1.5932,-1.5932,-1.5932,-1.6107,-1.6466,-1.6158,-1.5957,-1.5957,-1.5957,-1.5957,-1.5957,-1.6312,-1.65,-1.65,-1.65,-1.65,-1.139,-1.0362,-0.9346,-1.0339,-1.0403,-1.0393,-1.1131,-1.1294,-1.1378,-1.1715,-1.1197,-1.1048,-1.2173,-1.213,-1.2279,-1.3393,-1.4324,-1.501,-1.5352,-1.6141,-1.6553,-1.6134,-1.6085,-1.6085,-1.6085,-1.5664,-1.541,-1.541,-1.541,-1.541,-1.541,-1.541,-1.541,-1.541,-1.541,-1.541,-1.541,-1.541,-1.541,-1.542,-1.588,-1.586,-1.541,-1.5391,-1.5391,-1.541,-1.541,-1.541,-1.541,-1.541,-1.541,-1.541,-1.541,-1.541,-1.541,-1.541,-1.541,-1.541,-1.541,-1.541,-1.541,-1.541,-1.541,-1.541,-1.541,-1.541,-1.541,-1.541,-1.541,-1.541,-1.541,-1.5247,-1.5389,-1.6504,-1.556,-1.4401,-1.4401,-1.3614,-1.3069,-1.3682,-1.3785,-1.3972,-1.4581,-1.4675,-1.4674,-1.468,-1.4684,-1.4687,-1.4699,-1.4692,-1.4691,-1.4691,-1.4691,-1.4713,-1.4698,-1.4709,-1.4709,-1.4698,-1.4698,-1.522,-1.6423,-1.6466,-1.6466,-1.6466,-1.6466,-1.6466,-1.6466,-1.65,-1.65,-1.65,-1.65,-1.65,-1.0079,-1.0061,-0.9976,-0.9873,-1.0267,-1.0759,-1.109,-1.1153,-1.1276,-1.1721,-1.1169,-1.0821,-1.1509,-1.1742,-1.1848,-1.1974,-1.3352,-1.4439,-1.4529,-1.5269,-1.5752,-1.5615,-1.5605,-1.5605,-1.5605,-1.5488,-1.541,-1.541,-1.541,-1.541,-1.541,-1.541,-1.541,-1.541,-1.541,-1.541,-1.541,-1.541,-1.541,-1.541,-1.5537,-1.5537,-1.542,-1.5732,-1.5703,-1.541,-1.541,-1.541,-1.541,-1.541,-1.541,-1.541,-1.541,-1.541,-1.541,-1.541,-1.541,-1.541,-1.541,-1.541,-1.541,-1.541,-1.541,-1.541,-1.541,-1.541,-1.541,-1.541,-1.541,-1.541,-1.541,-1.5368,-1.5319,-1.5378,-1.5036,-1.4506,-1.3902,-1.3516,-1.3295,-1.3187,-1.3168,-1.3222,-1.3392,-1.343,-1.344,-1.3433,-1.3426,-1.3648,-1.4204,-1.4281,-1.4388,-1.4664,-1.4698,-1.4695,-1.4697,-1.4707,-1.4706,-1.4697,-1.4422,-1.456,-1.5197,-1.522,-1.522,-1.522,-1.522,-1.522,-1.522,-1.5666,-1.5864,-1.5886,-1.6303,-1.6259,-0.97,-0.9858,-0.9898,-0.9839,-1.0192,-1.0642,-1.0843,-1.0911,-1.0967,-1.1246,-1.0829,-1.0516,-1.0955,-1.1083,-1.1196,-1.145,-1.2762,-1.3816,-1.4154,-1.4894,-1.541,-1.541,-1.541,-1.541,-1.541,-1.541,-1.541,-1.541,-1.541,-1.541,-1.541,-1.541,-1.541,-1.541,-1.541,-1.541,-1.541,-1.541,-1.541,-1.541,-1.541,-1.541,-1.542,-1.5684,-1.5664,-1.541,-1.541,-1.541,-1.541,-1.541,-1.541,-1.541,-1.541,-1.541,-1.541,-1.541,-1.541,-1.541,-1.541,-1.541,-1.541,-1.541,-1.541,-1.541,-1.541,-1.541,-1.541,-1.541,-1.541,-1.541,-1.541,-1.541,-1.5352,-1.5098,-1.4902,-1.4611,-1.3888,-1.3747,-1.3561,-1.3008,-1.3032,-1.31,-1.2939,-1.2905,-1.2905,-1.2905,-1.2905,-1.3076,-1.3561,-1.363,-1.3734,-1.3966,-1.3976,-1.3976,-1.3976,-1.3976,-1.3969,-1.3988,-1.3766,-1.3718,-1.3978,-1.4456,-1.4698,-1.4698,-1.4698,-1.4698,-1.4698,-1.5062,-1.5231,-1.5253,-1.5634,-1.5589,-0.9779,-0.9592,-0.9299,-1.0016,-1.0163,-1.0229,-1.0496,-1.0573,-1.0593,-1.0593,-1.0347,-1.0241,-1.0546,-1.0341,-1.0479,-1.1511,-1.2358,-1.3152,-1.3965,-1.4776,-1.5323,-1.5381,-1.541,-1.541,-1.541,-1.541,-1.541,-1.541,-1.541,-1.541,-1.541,-1.541,-1.541,-1.541,-1.541,-1.541,-1.541,-1.541,-1.541,-1.541,-1.541,-1.541,-1.541,-1.541,-1.541,-1.541,-1.541,-1.541,-1.541,-1.541,-1.541,-1.541,-1.541,-1.541,-1.541,-1.541,-1.541,-1.541,-1.541,-1.541,-1.541,-1.541,-1.541,-1.541,-1.541,-1.541,-1.541,-1.541,-1.541,-1.541,-1.541,-1.541,-1.541,-1.541,-1.5117,-1.4729,-1.4257,-1.4164,-1.3943,-1.3165,-1.3298,-1.3436,-1.3027,-1.2949,-1.2954,-1.2915,-1.2939,-1.2973,-1.2905,-1.2905,-1.2905,-1.2905,-1.2905,-1.2905,-1.2905,-1.2905,-1.2905,-1.2905,-1.2905,-1.2905,-1.2905,-1.3954,-1.4548,-1.4548,-1.4548,-1.4548,-1.4548,-1.4594,-1.4629,-1.4629,-1.4675,-1.4675,-0.8595,-0.8647,-0.8714,-0.9302,-0.9964,-1.0445,-1.0251,-1.0425,-1.0593,-1.0593,-1.0539,-1.0512,-1.0579,-1.0539,-1.0575,-1.0825,-1.1531,-1.2328,-1.3152,-1.3936,-1.4688,-1.5323,-1.541,-1.541,-1.541,-1.541,-1.541,-1.541,-1.541,-1.541,-1.541,-1.541,-1.541,-1.541,-1.541,-1.541,-1.541,-1.541,-1.541,-1.541,-1.541,-1.541,-1.541,-1.541,-1.541,-1.541,-1.541,-1.541,-1.541,-1.541,-1.541,-1.541,-1.541,-1.541,-1.541,-1.541,-1.541,-1.541,-1.541,-1.541,-1.541,-1.541,-1.541,-1.541,-1.541,-1.541,-1.541,-1.541,-1.541,-1.541,-1.541,-1.541,-1.541,-1.541,-1.5342,-1.5158,-1.4744,-1.465,-1.4501,-1.3942,-1.3919,-1.3845,-1.3455,-1.3377,-1.3262,-1.2954,-1.3262,-1.3375,-1.2939,-1.2905,-1.2905,-1.2905,-1.2905,-1.2905,-1.2905,-1.2905,-1.2905,-1.2905,-1.2905,-1.2905,-1.2905,-1.3162,-1.3296,-1.3296,-1.3296,-1.3296,-1.3296,-1.3755,-1.398,-1.4003,-1.4468,-1.4445,-0.8033,-0.8239,-0.8576,-0.9272,-0.9907,-1.0347,-1.0327,-1.0479,-1.0593,-1.0593,-1.0593,-1.0593,-1.0593,-1.0593,-1.0593,-1.0593,-1.1288,-1.1958,-1.2358,-1.3122,-1.3906,-1.4726,-1.4844,-1.4991,-1.5352,-1.541,-1.541,-1.541,-1.541,-1.541,-1.541,-1.541,-1.541,-1.541,-1.541,-1.541,-1.541,-1.541,-1.541,-1.541,-1.541,-1.541,-1.541,-1.541,-1.541,-1.541,-1.541,-1.541,-1.541,-1.541,-1.541,-1.541,-1.541,-1.541,-1.541,-1.541,-1.541,-1.541,-1.541,-1.541,-1.541,-1.541,-1.541,-1.541,-1.541,-1.541,-1.541,-1.541,-1.541,-1.541,-1.541,-1.541,-1.541,-1.541,-1.541,-1.5294,-1.4877,-1.4945,-1.4896,-1.4225,-1.4101,-1.4035,-1.3828,-1.3691,-1.3514,-1.3302,-1.3288,-1.3216,-1.2948,-1.3603,-1.4092,-1.4092,-1.3394,-1.2905,-1.2905,-1.2905,-1.2905,-1.2905,-1.2905,-1.2905,-1.2905,-1.2905,-1.2905,-1.2905,-1.2905,-1.2905,-1.2905,-1.3214,-1.3372,-1.3372,-1.3705,-1.3671,-0.7606,-0.8029,-0.8583,-0.9367,-0.9826,-1.0167,-1.0399,-1.0519,-1.0593,-1.0593,-1.0593,-1.0593,-1.0593,-1.0593,-1.0593,-1.0593,-1.117,-1.1648,-1.1772,-1.2358,-1.3092,-1.3906,-1.4115,-1.4451,-1.5147,-1.5323,-1.541,-1.541,-1.541,-1.541,-1.541,-1.541,-1.541,-1.541,-1.541,-1.541,-1.541,-1.541,-1.541,-1.541,-1.5264,-1.5196,-1.5206,-1.505,-1.5138,-1.5381,-1.5255,-1.5255,-1.5381,-1.5108,-1.5147,-1.5381,-1.5264,-1.5294,-1.541,-1.541,-1.541,-1.541,-1.541,-1.541,-1.541,-1.541,-1.541,-1.541,-1.541,-1.541,-1.541,-1.541,-1.541,-1.541,-1.541,-1.541,-1.541,-1.541,-1.541,-1.5303,-1.4984,-1.5177,-1.5187,-1.4463,-1.4212,-1.4156,-1.4285,-1.4012,-1.3728,-1.3579,-1.3433,-1.3316,-1.3316,-1.454,-1.541,-1.541,-1.3896,-1.3023,-1.3316,-1.332,-1.3218,-1.2925,-1.2905,-1.2905,-1.2905,-1.2905,-1.2905,-1.2905,-1.2905,-1.2905,-1.2905,-1.2905,-1.2905,-1.2905,-1.2905,-1.2905,-0.6754,-0.7578,-0.8489,-0.8831,-0.9526,-1.006,-0.9876,-1.0224,-1.0593,-1.0593,-1.0593,-1.0593,-1.0593,-1.0593,-1.0593,-1.0593,-1.0681,-1.0982,-1.171,-1.1888,-1.2266,-1.3061,-1.3786,-1.4243,-1.4362,-1.4991,-1.541,-1.541,-1.541,-1.541,-1.541,-1.541,-1.541,-1.541,-1.541,-1.541,-1.541,-1.541,-1.541,-1.5381,-1.4688,-1.4362,-1.4332,-1.3636,-1.4085,-1.5352,-1.4658,-1.4746,-1.5294,-1.3906,-1.4145,-1.5323,-1.4628,-1.4785,-1.541,-1.541,-1.541,-1.541,-1.541,-1.541,-1.541,-1.541,-1.541,-1.541,-1.541,-1.541,-1.541,-1.541,-1.541,-1.541,-1.541,-1.541,-1.541,-1.541,-1.541,-1.5381,-1.5332,-1.5371,-1.5371,-1.5255,-1.4614,-1.434,-1.5109,-1.4572,-1.3809,-1.3117,-1.4176,-1.5071,-1.5071,-1.5264,-1.541,-1.541,-1.3896,-1.3502,-1.4951,-1.5078,-1.4443,-1.2993,-1.2905,-1.2905,-1.2905,-1.2905,-1.2905,-1.2905,-1.2905,-1.2905,-1.2905,-1.2905,-1.2905,-1.2905,-1.2905,-1.2905,-0.6968,-0.7595,-0.8277,-0.8871,-0.9311,-0.965,-0.988,-1.0,-1.0191,-1.0526,-1.0459,-1.0399,-1.0566,-1.0593,-1.0593,-1.0593,-1.0593,-1.0713,-1.1076,-1.1139,-1.1445,-1.2235,-1.2626,-1.3023,-1.3485,-1.3855,-1.4243,-1.4688,-1.4726,-1.4932,-1.5381,-1.541,-1.541,-1.541,-1.541,-1.541,-1.541,-1.4962,-1.451,-1.4055,-1.3696,-1.3524,-1.3515,-1.3161,-1.3403,-1.4025,-1.3666,-1.3734,-1.3995,-1.3274,-1.3425,-1.4025,-1.3674,-1.4025,-1.4726,-1.4726,-1.5021,-1.541,-1.541,-1.541,-1.541,-1.541,-1.541,-1.541,-1.541,-1.541,-1.541,-1.541,-1.541,-1.541,-1.541,-1.541,-1.541,-1.541,-1.541,-1.541,-1.541,-1.541,-1.5273,-1.4767,-1.4747,-1.464,-1.4092,-1.4473,-1.4727,-1.4355,-1.4932,-1.541,-1.541,-1.541,-1.541,-1.541,-1.4746,-1.46,-1.5352,-1.541,-1.4017,-1.0809,-1.2058,-1.2905,-1.2905,-1.333,-1.3584,-1.3584,-1.3125,-1.2905,-1.2905,-1.2905,-1.2905,-1.2905,-1.2905,-1.2905,-0.6955,-0.7355,-0.7726,-0.841,-0.8714,-0.8953,-0.9509,-0.9567,-0.9705,-1.0323,-1.0327,-1.0294,-1.0553,-1.0593,-1.0593,-1.0593,-1.0593,-1.0593,-1.0593,-1.0593,-1.0839,-1.1406,-1.1679,-1.205,-1.2634,-1.2887,-1.3252,-1.3855,-1.4085,-1.4451,-1.505,-1.5294,-1.541,-1.541,-1.541,-1.541,-1.541,-1.4599,-1.3786,-1.3009,-1.2795,-1.2704,-1.2696,-1.2489,-1.2397,-1.2397,-1.2612,-1.2826,-1.2978,-1.2551,-1.2642,-1.2978,-1.2757,-1.3183,-1.3906,-1.3906,-1.4264,-1.4776,-1.4776,-1.4932,-1.5108,-1.5108,-1.5225,-1.541,-1.541,-1.541,-1.541,-1.541,-1.541,-1.541,-1.541,-1.541,-1.541,-1.541,-1.541,-1.541,-1.541,-1.541,-1.5225,-1.4552,-1.4952,-1.501,-1.374,-1.457,-1.541,-1.541,-1.541,-1.541,-1.541,-1.541,-1.541,-1.541,-1.541,-1.541,-1.541,-1.541,-1.3633,-0.9521,-1.1947,-1.3551,-1.3551,-1.4121,-1.4436,-1.4436,-1.3701,-1.3248,-1.3037,-1.3037,-1.3013,-1.2905,-1.2905,-1.2905,-0.6095,-0.6459,-0.6702,-0.6889,-0.7365,-0.7871,-0.8233,-0.8693,-0.923,-0.9975,-1.0354,-1.0573,-1.0586,-1.0593,-1.0593,-1.0593,-1.0593,-1.0593,-1.0593,-1.0593,-1.0624,-1.0649,-1.1351,-1.1834,-1.1865,-1.2543,-1.3009,-1.307,-1.3765,-1.4213,-1.4273,-1.4991,-1.541,-1.541,-1.541,-1.541,-1.541,-1.4599,-1.3786,-1.2978,-1.2235,-1.1857,-1.1834,-1.1076,-1.0713,-1.0776,-1.1531,-1.2297,-1.2887,-1.1358,-1.1632,-1.2917,-1.2174,-1.2358,-1.307,-1.307,-1.31,-1.313,-1.313,-1.3606,-1.4273,-1.4273,-1.4776,-1.541,-1.541,-1.541,-1.541,-1.541,-1.541,-1.541,-1.541,-1.541,-1.541,-1.541,-1.541,-1.541,-1.541,-1.541,-1.54,-1.5352,-1.5381,-1.5381,-1.5264,-1.5352,-1.541,-1.541,-1.541,-1.541,-1.541,-1.541,-1.541,-1.541,-1.541,-1.541,-1.541,-1.541,-1.401,-1.0718,-1.3506,-1.5283,-1.5283,-1.5322,-1.5313,-1.5313,-1.4793,-1.4177,-1.3477,-1.3477,-1.3271,-1.2905,-1.2905,-1.2905,-0.5589,-0.5644,-0.5726,-0.6586,-0.7122,-0.7513,-0.7818,-0.8094,-0.8329,-0.8414,-0.8521,-0.8822,-0.9451,-1.0139,-1.0593,-1.0593,-1.0593,-1.0593,-1.0593,-1.0593,-1.0593,-1.0593,-1.0863,-1.1021,-1.1021,-1.1296,-1.1663,-1.2205,-1.2504,-1.3114,-1.4145,-1.4481,-1.4874,-1.5381,-1.541,-1.4903,-1.3885,-1.3575,-1.2765,-1.1452,-1.117,-1.1021,-1.1014,-1.0744,-1.0593,-1.0624,-1.0895,-1.1202,-1.1421,-1.0839,-1.0926,-1.1421,-1.1139,-1.1531,-1.2235,-1.2235,-1.2573,-1.3009,-1.3009,-1.3191,-1.3433,-1.3433,-1.3965,-1.454,-1.4025,-1.4569,-1.5264,-1.4569,-1.4874,-1.541,-1.541,-1.541,-1.541,-1.541,-1.541,-1.541,-1.541,-1.541,-1.541,-1.541,-1.541,-1.541,-1.541,-1.541,-1.541,-1.541,-1.541,-1.541,-1.541,-1.541,-1.541,-1.541,-1.541,-1.541,-1.541,-1.541,-1.4894,-1.3747,-1.4746,-1.541,-1.541,-1.541,-1.541,-1.541,-1.5215,-1.4707,-1.389,-1.389,-1.3665,-1.3281,-1.3281,-1.3135,-0.5138,-0.5083,-0.5118,-0.5711,-0.6063,-0.6427,-0.712,-0.7176,-0.7207,-0.7654,-0.7605,-0.7818,-0.8826,-0.9581,-1.0184,-1.0541,-1.0593,-1.0593,-1.0593,-1.0593,-1.0593,-1.0593,-1.0593,-1.0593,-1.0593,-1.0593,-1.0839,-1.1351,-1.1648,-1.2258,-1.3326,-1.3906,-1.4569,-1.5381,-1.541,-1.4746,-1.3425,-1.3394,-1.2726,-1.1389,-1.1139,-1.0982,-1.0982,-1.0713,-1.0593,-1.0593,-1.0593,-1.0593,-1.0593,-1.0593,-1.0593,-1.0593,-1.0593,-1.0926,-1.1406,-1.1406,-1.1748,-1.2182,-1.2182,-1.2366,-1.2604,-1.2604,-1.3152,-1.3696,-1.3161,-1.3876,-1.4717,-1.3995,-1.4569,-1.541,-1.541,-1.541,-1.541,-1.541,-1.541,-1.541,-1.541,-1.541,-1.541,-1.541,-1.541,-1.541,-1.541,-1.541,-1.541,-1.541,-1.541,-1.541,-1.541,-1.541,-1.541,-1.541,-1.541,-1.541,-1.541,-1.541,-1.541,-1.541,-1.541,-1.541,-1.541,-1.541,-1.541,-1.541,-1.541,-1.5137,-1.4533,-1.4397,-1.4104,-1.3695,-1.3695,-1.3496,0.0,0.0,0.0,-0.4189,-0.411,-0.4585,-0.6027,-0.5889,-0.5987,-0.7727,-0.7741,-0.7738,-0.8737,-0.8955,-0.9328,-1.0368,-1.0586,-1.0593,-1.0593,-1.0593,-1.0593,-1.0593,-1.0593,-1.0593,-1.0593,-1.0593,-1.0593,-1.0593,-1.132,-1.1764,-1.1803,-1.3326,-1.4569,-1.5352,-1.5352,-1.4991,-1.4213,-1.4145,-1.3726,-1.2948,-1.2143,-1.1772,-1.1741,-1.0958,-1.0593,-1.0593,-1.06,-1.06,-1.0593,-1.0593,-1.0593,-1.0593,-1.0593,-1.0593,-1.0593,-1.0593,-1.0593,-1.0593,-1.0593,-1.1108,-1.1772,-1.1772,-1.2297,-1.2948,-1.2948,-1.3342,-1.3765,-1.3726,-1.4451,-1.5294,-1.5381,-1.541,-1.541,-1.541,-1.541,-1.541,-1.541,-1.541,-1.541,-1.541,-1.541,-1.541,-1.541,-1.541,-1.541,-1.541,-1.541,-1.541,-1.541,-1.541,-1.541,-1.541,-1.541,-1.541,-1.541,-1.541,-1.541,-1.541,-1.541,-1.541,-1.541,-1.541,-1.541,-1.541,-1.541,-1.541,-1.541,-1.5,-1.458,-1.4124,-1.4104,-1.388,-0.4634,0.0,0.0,0.0,0.0,0.0,-0.4844,-0.5003,-0.5118,-0.5277,-0.5709,-0.6205,-0.6721,-0.7947,-0.8978,-0.9371,-1.0101,-1.0593,-1.0593,-1.0593,-1.0593,-1.0593,-1.0593,-1.0593,-1.0593,-1.0593,-1.0593,-1.0593,-1.0807,-1.1202,-1.1772,-1.3326,-1.4302,-1.451,-1.454,-1.4421,-1.4213,-1.3053,-1.2351,-1.2112,-1.132,-1.0926,-1.0926,-1.0713,-1.0593,-1.06,-1.0814,-1.0787,-1.0593,-1.0593,-1.0593,-1.0593,-1.0593,-1.0593,-1.0593,-1.0593,-1.0593,-1.0593,-1.0593,-1.0744,-1.0926,-1.0926,-1.1469,-1.202,-1.1452,-1.2182,-1.2978,-1.181,-1.1686,-1.2443,-1.4805,-1.541,-1.541,-1.541,-1.541,-1.541,-1.541,-1.541,-1.541,-1.541,-1.541,-1.541,-1.541,-1.541,-1.541,-1.541,-1.541,-1.541,-1.541,-1.541,-1.541,-1.541,-1.541,-1.541,-1.541,-1.541,-1.541,-1.541,-1.541,-1.541,-1.541,-1.541,-1.541,-1.541,-1.541,-1.541,-1.541,-1.5293,-1.5019,-1.459,-1.3965,-1.3753,-0.4889,-0.4525,-0.4217,-0.4225,0.0,0.0,-0.4444,-0.4376,-0.4294,-0.4522,-0.4786,-0.5248,-0.617,-0.7044,-0.8031,-0.9266,-0.9723,-1.0095,-1.0541,-1.0593,-1.0593,-1.0593,-1.0593,-1.0593,-1.0593,-1.0593,-1.0593,-1.0593,-1.0593,-1.0958,-1.1772,-1.2679,-1.3356,-1.3696,-1.3696,-1.3696,-1.3696,-1.2787,-1.2297,-1.2297,-1.1507,-1.1108,-1.1076,-1.0744,-1.0593,-1.06,-1.0774,-1.0747,-1.0593,-1.0593,-1.0593,-1.0593,-1.0593,-1.0593,-1.0593,-1.0593,-1.0593,-1.0593,-1.0593,-1.0593,-1.0593,-1.0593,-1.0926,-1.1257,-1.1139,-1.1841,-1.2565,-1.2058,-1.2266,-1.287,-1.4085,-1.4903,-1.541,-1.541,-1.541,-1.541,-1.541,-1.541,-1.541,-1.541,-1.541,-1.541,-1.541,-1.541,-1.541,-1.541,-1.541,-1.541,-1.541,-1.541,-1.541,-1.541,-1.541,-1.541,-1.541,-1.541,-1.541,-1.541,-1.541,-1.541,-1.541,-1.541,-1.541,-1.541,-1.541,-1.541,-1.541,-1.541,-1.5283,-1.5029,-1.4355,-1.417,-0.5328,-0.5263,-0.5173,-0.4209,-0.3868,0.0,-0.4463,-0.3921,-0.3609,-0.4794,-0.4605,-0.4712,-0.6339,-0.637,-0.6953,-0.9407,-0.9392,-0.9432,-1.0451,-1.0593,-1.0593,-1.0593,-1.0593,-1.0593,-1.0593,-1.0593,-1.0593,-1.0593,-1.0593,-1.0926,-1.1624,-1.1741,-1.2143,-1.2848,-1.2856,-1.2917,-1.3009,-1.2826,-1.2795,-1.2856,-1.205,-1.1679,-1.1648,-1.0926,-1.0593,-1.0593,-1.066,-1.0673,-1.064,-1.0673,-1.0646,-1.0593,-1.0593,-1.0593,-1.0593,-1.0593,-1.0593,-1.0593,-1.0593,-1.0593,-1.0593,-1.0593,-1.0649,-1.0863,-1.1617,-1.2104,-1.2588,-1.3696,-1.4658,-1.5079,-1.3636,-1.4332,-1.541,-1.541,-1.541,-1.541,-1.541,-1.541,-1.541,-1.541,-1.541,-1.541,-1.541,-1.541,-1.541,-1.541,-1.541,-1.541,-1.541,-1.541,-1.541,-1.541,-1.541,-1.541,-1.541,-1.541,-1.541,-1.541,-1.541,-1.541,-1.541,-1.541,-1.541,-1.541,-1.541,-1.541,-1.541,-1.541,-1.541,-1.54,-1.498,-1.4805,-0.5497,-0.5027,-0.4617,-0.3989,-0.3664,0.0,-0.3893,-0.3542,-0.3441,-0.4484,-0.444,-0.4485,-0.5414,-0.6401,-0.7215,-0.7745,-0.8823,-0.9804,-1.0488,-1.0593,-1.0593,-1.0593,-1.0593,-1.0593,-1.0593,-1.0593,-1.0593,-1.0593,-1.0593,-1.0688,-1.0839,-1.1437,-1.1865,-1.2012,-1.2012,-1.2358,-1.2978,-1.1725,-1.1382,-1.202,-1.1233,-1.0832,-1.0839,-1.0681,-1.0593,-1.062,-1.1056,-1.1122,-1.0929,-1.1156,-1.0982,-1.0593,-1.0593,-1.0593,-1.0593,-1.0593,-1.0593,-1.0593,-1.0593,-1.0593,-1.0593,-1.0593,-1.1045,-1.1648,-1.2012,-1.2749,-1.3726,-1.4776,-1.5235,-1.5323,-1.5021,-1.5167,-1.541,-1.541,-1.541,-1.541,-1.541,-1.541,-1.541,-1.541,-1.541,-1.541,-1.541,-1.541,-1.541,-1.541,-1.541,-1.541,-1.541,-1.541,-1.541,-1.541,-1.541,-1.541,-1.541,-1.541,-1.541,-1.541,-1.541,-1.541,-1.541,-1.541,-1.541,-1.541,-1.541,-1.541,-1.541,-1.541,-1.541,-1.54,-1.498,-1.4971,-0.5709,-0.5231,-0.4807,-0.4246,-0.3942,0.0,0.0,-0.3767,-0.3778,-0.4919,-0.4747,-0.4721,-0.576,-0.6146,-0.6514,-0.7201,-0.8098,-0.8877,-0.9324,-1.0089,-1.0593,-1.0593,-1.0593,-1.0593,-1.0593,-1.0593,-1.0593,-1.0593,-1.0982,-1.1014,-1.0624,-1.1351,-1.1617,-1.1195,-1.1195,-1.1382,-1.1787,-1.0989,-1.0807,-1.1195,-1.08,-1.0593,-1.0593,-1.0593,-1.0593,-1.0606,-1.0868,-1.0909,-1.0821,-1.0935,-1.0854,-1.0593,-1.0593,-1.0593,-1.0593,-1.0593,-1.0593,-1.0593,-1.0593,-1.0593,-1.0593,-1.0593,-1.0863,-1.1382,-1.232,-1.3537,-1.4717,-1.5264,-1.541,-1.541,-1.541,-1.541,-1.541,-1.541,-1.541,-1.541,-1.541,-1.541,-1.541,-1.541,-1.4106,-1.3537,-1.5108,-1.541,-1.541,-1.541,-1.541,-1.541,-1.541,-1.541,-1.541,-1.541,-1.541,-1.541,-1.541,-1.3927,-1.3687,-1.5294,-1.541,-1.541,-1.541,-1.541,-1.541,-1.541,-1.541,-1.541,-1.541,-1.541,-1.541,-1.541,-1.5195,-1.5215,-0.593,-0.5497,-0.5092,-0.4586,-0.4301,-0.4213,0.0,0.0,0.0,-0.5397,-0.5114,-0.5045,-0.6363,-0.5952,-0.582,-0.7036,-0.7572,-0.7919,-0.8115,-0.9395,-1.0338,-1.0338,-1.0439,-1.0506,-1.0506,-1.0459,-1.0528,-1.0793,-1.1329,-1.1399,-1.0856,-1.1437,-1.1437,-1.0624,-1.0593,-1.0593,-1.0593,-1.0593,-1.0593,-1.0593,-1.0593,-1.0593,-1.0593,-1.0593,-1.0593,-1.0593,-1.0646,-1.0673,-1.0673,-1.0673,-1.0673,-1.0673,-1.0613,-1.0593,-1.0593,-1.0593,-1.0593,-1.0593,-1.0593,-1.0593,-1.0593,-1.0593,-1.0713,-1.1108,-1.2551,-1.3914,-1.4932,-1.4932,-1.4932,-1.5021,-1.5323,-1.541,-1.541,-1.541,-1.541,-1.5225,-1.4619,-1.4471,-1.4471,-1.4471,-1.2389,-1.1445,-1.4016,-1.4471,-1.4688,-1.5323,-1.541,-1.541,-1.541,-1.4864,-1.4471,-1.4471,-1.4471,-1.4471,-1.4471,-1.2081,-1.1958,-1.5196,-1.541,-1.541,-1.541,-1.541,-1.541,-1.541,-1.541,-1.541,-1.541,-1.541,-1.541,-1.541,-1.541,-1.541,-0.62,-0.5476,-0.4899,-0.4707,-0.4352,-0.4171,-0.4726,0.0,-0.4527,-0.52,0.0,-0.5225,-0.6388,0.0,0.0,-0.6901,-0.7758,-0.8237,-0.7964,-0.8752,-0.9364,-0.9364,-0.9824,-1.0167,-1.0167,-0.9933,-1.0315,-1.158,-1.1256,-1.1188,-1.1649,-1.1741,-1.1437,-1.0624,-1.0593,-1.0593,-1.0593,-1.0593,-1.0593,-1.0593,-1.0593,-1.0593,-1.0593,-1.0593,-1.0593,-1.0606,-1.0861,-1.0942,-1.0942,-1.0942,-1.0942,-1.0915,-1.0693,-1.0593,-1.0593,-1.0593,-1.0593,-1.0593,-1.0593,-1.0593,-1.0593,-1.0593,-1.1076,-1.1834,-1.2734,-1.313,-1.3274,-1.3274,-1.3274,-1.3606,-1.5021,-1.541,-1.541,-1.541,-1.541,-1.4619,-1.1748,-1.1139,-1.1139,-1.1139,-1.0839,-1.0713,-1.1076,-1.1139,-1.2112,-1.4962,-1.541,-1.541,-1.541,-1.2901,-1.1139,-1.1139,-1.1139,-1.1139,-1.1139,-1.0807,-1.1958,-1.5196,-1.541,-1.541,-1.541,-1.541,-1.541,-1.541,-1.541,-1.541,-1.541,-1.541,-1.541,-1.541,-1.541,-1.541,-0.6775,-0.6169,-0.5537,-0.5044,-0.4738,-0.4561,-0.4741,-0.474,-0.4838,-0.5418,0.0,0.0,0.0,0.0,0.0,0.0,-0.7234,-0.7679,-0.7108,-0.7861,-0.8645,-0.9151,-0.9431,-0.971,-1.0087,-1.0134,-1.0508,-1.133,-1.1799,-1.2085,-1.2164,-1.2825,-1.2596,-1.1351,-1.1288,-1.1076,-1.0593,-1.0593,-1.0593,-1.0593,-1.0593,-1.0593,-1.0593,-1.0593,-1.0593,-1.06,-1.072,-1.0774,-1.0774,-1.0774,-1.0774,-1.076,-1.064,-1.0593,-1.0593,-1.0593,-1.0593,-1.0593,-1.0593,-1.0593,-1.0593,-1.0593,-1.1139,-1.1857,-1.2205,-1.2634,-1.3009,-1.3009,-1.3221,-1.3554,-1.3906,-1.4688,-1.541,-1.541,-1.541,-1.5021,-1.3687,-1.1934,-1.0593,-1.0593,-1.0593,-1.0593,-1.0593,-1.0593,-1.1052,-1.2412,-1.2626,-1.2626,-1.2626,-1.1445,-1.0593,-1.0593,-1.0593,-1.0593,-1.0593,-1.0593,-1.117,-1.2535,-1.3476,-1.3876,-1.3558,-1.3837,-1.4243,-1.4688,-1.4688,-1.4932,-1.541,-1.541,-1.541,-1.541,-1.541,-1.541,-0.7312,-0.6806,-0.6196,-0.5677,-0.539,-0.5134,-0.4915,-0.4977,-0.5124,-0.5384,-0.5432,0.0,0.0,0.0,-0.6031,-0.6098,0.0,-0.737,-0.6661,-0.7282,-0.8045,-0.8771,-0.9228,-0.9714,-1.0208,-1.0357,-1.0738,-1.1536,-1.2136,-1.2563,-1.2729,-1.3341,-1.3134,-1.1826,-1.1593,-1.1195,-1.0624,-1.0593,-1.0593,-1.0593,-1.0593,-1.0593,-1.0593,-1.0593,-1.0593,-1.0593,-1.0593,-1.064,-1.0713,-1.0713,-1.0713,-1.0713,-1.0713,-1.066,-1.0593,-1.0593,-1.0593,-1.0593,-1.0593,-1.0593,-1.0593,-1.0593,-1.0982,-1.1469,-1.1469,-1.1872,-1.2336,-1.2336,-1.2604,-1.2818,-1.2428,-1.3205,-1.4076,-1.4076,-1.4076,-1.4076,-1.4076,-1.2266,-1.0593,-1.0593,-1.0593,-1.0593,-1.0593,-1.0593,-1.0593,-1.0593,-1.0593,-1.0593,-1.0593,-1.0593,-1.0593,-1.0593,-1.0593,-1.0593,-1.0593,-1.0593,-1.0593,-1.0593,-1.1694,-1.2297,-1.2189,-1.2726,-1.3364,-1.4183,-1.4213,-1.4599,-1.541,-1.541,-1.541,-1.541,-1.541,-1.541,-0.7673,-0.7133,-0.6617,-0.6711,-0.6347,-0.5854,-0.5392,-0.5385,-0.5328,-0.4834,-0.5296,-0.578,-0.5819,-0.6344,-0.6695,-0.6435,-0.7239,0.0,0.0,-0.7295,-0.7625,-0.7912,-0.9327,-1.0359,-1.0664,-1.0402,-1.0931,-1.2715,-1.1984,-1.2077,-1.3489,-1.2867,-1.226,-1.1819,-1.1045,-1.0624,-1.0593,-1.0593,-1.0593,-1.0593,-1.0593,-1.0593,-1.0593,-1.0593,-1.0593,-1.0593,-1.0593,-1.0754,-1.0982,-1.0982,-1.0982,-1.0982,-1.0982,-1.0841,-1.0593,-1.0593,-1.0593,-1.0593,-1.0593,-1.0593,-1.0593,-1.0593,-1.0624,-1.0656,-1.0656,-1.0649,-1.0681,-1.0681,-1.0688,-1.0713,-1.0681,-1.0719,-1.0744,-1.0744,-1.0744,-1.0744,-1.0744,-1.0688,-1.0593,-1.0593,-1.0593,-1.0593,-1.0593,-1.0593,-1.0593,-1.0593,-1.0593,-1.0593,-1.0593,-1.0593,-1.0593,-1.0593,-1.0593,-1.0593,-1.0593,-1.0593,-1.0593,-1.0593,-1.0656,-1.1139,-1.2158,-1.2726,-1.3364,-1.4183,-1.4213,-1.4599,-1.541,-1.541,-1.541,-1.541,-1.541,-1.541,0.0,0.0,-0.7931,-0.7409,0.0,-0.6521,-0.575,-0.6073,-0.6202,-0.4953,-0.5881,-0.6566,-0.5412,-0.6188,-0.6931,-0.6695,-0.7207,-0.7571,0.0,-0.7424,-0.7531,-0.7631,-0.863,-0.9403,-0.9688,-1.0167,-1.0889,-1.1962,-1.2525,-1.3122,-1.389,-1.3697,-1.3267,-1.2634,-1.181,-1.1139,-1.0624,-1.0593,-1.0593,-1.0593,-1.0593,-1.0593,-1.0593,-1.0593,-1.0593,-1.06,-1.0794,-1.0935,-1.0995,-1.0995,-1.0995,-1.0975,-1.0814,-1.068,-1.0593,-1.0593,-1.0593,-1.0593,-1.0593,-1.0593,-1.0593,-1.0593,-1.0593,-1.0593,-1.0593,-1.0593,-1.0593,-1.0593,-1.0593,-1.0593,-1.0593,-1.0593,-1.0593,-1.0593,-1.0593,-1.0593,-1.0593,-1.0593,-1.0593,-1.0593,-1.0593,-1.0593,-1.0593,-1.0593,-1.0593,-1.0593,-1.0593,-1.0593,-1.0593,-1.0593,-1.0593,-1.0593,-1.0593,-1.0593,-1.0593,-1.0593,-1.0593,-1.0593,-1.0593,-1.0776,-1.1139,-1.1327,-1.1779,-1.2596,-1.3122,-1.3786,-1.4599,-1.5138,-1.541,-1.541,-1.541,-1.541,-0.8804,-0.8804,0.0,-0.7999,-0.776,0.0,-0.6437,0.0,-0.6947,0.0,0.0,0.0,-0.5998,-0.6558,-0.7132,-0.6998,-0.7275,-0.745,0.0,-0.7424,-0.745,-0.7343,-0.8314,-0.9068,-0.9259,-0.981,-1.0473,-1.1265,-1.183,-1.2496,-1.3276,-1.3168,-1.2978,-1.2718,-1.1839,-1.1213,-1.0901,-1.0801,-1.0747,-1.0747,-1.0747,-1.0693,-1.0593,-1.0593,-1.0593,-1.06,-1.0787,-1.0955,-1.1136,-1.1035,-1.1056,-1.1122,-1.0861,-1.068,-1.0593,-1.0593,-1.0593,-1.0593,-1.0593,-1.0593,-1.0593,-1.0593,-1.0593,-1.0593,-1.0593,-1.0593,-1.0593,-1.0593,-1.0593,-1.0593,-1.0593,-1.0593,-1.0593,-1.0593,-1.0593,-1.0593,-1.0593,-1.0593,-1.0593,-1.0593,-1.0593,-1.0593,-1.0593,-1.076,-1.0827,-1.0626,-1.0593,-1.0593,-1.0593,-1.0593,-1.0593,-1.0593,-1.0593,-1.0593,-1.0593,-1.0593,-1.0593,-1.0593,-1.0593,-1.0593,-1.0593,-1.0593,-1.1108,-1.2205,-1.2726,-1.3545,-1.4628,-1.5147,-1.541,-1.541,-1.541,-1.541]},{"header":{"parameterUnit":"m.s-1","parameterCategory":1,"la1":30.6,"la2":29.2853,"lo1":-89.7004,"lo2":-87.6739,"dy":0.0162,"dx":0.0183,"nx":112,"ny":82,"refTime":"2026-05-10T00:00:00:Z","depth":0,"parameterNumber":3,"parameterNumberName":"V-component_of_WINDS"},"data":[0.0,0.0,0.0,0.0,0.0,0.0,0.0,0.0,0.0,0.0,0.0,0.0,0.0,0.0,0.0,0.0,0.0,0.0,0.0,0.0,0.0,0.0,0.0,0.0,0.0,0.0,0.0,0.0,0.0,0.0,0.0,0.0,0.0,0.0,0.0,0.0,0.0,0.0,0.0,0.0,0.0,0.0,0.0,0.0,0.0,0.0,0.0,0.0,0.0,0.0,0.0,0.0,0.0,0.0,0.0,0.0,0.0,0.0,0.0,0.0,0.0,0.0,0.0,0.0,0.0,0.0,0.0,0.0,0.0,0.0,0.0,0.0,0.0,0.0,0.0,0.0,0.0,0.0,0.0,0.0,0.0,0.0,0.0,0.0,0.0,0.0,0.0,0.0,0.0,0.0,0.2275,0.348,0.36,0.3365,0.276,0.2671,0.228,0.1369,0.0,0.0,0.0,0.0,0.0,0.0,0.0,0.0,0.0,0.0,0.0,0.0,0.0,0.0,0.0,0.0,0.0,0.0,0.0,0.0,0.0,0.0,0.0,0.0,0.0,0.0,0.0,0.0,0.0,0.0,0.0,0.0,0.0,0.0,0.0,0.0,0.0,0.0,0.0,0.0,0.0,0.0,0.0,0.0,0.0,0.0,0.0,0.0,0.0,0.0,0.0,0.0,0.0,0.0,0.0,0.0,0.0,0.0,0.0,0.0,0.0,0.0,0.0,0.0,0.0,0.0,0.0,0.0,0.0,0.0,0.0,0.0,0.0,0.0,0.0,0.0,0.0,0.0,0.0,0.0,0.0,0.0,0.0,0.0,0.0,0.0,0.0,0.0,0.0,0.0,0.0,0.0,0.0,0.0,0.0,0.0,0.0,0.0,0.0,0.0,0.0,0.0,0.0,0.0,0.2275,0.346,0.3613,0.336,0.2757,0.316,0.2823,0.1394,0.0,0.0,0.0,0.0,0.0,0.0,0.0,0.0,0.0,0.0,0.0,0.0,0.0,0.0,0.0,0.0,0.0,0.0,0.0,0.0,0.0,0.0,0.0,0.0,0.0,0.0,0.0,0.0,0.0,0.0,0.0,0.0,0.0,0.0,0.0,0.0,0.0,0.0,0.0,0.0,0.0,0.0,0.0,0.0,0.0,0.0,0.0,0.0,0.0,0.0,0.0,0.0,0.0,0.0,0.0,0.0,0.0,0.0,0.0,0.0,0.0,0.0,0.0,0.0,0.0,0.0,0.0,0.0,0.0,0.0,0.0,0.0,0.0,0.0,0.0,0.0,0.0,0.0,0.0,0.0,0.0,0.0,0.0,0.0,0.0,0.0,0.0,0.0,0.0,0.0,0.0,0.0,0.0,0.0,0.0,0.0,0.0,0.0,0.0,0.0,0.0,0.0,0.0,0.2374,0.3107,0.4431,0.4569,0.4406,0.4038,0.4253,0.3961,0.2928,0.1778,0.0,0.0,0.0,0.0,0.0,0.0,0.0,0.0,0.0,0.0,0.0,0.0,0.0,0.0,0.0,0.0,0.0,0.0,0.0,0.0,0.0,0.0,0.0,0.0,0.0,0.0,0.0,0.0,0.0,0.0,0.0,0.0,0.0,0.0,0.0,0.0,0.0,0.0,0.0,0.0,0.0,0.0,0.0,0.0,0.0,0.0,0.0,0.0,0.0,0.0,0.0,0.0,0.0,0.0,0.0,0.0,0.0,0.0,0.0,0.0,0.0,0.0,0.0,0.0,0.0,0.0,0.0,0.0,0.0,0.0,0.0,0.0,0.0,0.0,0.0,0.0,0.0,0.0,0.0,0.0,0.0,0.0,0.0,0.0,0.0,0.0,0.0,0.0,0.0,0.0,0.0,0.0,0.0,0.0,0.0,0.0,0.0,0.0,0.0,0.0,0.0,0.0,0.3109,0.3935,0.5272,0.5361,0.5257,0.511,0.5059,0.4716,0.3985,0.2619,0.0,0.0,0.0,0.0,0.0,0.0,0.0,0.0,0.0,0.0,0.0,0.0,0.0,0.0,0.0,0.0,0.0,0.0,0.0,0.0,0.0,0.0,0.0,0.0,0.0,0.0,0.0,0.0,0.0,0.0,0.0,0.0,0.0,0.0,0.0,0.0,0.0,0.0,0.0,0.0,0.0,0.0,0.0,0.0,0.0,0.0,0.0,0.0,0.0,0.0,0.0,0.0,0.0,0.0,0.0,0.0,0.0,0.0,0.0,0.0,0.0,0.0,0.0,0.0,0.0,0.0,0.0,0.0,0.0,0.0,0.0,0.0,0.0,0.0,0.0,0.0,0.0,0.0,0.0,0.0,0.0,0.0,0.0,0.0,0.0,0.0,0.0,0.0,0.0,0.0,0.0,0.0,0.0,0.0,0.0,0.0,0.0,0.0,0.0,0.0,0.0,0.0,0.3316,0.4193,0.5295,0.5233,0.511,0.51,0.4941,0.4342,0.3245,0.3001,0.0,0.0,0.0,0.0,0.0,0.0,0.0,0.0,0.0,0.0,0.0,0.0,0.0,0.0,0.0,0.0,0.0,0.0,0.0,0.0,0.0,0.0,0.0,0.0,0.0,0.0,0.0,0.0,0.0,0.0,0.0,0.0,0.0,0.0,0.0,0.0,0.0,0.0,0.0,0.0,0.0,0.0,0.0,0.0,0.0,0.0,0.0,0.0,0.0,0.0,0.0,0.0,0.0,0.0,0.0,0.0,0.0,0.0,0.0,0.0,0.0,0.0,0.0,0.0,0.0,0.0,0.0,0.0,0.0,0.0,0.0,0.0,0.0,0.0,0.0,0.0,0.0,0.0,0.0,0.0,0.0,0.0,0.0,0.0,0.0,0.0,0.0,0.0,0.0,0.0,0.0,0.0,0.0,0.0,0.0,0.0,0.0,0.0,0.0,0.0,0.0,0.0,0.3445,0.4499,0.5655,0.5705,0.5803,0.6189,0.5665,0.4711,0.3313,0.0,0.0,0.0,0.0,0.0,0.0,0.0,0.0,0.0,0.0,0.0,0.0,0.0,0.0,0.0,0.0,0.0,0.0,0.0,0.0,0.0,0.0,0.0,0.0,0.0,0.0,0.0,0.0,0.0,0.0,0.0,0.0,0.0,0.0,0.0,0.0,0.0,0.0,0.0,0.0,0.0,0.0,0.0,0.0,0.0,0.0,0.0,0.0,0.0,0.0,0.0,0.0,0.0,0.0,0.0,0.0,0.0,0.0,0.0,0.0,0.0,0.0,0.0,0.0,0.0,0.0,0.0,0.0,0.0,0.0,0.0,0.0,0.0,0.0,0.0,0.0,0.0,0.0,0.0,0.0,0.0,0.0,0.0,0.0,0.0,0.0,0.0,0.0,0.0,0.0,0.0,0.0,0.0,0.0,0.0,0.0,0.0,0.0,0.0,0.0,0.0,0.0,0.2732,0.3875,0.5048,0.5917,0.5968,0.6204,0.6834,0.6343,0.5311,0.3752,0.0,0.0,0.0,0.0,0.0,0.0,0.0,0.0,0.0,0.0,0.0,0.0,0.0,0.0,0.0,0.0,0.0,0.0,0.0,0.0,0.0,0.0,0.0,0.0,0.0,0.0,0.0,0.0,0.0,0.0,0.0,0.0,0.0,0.0,0.0,0.0,0.0,0.0,0.0,0.0,0.0,0.0,0.0,0.0,0.0,0.0,0.0,0.0,0.0,0.0,0.0,0.0,0.0,0.0,0.0,0.0,0.0,0.0,0.0,0.0,0.0,0.0,0.0,0.0,0.0,0.0,0.0,0.0,0.0,0.0,0.0,0.0,0.0,0.0,0.0,0.0,0.0,0.0,0.0,0.0,0.0,0.0,0.0,0.0,0.0,0.0,0.0,0.0,0.0,0.0,0.0,0.0,0.0,0.0,0.0,0.0,0.0,0.0,0.0,0.0,0.0,0.0,0.321,0.4699,0.5868,0.5997,0.591,0.6107,0.6842,0.6845,0.6124,0.0,0.0,0.0,0.0,0.0,0.0,0.0,0.0,0.0,0.0,0.0,0.0,0.0,0.0,0.0,0.0,0.0,0.0,0.0,0.0,0.0,0.0,0.0,0.0,0.0,0.0,0.0,0.0,0.0,0.0,0.0,0.0,0.0,0.0,0.0,0.0,0.0,0.0,0.0,0.0,0.0,0.0,0.0,0.0,0.0,0.0,0.0,0.0,0.0,0.0,0.0,0.0,0.0,0.0,0.0,0.0,0.0,0.0,0.0,0.0,0.0,0.0,0.0,0.0,0.0,0.0,0.0,0.0,0.0,0.0,0.0,0.0,0.0,0.0,0.0,0.0,0.0,0.0,0.0,0.0,0.0,0.0,0.0,0.0,0.0,0.0,0.0,0.0,0.0,0.0,0.0,0.0,0.0,0.0,0.0,0.0,0.0,0.0,0.0,0.0,0.0,0.0,0.0,0.3777,0.5118,0.6367,0.7119,0.7159,0.7355,0.7896,0.7732,0.6961,0.5538,0.0,0.0,0.0,0.0,0.0,0.0,0.0,0.0,0.0,0.0,0.0,0.0,0.0,0.0,0.0,0.0,0.0,0.0,0.0,0.0,0.0,0.0,0.0,0.0,0.0,0.0,0.0,0.0,0.0,0.0,0.0,0.0,0.0,0.0,0.0,0.0,0.0,0.0,0.0,0.0,0.0,0.0,0.0,0.0,0.0,0.0,0.0,0.0,0.0,0.0,0.0,0.0,0.0,0.0,0.0,0.0,0.0,0.0,0.0,0.0,0.0,0.0,0.0,0.0,0.0,0.0,0.0,0.0,0.0,0.0,0.0,0.0,0.0,0.0,0.0,0.0,0.0,0.0,0.0,0.0,0.0,0.0,0.0,0.0,0.0,0.0,0.0,0.0,0.0,0.0,0.0,0.0,0.0,0.0,0.0,0.0,0.0,0.0,0.0,0.0,0.0,0.0,0.4285,0.5663,0.687,0.7474,0.7544,0.7729,0.8174,0.7923,0.7185,0.5909,0.0,0.0,0.0,0.0,0.0,0.0,0.0,0.0,0.0,0.0,0.0,0.0,0.0,0.0,0.0,0.0,0.0,0.0,0.0,0.0,0.0,0.0,0.0,0.0,0.0,0.0,0.0,0.0,0.0,0.0,0.0,0.0,0.0,0.0,0.0,0.0,0.0,0.0,0.0,0.0,0.0,0.0,0.0,0.0,0.0,0.0,0.0,0.0,0.0,0.0,0.0,0.0,0.0,0.0,0.0,0.0,0.0,0.0,0.0,0.0,0.0,0.0,0.0,0.0,0.0,0.0,0.0,0.0,0.0,0.0,0.0,0.0,0.0,0.0,0.0,0.0,0.0,0.0,0.0,0.0,0.0,0.0,0.0,0.0,0.0,0.0,0.0,0.0,0.0,0.0,0.0,0.0,0.0,0.0,0.0,0.0,0.0,0.0,0.0,0.0,0.0,0.0,0.4772,0.6252,0.7327,0.7357,0.7382,0.7505,0.7838,0.7674,0.7038,0.5895,0.0,0.0,0.0,0.0,0.0,0.0,0.0,0.0,0.0,0.0,0.0,0.0,0.0,0.0,0.0,0.0,0.0,0.0,0.0,0.0,0.0,0.0,0.0,0.0,0.0,0.0,0.0,0.0,0.0,0.0,0.0,0.0,0.0,0.0,0.0,0.0,0.0,0.0,0.0,0.0,0.0,0.0,0.0,0.0,0.0,0.0,0.0,0.0,0.0,0.0,0.0,0.0,0.0,0.0,0.0,0.0,0.0,0.0,0.0,0.0,0.8429,0.7501,0.0,0.0,0.0,0.0,0.0,0.0,0.0,0.0,0.0,0.0,0.0,0.0,0.0,0.0,0.0,0.0,0.0,0.0,0.0,0.0,0.0,0.0,0.0,0.0,0.0,0.0,0.0,0.0,0.0,0.0,0.0,0.0,0.0,0.0,0.0,0.0,0.0,0.0,0.0,0.0,0.5105,0.6499,0.7539,0.7756,0.7916,0.7923,0.7693,0.775,0.7503,0.676,0.645,0.0,0.0,0.0,0.0,0.0,0.0,0.0,0.0,0.0,0.0,0.0,0.0,0.0,0.0,0.0,0.0,0.0,0.0,0.0,0.0,0.0,0.0,0.0,0.0,0.0,0.0,0.0,0.0,0.0,0.0,0.0,0.0,0.0,0.0,0.0,0.0,0.0,0.0,0.0,0.0,0.0,0.0,0.0,0.0,0.0,0.0,0.0,0.0,0.0,0.0,0.0,0.0,0.0,0.0,0.0,0.0,0.0,0.0,0.0,1.0022,0.9057,0.0,0.0,0.0,0.0,0.0,0.0,0.0,0.0,0.0,0.0,0.0,0.0,0.0,0.0,0.0,0.0,0.0,0.0,0.0,0.0,0.0,0.0,0.0,0.0,0.0,0.0,0.0,0.0,0.0,0.0,0.0,0.0,0.0,0.0,0.0,0.0,0.0,0.0,0.0,0.0,0.5231,0.6582,0.7574,0.7742,0.7838,0.7748,0.735,0.741,0.7565,0.7805,0.7332,0.0,0.0,0.0,0.0,0.0,0.0,0.0,0.0,0.0,0.0,0.0,0.0,0.0,0.0,0.0,0.0,0.0,0.0,0.0,0.0,0.0,0.0,0.0,0.0,0.0,0.0,0.0,0.0,0.0,0.0,0.0,0.0,0.0,0.0,0.0,0.0,0.0,0.0,0.0,0.0,0.0,0.0,0.0,0.0,0.0,0.0,0.0,0.0,0.0,0.0,0.0,0.0,0.0,1.4104,1.4085,1.4016,1.3389,1.3281,1.3435,1.1414,1.0711,1.0927,1.0062,0.0,0.0,0.0,0.0,0.0,0.0,0.0,0.0,0.0,0.0,0.0,0.0,0.0,0.0,0.0,0.0,0.0,0.0,0.0,0.0,0.0,0.0,0.8585,0.981,1.0656,1.0488,0.7891,0.0,0.0,0.0,0.0,0.0,0.0,0.0,0.0,0.0,0.0,0.0,0.5387,0.6613,0.7483,0.7667,0.7565,0.7363,0.7037,0.7355,0.7854,0.8496,0.7952,0.7447,0.0,0.0,0.0,0.0,0.0,0.0,0.0,0.0,0.0,0.0,0.0,0.0,0.0,0.0,0.0,0.0,0.0,0.0,0.0,0.0,0.0,0.0,0.0,0.0,0.0,0.0,0.0,0.0,0.0,0.0,0.0,0.0,1.1065,1.3751,0.0,0.0,0.0,0.0,0.0,0.0,0.0,0.0,0.0,0.0,0.0,0.0,0.0,1.021,1.2861,1.3578,1.3997,1.4104,1.4104,1.3987,1.3763,1.388,1.3613,1.3057,1.4148,0.0,1.1882,1.2245,0.0,0.0,0.0,0.0,0.0,0.0,0.0,0.0,0.0,0.0,0.0,0.0,0.0,0.0,0.0,0.0,0.0,0.0,0.0,0.0,0.0,0.0,1.0609,1.2101,1.1976,1.1222,1.006,0.9073,0.8223,0.7718,0.6568,0.551,0.0,0.0,0.0,0.0,0.0,0.0,0.6082,0.67,0.7321,0.796,0.7468,0.7058,0.701,0.8756,0.9294,0.7912,0.8223,0.8196,0.7622,0.714,0.0,0.0,0.0,0.0,0.0,0.0,0.0,0.0,0.0,0.0,0.0,0.0,0.0,0.0,0.0,0.0,0.0,0.0,0.0,0.0,0.0,0.0,0.0,0.0,0.0,0.0,0.0,0.0,0.0,1.0044,1.1279,1.2904,1.1432,1.0128,0.0,0.0,0.0,0.0,0.0,0.0,0.0,0.0,0.0,1.0652,1.1051,1.2073,1.3835,1.4189,1.4414,1.4502,1.4414,1.4482,1.465,1.4767,1.428,1.3437,1.4814,1.4816,1.3867,1.3164,1.2634,1.2193,0.0,0.0,0.0,0.0,0.9714,0.996,1.0474,1.0596,1.0393,0.9781,0.0,0.0,0.0,0.0,0.0,0.0,0.0,0.6416,0.8103,1.0206,1.2055,1.2736,1.2358,1.1672,1.1154,1.0428,0.9637,0.8728,0.8038,0.7295,0.6313,0.5891,0.0,0.0,0.0,0.6625,0.6981,0.7574,0.7985,0.8093,0.7801,0.7965,0.8777,0.9748,0.9553,0.7818,0.7954,0.7982,0.7715,0.7535,0.6953,0.0,0.0,0.0,0.0,0.0,0.0,0.0,0.0,0.0,0.0,0.0,0.0,0.0,0.0,0.0,0.0,0.0,0.0,0.0,0.0,0.0,0.0,0.0,0.0,0.0,0.0,0.0,0.0,1.0592,1.1498,1.202,1.1991,1.1871,0.0,0.0,0.0,0.0,0.0,0.0,1.094,1.1691,1.2336,1.2882,1.3099,1.3711,1.4793,1.4803,1.4862,1.4941,1.4862,1.5,1.541,1.541,1.4923,1.4182,1.502,1.5555,1.5677,1.4149,1.3654,1.3712,1.287,1.2815,1.3062,1.1768,1.155,1.1964,1.2663,1.2492,1.2033,1.2703,1.2907,1.2904,1.2902,0.0,0.0,0.0,0.0,0.7002,0.9255,1.1356,1.2906,1.2906,1.247,1.1995,1.1797,1.1299,1.0596,0.9541,0.9238,0.8785,0.7632,0.7349,0.0,0.6276,0.6989,0.7691,0.7927,0.8388,0.8687,0.8674,0.8351,0.8728,1.0176,1.0092,0.9323,0.7796,0.7851,0.7859,0.7715,0.7695,0.742,0.6815,0.0,0.0,0.0,0.0,0.0,0.0,0.0,0.0,0.0,0.0,0.0,0.0,0.0,0.0,0.0,0.0,0.0,0.0,0.0,0.0,0.0,0.0,0.0,0.0,0.0,0.0,0.0,0.0,0.0,1.3055,1.3886,0.0,0.0,0.0,0.0,1.2436,1.22,1.2272,1.2736,1.3173,1.3243,1.2921,1.363,1.4465,1.5361,1.5371,1.5371,1.5381,1.5371,1.5381,1.541,1.541,1.5381,1.5332,1.5391,1.594,1.6743,1.5706,1.4785,1.41,1.4439,1.457,1.4542,1.4163,1.352,1.2848,1.2878,1.2876,1.2842,1.288,1.2891,1.2891,1.2903,1.1455,0.0,0.0,1.018,1.0009,1.1482,1.2386,1.29,1.29,1.2539,1.2203,1.2174,1.1492,1.0771,1.0332,0.9883,0.9435,0.8968,0.0,0.8191,0.7747,0.795,0.8351,0.8856,0.8798,0.9073,1.0083,0.9059,0.8844,1.0187,0.9548,0.8685,0.7757,0.8239,0.8306,0.7715,0.7695,0.7501,0.7096,0.7053,0.0,0.0,0.0,0.0,0.0,0.0,0.0,0.0,0.0,0.0,0.0,0.0,0.0,0.0,0.0,0.0,0.0,0.0,0.0,0.0,0.0,0.0,0.0,0.0,0.0,0.0,0.0,0.0,1.5161,1.5277,0.0,1.541,1.5067,1.4682,1.4332,1.4194,1.4099,1.3994,1.4216,1.4382,1.4506,1.4781,1.5079,1.541,1.541,1.541,1.541,1.541,1.541,1.541,1.541,1.541,1.541,1.541,1.5721,1.6236,1.6131,1.6271,1.6528,1.6416,1.6312,1.615,1.5332,1.4446,1.3593,1.308,1.2905,1.2905,1.2905,1.2892,1.2906,1.2906,1.2423,1.1905,1.2132,1.2006,1.1948,1.244,1.273,1.2812,1.2529,1.2119,1.1719,1.1436,1.0918,1.0479,1.0332,1.0156,0.9904,0.9457,0.9515,0.9468,0.903,0.9301,0.9619,0.982,0.9769,0.9873,1.0264,0.9601,0.9216,0.9457,0.9182,0.8633,0.7755,0.7896,0.792,0.7704,0.771,0.7627,0.7496,0.7148,0.6716,0.0,0.0,0.0,0.0,0.0,0.0,0.0,0.0,0.0,0.0,0.0,0.0,0.0,0.0,0.0,0.0,0.0,0.0,0.0,0.0,0.0,0.0,0.0,0.0,0.0,1.4665,1.5647,1.6325,1.6584,1.6752,1.681,1.6752,1.656,1.6202,1.6085,1.5945,1.5749,1.5519,1.5373,1.54,1.5605,1.5615,1.541,1.5683,1.5703,1.541,1.541,1.541,1.5439,1.6422,1.662,1.6159,1.633,1.6573,1.6867,1.7142,1.7756,1.8425,1.7415,1.702,1.6874,1.5705,1.4677,1.3811,1.313,1.2905,1.2905,1.2905,1.2905,1.2905,1.2905,1.2905,1.2905,1.2905,1.2905,1.2905,1.2905,1.2773,1.2588,1.2272,1.1777,1.132,1.1183,1.0704,1.0342,1.0488,1.04,1.0205,0.9884,1.0088,1.0186,0.9874,1.0098,1.0303,1.0303,1.0303,1.0303,1.0303,0.9845,0.9387,0.9034,0.8727,0.8324,0.7741,0.7191,0.7128,0.768,0.771,0.7695,0.7695,0.7352,0.7031,0.6726,0.0,0.0,0.0,0.0,0.0,0.0,0.0,0.0,0.0,0.0,0.0,0.0,0.0,0.0,0.0,0.0,0.0,0.0,0.0,0.0,0.0,0.0,0.0,1.4415,1.5576,1.6489,1.6503,1.7812,1.8389,1.7555,1.8225,1.8501,1.7976,1.7752,1.7768,1.7988,1.7113,1.622,1.5439,1.5977,1.6016,1.5498,1.6258,1.6258,1.5488,1.5439,1.541,1.5497,1.8451,1.9018,1.7715,1.8201,1.8525,1.8688,1.8688,1.9123,1.9579,1.744,1.6765,1.6785,1.5399,1.4309,1.3437,1.3027,1.2905,1.2905,1.2905,1.2905,1.2905,1.2905,1.2905,1.2905,1.2905,1.2905,1.2905,1.2905,1.2568,1.2213,1.2194,1.1531,1.1035,1.1479,1.089,1.042,1.0811,1.0566,1.0303,1.0303,1.0303,1.0303,1.0303,1.0303,0.0,1.0303,1.0303,1.0303,1.0303,0.976,0.9289,0.906,0.8215,0.7704,0.771,0.6234,0.607,0.7642,0.7695,0.7695,0.7695,0.7701,0.7284,0.6436,0.0,0.0,0.0,0.0,0.0,0.0,0.0,0.0,0.0,0.0,0.0,0.0,0.0,0.0,0.0,0.0,0.0,0.0,0.0,0.0,0.0,1.6094,1.7318,1.7145,1.7775,1.8437,1.8834,1.9255,1.9405,1.9158,1.9356,1.9219,1.8539,1.8838,1.8858,1.8407,1.8469,1.7758,1.6115,1.5791,1.6182,1.7285,1.6279,1.6258,1.7285,1.5985,1.541,1.5497,1.8451,1.9579,1.9176,1.8632,1.8525,1.8688,1.8688,1.9123,1.9747,1.9123,1.8608,1.8109,1.7455,1.545,1.306,1.2944,1.2905,1.2905,1.2905,1.2905,1.2905,1.2905,1.2905,1.2905,1.2905,1.2905,1.2905,1.2905,1.2793,1.2539,1.1927,1.1584,1.1261,1.0762,1.0469,1.0332,1.043,1.0381,1.0303,1.0303,1.0303,1.0303,1.0303,1.0303,1.0303,1.0303,1.0303,1.0303,1.0303,0.9767,0.9551,0.9904,0.8562,0.7708,0.7704,0.7282,0.7244,0.768,0.771,0.7695,0.7695,0.7701,0.7581,0.0,0.0,0.0,0.0,0.0,0.0,0.0,0.0,0.0,0.0,0.0,0.0,0.0,0.0,0.0,0.0,0.0,0.0,0.0,0.0,0.0,0.0,1.7987,1.9037,1.9269,1.9319,1.9434,1.9761,1.9798,1.9798,1.9798,1.9798,1.9743,1.9558,1.9848,2.006,2.0096,1.9884,1.9153,1.7842,1.7467,1.7287,1.7285,1.6768,1.7012,1.7998,1.6982,1.6748,1.7308,1.9032,1.9798,1.9773,1.9214,1.9056,1.9176,1.9176,1.9423,0.0,0.0,0.0,0.0,0.0,1.6618,1.5031,1.3818,1.3516,1.369,1.3857,1.3897,1.3828,1.3498,1.3168,1.301,1.3498,1.3658,1.3624,1.3464,1.3387,1.3167,1.2192,1.1845,1.1448,1.0508,1.0303,1.0303,1.0303,1.0303,0.0,1.0303,1.0303,1.0303,1.0303,1.0303,1.0303,1.0303,1.0303,1.0303,1.0303,0.9994,0.9912,1.0276,0.8706,0.0,0.0,0.0,0.77,0.77,0.77,0.0,0.0,0.0,0.0,0.0,0.0,0.0,0.0,0.5898,0.6512,0.0,0.0,0.0,0.0,0.0,0.0,0.0,0.0,0.0,0.0,0.0,0.0,0.0,0.0,0.0,0.0,1.9831,2.0346,2.0839,2.0321,1.9875,1.9798,1.9798,1.9798,1.9798,1.9861,2.0112,2.0654,2.0805,2.1307,2.2259,2.1279,0.0,0.0,0.0,1.9006,1.6816,1.7501,1.792,1.8008,1.8128,1.8748,1.9798,1.9798,1.9798,1.9798,1.9798,1.9798,1.9798,1.9798,1.9798,1.9721,1.9097,1.87,1.8451,1.7614,1.7749,1.7998,1.5449,0.0,0.0,1.5312,1.5383,1.52,1.4469,1.3713,1.3347,1.4562,1.4903,1.4811,1.446,1.4261,1.3903,1.2839,1.2316,1.176,1.0695,1.0429,1.0371,1.0361,1.0332,1.0303,1.0303,1.0303,1.0303,1.0303,1.0303,1.0303,1.0303,1.0303,1.0303,1.0303,0.0,0.0,1.0025,0.8587,0.7707,0.771,0.7695,0.7695,0.7695,0.7695,0.7695,0.7695,0.7695,0.7695,0.7695,0.7695,0.7695,0.77,0.77,0.7518,0.0,0.0,0.0,0.0,0.0,0.0,0.0,0.0,0.0,0.0,0.0,0.0,0.0,0.0,0.0,1.9907,2.0749,2.1421,2.1506,2.0991,2.0396,1.985,1.9798,1.9798,1.9798,2.0251,2.0566,2.0679,2.1493,2.2083,2.2297,2.2476,2.2237,2.1537,2.1155,2.0561,1.9766,1.7897,1.7291,1.8022,1.8973,0.0,1.9798,1.9798,1.9798,1.9798,1.9798,1.9798,1.9798,1.9798,1.9798,1.9798,1.9631,1.9553,1.9501,1.9338,1.8798,1.809,1.7517,1.6779,1.6072,1.6162,1.5867,1.5409,1.5164,1.4724,0.0,1.5821,1.6146,1.6123,1.6076,1.5314,1.4339,1.3317,1.3008,1.2666,1.164,1.1137,1.0847,1.0794,1.0518,1.0303,1.0303,1.0303,1.0303,1.0303,1.0303,1.0303,1.0303,1.0303,1.0303,1.0303,1.0301,0.9729,0.8326,0.789,0.7707,0.771,0.7695,0.7695,0.7695,0.7695,0.7695,0.7695,0.7695,0.7695,0.7695,0.7695,0.7695,0.7695,0.7698,0.7658,0.0,0.0,0.0,0.0,0.0,0.0,0.0,0.0,0.0,0.0,0.0,1.9992,2.0336,0.0,2.1852,2.1852,2.2341,2.2569,2.2249,2.1928,2.1387,2.041,2.0003,1.9798,1.9798,2.0352,2.0805,2.1081,2.1845,2.2406,2.2681,2.2957,2.2732,2.1939,2.2056,2.1665,2.0623,2.0129,1.9846,1.9683,1.9023,1.9291,2.0337,1.9974,1.9798,1.9798,1.9798,1.9798,1.9798,1.9798,1.9798,1.9798,1.9798,1.9798,1.9798,1.9798,1.9443,1.8915,1.8633,1.8188,1.7649,1.7386,1.692,1.6455,1.6372,1.5993,1.5726,1.6333,1.6505,1.6505,1.6505,1.6046,1.5343,1.4341,1.3874,1.3457,1.2715,1.1942,1.1402,1.1388,1.0992,1.0572,1.0341,1.0303,1.0303,1.0303,1.0303,1.0303,1.0303,1.0303,1.0303,1.0303,1.0301,0.9949,0.9084,0.8203,0.7707,0.771,0.7695,0.7695,0.7695,0.7695,0.7695,0.7695,0.7695,0.7695,0.7695,0.7695,0.7852,0.8152,0.8072,0.7924,0.0,0.0,0.0,0.0,0.0,0.0,0.0,1.9935,2.0099,2.1264,2.2013,2.2622,2.3167,2.3655,2.3984,2.3984,2.4033,2.3894,2.3339,2.3055,2.2519,2.1477,2.0562,1.999,1.9987,2.0515,2.1081,2.1606,2.2159,2.2631,2.3083,2.3108,2.2793,2.2156,2.2763,2.2433,2.1101,2.2433,2.2628,2.1705,1.9442,1.9242,2.0861,2.0124,1.9798,1.9798,1.9798,1.9798,1.9798,1.9798,1.9798,1.9798,1.9798,1.9798,1.9798,1.9798,1.9798,1.9748,1.9296,1.9158,1.9083,1.8656,1.8078,1.7561,1.7561,1.7061,1.65,1.65,1.65,1.65,1.65,1.65,1.6264,1.5349,1.476,1.4253,1.3684,1.2855,1.2223,1.2155,1.178,1.1286,1.0679,1.0672,1.0644,1.0351,1.0303,1.0303,1.0303,1.0303,1.0293,1.0302,1.0303,1.0309,1.0293,0.8701,0.7695,0.7698,0.7705,0.7695,0.7695,0.7695,0.7749,0.7851,0.7827,0.7827,0.7827,0.7994,0.8234,0.8561,0.8626,0.8395,2.0967,1.9998,1.9972,2.176,2.1571,2.1714,0.0,2.4305,2.3657,2.479,2.5107,2.5196,2.527,2.533,2.539,2.539,2.5365,2.5371,2.5297,2.4294,2.3545,2.3388,2.1792,2.0654,2.0606,2.1094,2.1631,2.2184,2.2706,2.3045,2.3108,2.3108,2.3078,2.2975,2.3047,2.3005,2.2811,2.3017,2.3047,2.2902,2.1642,2.1001,2.0861,2.0124,1.9798,1.9798,1.9798,1.9798,1.9798,1.9798,1.9798,1.9798,1.9798,1.9798,1.9798,1.9798,1.9798,1.9798,1.9736,1.971,1.971,1.9648,1.8945,1.8116,1.8116,1.7363,1.65,1.65,1.65,1.65,1.65,1.65,1.635,1.5757,1.5582,1.527,1.4297,1.3962,1.3674,1.3087,1.3055,1.2813,1.1808,1.2019,1.1893,1.0507,1.0303,1.0303,1.0303,1.0303,1.0292,1.0298,1.031,1.0308,1.0295,0.8701,0.7709,0.7703,0.7701,0.7695,0.7695,0.7695,0.7924,0.84,0.8287,0.8233,0.8233,0.9018,0.9046,0.8436,0.9198,0.9303,2.2183,2.2018,2.2195,2.2874,2.3466,2.4247,2.5746,2.5375,2.4973,2.5885,2.5832,2.5615,2.5615,2.5615,2.5615,2.5615,2.5929,2.5914,2.5128,2.4913,2.4397,2.3253,2.2056,2.1291,2.1238,2.1401,2.1719,2.2272,2.2794,2.3108,2.3108,2.3108,2.3108,2.3108,2.3108,2.3108,2.3108,2.3108,2.3108,2.3095,2.2347,2.1719,2.1242,2.0602,2.0125,1.9798,1.9798,1.9798,1.9798,1.9798,1.9798,1.9798,1.9798,1.9798,1.9798,1.9798,1.9798,1.9798,1.9798,1.9798,1.9798,1.9798,1.9083,1.8204,1.8204,1.739,1.65,1.65,1.65,1.65,1.65,1.65,1.6437,1.6233,1.6177,1.6043,1.5645,1.5176,1.4762,1.449,1.3832,1.3,1.199,1.1812,1.1621,1.0977,1.1054,1.1067,1.0745,1.0807,1.0964,1.1159,1.0654,1.0296,1.0306,0.963,0.8773,0.7761,0.7694,0.7698,0.7705,0.7695,0.7914,0.8368,0.8319,0.8546,0.905,0.9426,0.9724,0.9986,1.0348,1.0553,2.2911,2.3111,2.3358,2.3941,2.4933,2.595,2.6509,2.625,2.6002,2.6382,2.6136,2.5824,2.5621,2.5615,2.5674,2.5854,2.6273,2.6258,2.5277,2.5397,2.4957,2.3175,2.2222,2.1753,2.1868,2.1505,2.1556,2.2259,2.2656,2.2945,2.3095,2.3108,2.3108,2.3108,2.3108,2.3108,2.3108,2.3108,2.3108,2.3095,2.2543,2.2108,2.1694,2.1018,2.0377,1.9798,1.9798,1.9798,1.9798,1.9798,1.9798,1.9798,1.9798,1.9798,1.9798,1.9798,1.9798,1.9798,1.9798,1.9798,1.9798,1.9798,1.9183,1.8405,1.8254,1.7526,1.6701,1.6538,1.65,1.65,1.65,1.65,1.65,1.65,1.6503,1.6506,1.6493,1.6073,1.57,1.5698,1.472,1.3528,1.2374,1.2325,1.2288,1.1891,1.2025,1.1957,1.13,1.111,1.1319,1.2096,1.1523,1.1108,1.1099,1.1094,1.0564,0.9294,0.8263,0.7933,0.8459,0.8466,0.8592,0.8843,0.8974,0.9351,0.9984,1.0243,1.0616,1.112,1.1377,1.1604,2.2715,2.2112,2.2213,2.5253,2.5894,2.6238,2.7864,2.7758,2.7211,2.6687,2.6581,2.6363,2.5734,2.5615,2.5809,2.6452,2.6572,2.6572,2.6542,2.6004,2.5135,2.3806,2.2513,2.1921,2.2506,2.1446,2.1169,2.2234,2.2334,2.2543,2.3083,2.3108,2.3108,2.3108,2.3108,2.3108,2.3108,2.3108,2.3108,2.3095,2.2543,2.2297,2.2246,2.1182,2.0377,1.9798,1.9798,1.9798,1.9798,1.9798,1.9798,1.9798,1.9798,1.9798,1.9798,1.9798,1.9798,1.9798,1.9798,1.9798,1.9798,1.9798,1.9447,1.8882,1.8367,1.7802,1.726,1.6651,1.65,1.65,1.65,1.65,1.65,1.65,1.6509,1.6509,1.65,1.6475,1.6469,1.6463,1.5848,1.4871,1.3403,1.4337,1.4797,1.3354,1.3159,1.282,1.1884,1.0931,1.1057,1.2955,1.3131,1.3113,1.3113,1.3113,1.3081,1.3039,0.9672,0.8521,1.0339,1.0412,1.0352,1.0244,1.0688,1.0922,1.0961,1.1872,1.1898,1.112,1.2025,1.2216,2.3836,2.3934,2.441,2.6974,2.7062,2.6747,2.7573,2.723,2.6473,2.5491,2.4926,2.4537,2.4313,2.4268,2.4642,2.5764,2.6303,2.6587,2.6587,2.6393,2.5783,2.4458,2.3936,2.3606,2.3359,2.173,2.1335,2.285,2.2556,2.2518,2.307,2.3108,2.3108,2.3108,2.3108,2.3108,2.3108,2.3108,2.3108,2.3095,2.2543,2.2309,2.2272,2.1194,2.0591,2.0377,1.9962,1.9798,1.9798,1.9798,1.9798,1.9798,1.9798,1.9798,1.9798,1.9798,1.9798,1.9798,1.9798,1.9798,1.9798,1.9798,1.9447,1.897,1.8782,1.8103,1.736,1.7149,1.681,1.65,1.65,1.65,1.65,1.65,1.65,1.65,1.65,1.65,1.6506,1.6509,1.6301,1.5764,1.453,1.4112,1.3778,1.3256,1.266,1.2377,1.2691,1.2424,1.2476,1.3131,1.3201,1.3208,1.3191,1.3201,1.319,1.3199,1.0913,1.0056,1.1184,1.1132,1.0997,1.0766,1.0918,1.1321,1.1925,1.2252,1.2428,1.2489,1.2822,1.289,2.5162,2.5546,2.6094,2.8102,2.7774,2.7078,2.7604,2.718,2.629,2.4837,2.4197,2.3701,2.3038,2.2921,2.343,2.4978,2.5615,2.6048,2.6527,2.6587,2.6111,2.4775,2.4664,2.452,2.4091,2.2665,2.2219,2.3259,2.27,2.2518,2.307,2.3108,2.3108,2.3108,2.3108,2.3108,2.3108,2.3108,2.3108,2.3095,2.2744,2.2498,2.2284,2.1408,2.088,2.0666,2.0049,1.9798,1.9798,1.9798,1.9798,1.9798,1.9798,1.9798,1.9798,1.9798,1.9798,1.9798,1.9798,1.9798,1.9798,1.9798,1.9572,1.9208,1.882,1.8242,1.7589,1.7187,1.681,1.65,1.65,1.65,1.65,1.65,1.65,1.65,1.65,1.65,1.6502,1.6497,1.6501,1.6273,1.5601,1.4212,1.321,1.3196,1.2688,1.253,1.3116,1.3198,1.3198,1.3198,1.3198,1.3196,1.3208,1.3209,1.3203,1.3207,1.2096,1.1675,1.2152,1.2086,1.1955,1.1802,1.1802,1.2086,1.2689,1.2689,1.2847,1.3198,1.3198,1.3198,2.6505,2.6725,2.7114,2.8584,2.7969,2.7157,2.7833,2.7502,2.6519,2.4642,2.4214,2.362,2.1869,2.1605,2.2278,2.4201,2.459,2.5113,2.6452,2.6632,2.6183,2.4931,2.4839,2.4839,2.481,2.4215,2.3748,2.3576,2.2843,2.2665,2.319,2.3185,2.3155,2.3155,2.3138,2.3108,2.3108,2.3108,2.3108,2.3108,2.3108,2.2832,2.2305,2.1782,2.1257,2.0704,2.01,1.9823,1.9798,1.9798,1.9798,1.9798,1.9798,1.9798,1.9798,1.9798,1.9798,1.9798,1.9798,1.9798,1.9798,1.9798,1.9798,1.961,1.8568,1.8229,1.799,1.6851,1.6525,1.65,1.65,1.65,1.65,1.65,1.65,1.65,1.65,1.65,1.65,1.65,1.6509,1.6502,1.6491,1.4675,1.321,1.3196,1.3198,1.3198,1.3198,1.3198,1.3198,1.3198,1.3198,1.3198,1.3198,1.3198,1.3198,1.3198,1.3211,1.3189,1.3203,1.3198,1.3202,1.3198,1.3198,1.3198,1.3198,1.3198,1.3198,1.3198,1.3198,1.3198,2.664,2.7114,2.7669,2.8265,2.7583,2.667,2.6249,2.5536,2.4474,2.2731,2.1598,2.0609,1.9633,2.0288,2.1455,2.2936,2.4403,2.5809,2.7165,2.7345,2.7041,2.6198,2.6555,2.6659,2.6169,2.5912,2.5749,2.5719,2.4613,2.4176,2.4769,2.4279,2.4002,2.4002,2.3424,2.3108,2.3108,2.3108,2.3108,2.3108,2.3108,2.3032,2.2882,2.2347,2.1794,2.1282,2.0717,2.0226,1.9798,1.9798,1.9798,1.9798,1.9798,1.9798,1.9798,1.9798,1.9798,1.9798,1.9798,1.9798,1.9798,1.9798,1.9798,1.9673,1.8995,1.8702,1.838,1.7433,1.6861,1.65,1.65,1.65,1.65,1.65,1.65,1.65,1.65,1.65,1.65,1.65,1.649,1.6499,1.6494,1.4676,1.321,1.3196,1.3198,1.3198,1.3198,1.3198,1.3198,1.3198,1.3198,1.3198,1.3198,1.3198,1.3198,1.3198,1.3208,1.3196,1.3198,1.3208,1.3196,1.3198,1.3198,1.3198,1.3198,1.3198,1.3198,1.3198,1.3198,1.3198,2.7637,2.7835,2.7972,2.8035,2.6933,2.5711,2.5169,2.4324,2.3118,2.133,2.0246,1.9341,1.8422,1.9361,2.0707,2.2044,2.3894,2.563,2.6986,2.7405,2.7465,2.7091,2.7375,2.745,2.7091,2.7007,2.6982,2.6982,2.5687,2.5052,2.5384,2.5007,2.4794,2.4794,2.4323,2.3959,2.3619,2.3632,2.3454,2.3108,2.3108,2.3108,2.3083,2.2531,2.2008,2.1455,2.093,2.0365,1.9798,1.9798,1.9798,1.9798,1.9798,1.9798,1.9798,1.9798,1.9798,1.9798,1.9798,1.9798,1.9798,1.9798,1.9798,1.9673,1.9068,1.8786,1.8452,1.7307,1.6773,1.65,1.65,1.65,1.65,1.65,1.65,1.65,1.65,1.65,1.65,1.65,1.6498,1.6509,1.6486,1.4664,1.3204,1.3204,1.3198,1.3198,1.3198,1.3198,1.3198,1.3198,1.3198,1.3198,1.3198,1.3198,1.3198,1.3198,1.3198,1.3198,1.3198,1.3198,1.3198,1.3198,1.3198,1.3198,1.3198,1.3198,1.3198,1.3198,1.3198,1.3198,2.8427,2.8291,2.796,2.7466,2.6058,2.4693,2.4279,2.3399,2.2109,2.0156,1.9421,1.8778,1.766,1.8612,2.0022,2.135,2.3184,2.4963,2.6393,2.7106,2.7495,2.7585,2.76,2.76,2.76,2.76,2.76,2.76,2.6402,2.5701,2.5701,2.5591,2.5508,2.5398,2.5398,2.5091,2.4452,2.4452,2.4089,2.3424,2.3424,2.3365,2.3233,2.2694,2.2094,2.1455,2.093,2.0365,1.9798,1.9798,1.9798,1.9798,1.9798,1.9798,1.9798,1.9798,1.9798,1.9798,1.9798,1.9798,1.9798,1.9798,1.9798,1.9648,1.8862,1.8618,1.834,1.6895,1.65,1.65,1.65,1.65,1.65,1.65,1.65,1.65,1.65,1.65,1.65,1.65,1.65,1.6464,1.6362,1.4725,1.3368,1.3211,1.3198,1.3198,1.3198,1.3198,1.3198,1.3198,1.3198,1.3198,1.3198,1.3198,1.3198,1.3198,1.3198,1.3198,1.3198,1.3198,1.3198,1.3198,1.3198,1.3198,1.3198,1.3198,1.3198,1.3198,1.3198,1.3198,2.6306,2.6638,2.7057,2.5385,2.4887,2.4416,2.2954,2.1976,2.0861,1.8905,1.7807,1.6969,1.6263,1.7625,1.9316,2.0662,2.2503,2.4433,2.6318,2.6692,2.6986,2.7525,2.76,2.76,2.76,2.76,2.76,2.76,2.7357,2.7214,2.7214,2.6628,2.6041,2.5425,2.5398,2.5342,2.5203,2.5203,2.5147,2.5007,2.5007,2.4667,2.4063,2.3474,2.2592,2.1455,2.093,2.0365,1.9798,1.9798,1.9798,1.9798,1.9798,1.9798,1.9798,1.9798,1.9798,1.9798,1.9798,1.9798,1.9798,1.9798,1.9798,1.961,1.858,1.8289,1.805,1.6848,1.65,1.65,1.65,1.65,1.65,1.65,1.65,1.65,1.65,1.65,1.65,1.65,1.65,1.6317,1.5691,1.5043,1.43,1.3331,1.3198,1.3198,1.3198,1.3198,1.3198,1.3198,1.3198,1.3198,1.3198,1.3198,1.3198,1.3198,1.3198,1.3198,1.3198,1.3198,1.3198,1.3198,1.3198,1.3198,1.3198,1.3198,1.3198,1.3198,1.3198,1.3198,2.607,2.6061,2.6187,2.5419,2.4531,2.3521,2.2288,2.0959,1.9471,1.7597,1.6696,1.6144,1.5858,1.7101,1.8491,1.951,2.1321,2.3295,2.5285,2.5869,2.6452,2.748,2.76,2.76,2.76,2.76,2.76,2.76,2.76,2.76,2.76,2.7255,2.6904,2.6561,2.6534,2.6349,2.5987,2.5987,2.5783,2.5398,2.5398,2.5039,2.4351,2.4054,2.3245,2.2062,2.1811,2.1335,2.0767,2.0576,2.0417,2.0384,2.0938,2.06,1.985,2.0207,2.0105,1.9798,1.9798,1.9798,1.9798,1.9798,1.9798,1.9698,1.918,1.865,1.8077,1.754,1.6945,1.65,1.65,1.65,1.65,1.65,1.65,1.65,1.65,1.65,1.65,1.65,1.65,1.6405,1.6024,1.5389,1.4723,1.4159,1.3586,1.3198,1.3206,1.3198,1.3198,1.3198,1.3198,1.3198,1.3198,1.3198,1.3198,1.3198,1.3198,1.3198,1.3198,1.3198,1.3198,1.3198,1.3198,1.3198,1.3198,1.3198,1.3198,1.3198,1.3198,1.3198,2.6047,2.5733,2.5538,2.5676,2.4344,2.2732,2.1695,2.0187,1.8491,1.6675,1.6039,1.5799,1.5799,1.6727,1.7758,1.8568,2.0154,2.1994,2.4096,2.4948,2.5884,2.7225,2.751,2.76,2.76,2.76,2.76,2.76,2.76,2.76,2.76,2.76,2.76,2.76,2.76,2.7331,2.6747,2.6747,2.6371,2.5667,2.5667,2.5223,2.441,2.4311,2.365,2.2586,2.2462,2.2142,2.1697,2.1366,2.1158,2.1091,2.1917,2.1404,2.0257,2.0807,2.0658,2.0207,2.0207,2.0207,2.0207,2.0207,1.994,1.9623,1.9634,1.9112,1.849,1.8157,1.7505,1.68,1.6559,1.65,1.65,1.65,1.65,1.65,1.65,1.6493,1.6489,1.6509,1.6493,1.6494,1.6496,1.5792,1.5077,1.4604,1.3765,1.3197,1.3201,1.3198,1.3198,1.3198,1.3198,1.3198,1.3198,1.3198,1.3198,1.3198,1.3198,1.3198,1.3198,1.3198,1.3198,1.3198,1.3198,1.3198,1.3198,1.3198,1.3198,1.3198,1.3198,1.3198,2.5093,2.516,2.5438,2.4867,2.3858,2.2538,2.0758,1.9656,1.8491,1.6675,1.6039,1.5799,1.5799,1.6338,1.7219,1.8493,1.9361,2.0786,2.3325,2.4261,2.5187,2.6527,2.7225,2.76,2.76,2.76,2.76,2.76,2.76,2.76,2.76,2.76,2.76,2.76,2.76,2.7575,2.7484,2.7484,2.716,2.649,2.649,2.5776,2.4465,2.399,2.3348,2.2572,2.2018,2.1752,2.1697,2.1659,2.1635,2.1639,2.1724,2.1677,2.153,2.1578,2.1592,2.153,2.153,2.153,2.153,2.153,2.0413,1.907,1.907,1.9336,1.9371,1.8037,1.7846,1.7798,1.6775,1.65,1.65,1.65,1.65,1.65,1.65,1.6503,1.6506,1.6493,1.649,1.6486,1.6499,1.6427,1.5674,1.3662,1.3277,1.3197,1.3201,1.3198,1.3198,1.3198,1.3198,1.3198,1.3198,1.3198,1.3198,1.3198,1.3198,1.3198,1.3198,1.3198,1.3198,1.3198,1.3198,1.3198,1.3198,1.3198,1.3198,1.3198,1.3198,1.3198,2.4044,2.4193,2.4417,2.4478,2.352,2.2199,2.0724,1.9484,1.8136,1.6371,1.5884,1.5799,1.5799,1.6009,1.6443,1.7339,1.7712,1.867,2.0951,2.1829,2.3035,2.5143,2.5989,2.6692,2.7525,2.76,2.7435,2.7031,2.7001,2.6811,2.6408,2.7165,2.76,2.76,2.76,2.76,2.76,2.721,2.6866,2.6587,2.6183,2.5503,2.4555,2.4351,2.386,2.32,2.2947,2.2831,2.2831,2.2831,2.2628,2.2346,2.2696,2.2386,2.1758,2.2146,2.2053,2.1697,2.1697,2.1697,2.1697,2.1697,2.0982,2.0204,2.0537,2.0227,1.9678,1.9083,1.8688,1.8295,1.7624,1.7315,1.7167,1.7167,1.7167,1.7214,1.7429,1.7303,1.7156,1.7161,1.7156,1.7022,1.6571,1.6496,1.6204,1.5309,1.4052,1.3194,1.3209,1.3206,1.3198,1.3198,1.3198,1.3198,1.3198,1.3198,1.3198,1.3198,1.3198,1.3198,1.3198,1.3198,1.3198,1.3198,1.3198,1.3198,1.3198,1.3198,1.3198,1.3198,1.3198,1.3198,2.3475,2.3744,2.3981,2.4359,2.3359,2.1942,2.0568,1.9291,1.7914,1.6156,1.5799,1.5799,1.5799,1.5799,1.6009,1.6607,1.6876,1.7639,1.9435,2.0453,2.1754,2.3804,2.4784,2.5749,2.6911,2.736,2.7405,2.6941,2.6692,2.6393,2.5929,2.6587,2.7016,2.7016,2.7016,2.7016,2.7016,2.6527,2.6198,2.6004,2.554,2.4948,2.4291,2.4291,2.4059,2.3595,2.3595,2.3595,2.3595,2.3595,2.3355,2.3009,2.3443,2.3047,2.2317,2.2793,2.2665,2.2271,2.2271,2.2271,2.2271,2.2271,2.2011,2.1778,2.2144,2.1111,1.9816,1.9781,1.9197,1.8593,1.8579,1.8173,1.783,1.8139,1.7978,1.7897,1.845,1.8224,1.796,1.8179,1.7968,1.7681,1.7477,1.7181,1.7075,1.741,1.5841,1.4387,1.3686,1.3585,1.3587,1.3581,1.3581,1.3493,1.3215,1.3198,1.3198,1.3198,1.3198,1.3198,1.3198,1.3198,1.3198,1.3198,1.3198,1.3198,1.3198,1.3198,1.3198,1.3198,1.3198,1.3198,2.3595,2.4081,2.459,2.459,2.3436,2.183,2.0101,1.9028,1.7914,1.6156,1.5799,1.5799,1.5799,1.5799,1.6009,1.6607,1.7264,1.8162,1.9513,2.0842,2.1934,2.2643,2.3849,2.4874,2.557,2.6811,2.76,2.7585,2.6986,2.6587,2.6572,2.5974,2.563,2.563,2.563,2.563,2.563,2.5615,2.5277,2.4634,2.4619,2.4261,2.361,2.361,2.361,2.3595,2.3595,2.3595,2.3595,2.3595,2.3595,2.3595,2.3595,2.3595,2.3573,2.3595,2.3595,2.3573,2.3573,2.3573,2.3573,2.3573,2.3573,2.3558,2.3573,2.186,1.9866,1.9732,1.9163,1.8776,1.9495,1.8891,1.8369,1.9427,1.8872,1.8383,1.9446,1.9118,1.8808,1.9545,1.8826,1.8432,1.9491,1.879,1.8436,1.9503,1.8743,1.7188,1.4786,1.449,1.4495,1.4481,1.4485,1.4133,1.3267,1.3198,1.3198,1.3198,1.3198,1.3198,1.3198,1.3198,1.3198,1.3198,1.3198,1.3198,1.3198,1.3198,1.3198,1.3198,1.3198,1.3198,2.1635,2.1764,2.1824,2.1365,2.0881,2.014,1.8676,1.8113,1.7529,1.6083,1.5799,1.5799,1.5799,1.5799,1.6144,1.7204,1.7548,1.8012,1.8897,2.0168,2.144,2.2568,2.5054,2.6722,2.6956,2.7345,2.7225,2.6303,2.6033,2.5525,2.4597,2.4343,2.4657,2.5561,2.5615,2.5824,2.6273,2.5367,2.5038,2.5262,2.4335,2.3804,2.3595,2.3595,2.3595,2.3595,2.3595,2.3595,2.3595,2.3595,2.3595,2.3595,2.3595,2.3595,2.3595,2.3595,2.3595,2.3595,2.3595,2.3595,2.3595,2.3595,2.3595,2.3595,2.3595,2.2763,2.162,2.0653,1.9899,1.9416,1.9645,1.9446,1.9269,1.9623,1.9446,1.9302,1.9623,1.9527,1.942,1.9646,1.9431,1.9295,1.9637,1.9411,1.9142,1.8959,1.8238,1.7213,1.5905,1.5411,1.5021,1.4556,1.4501,1.414,1.3262,1.3201,1.3201,1.3201,1.4306,1.4708,1.4114,1.3908,1.3622,1.3208,1.3208,1.3208,1.3195,1.3195,1.3195,1.3208,1.3191,1.3198,2.0554,2.0703,2.0598,2.0183,1.969,1.9031,1.7953,1.7488,1.7041,1.6009,1.5799,1.5799,1.5799,1.5898,1.6199,1.6862,1.7496,1.8152,1.8885,2.0162,2.1664,2.3456,2.5764,2.7372,2.7864,2.7718,2.7234,2.6372,2.5875,2.5136,2.4044,2.3744,2.4093,2.5106,2.495,2.5046,2.545,2.4889,2.4777,2.5137,2.4342,2.4051,2.4199,2.3773,2.3724,2.39,2.3702,2.3595,0.0,2.3595,2.3595,2.3595,2.3595,2.3595,2.3595,2.3595,2.3595,2.3595,2.3595,2.3595,2.3595,2.3595,2.3595,2.3595,2.3595,2.3176,2.2478,2.138,2.0604,2.0078,2.0087,1.9902,1.9708,1.9708,1.9708,1.9708,1.9708,1.9708,1.9708,1.9708,1.9708,1.9698,1.9697,1.969,1.9549,1.9085,1.8625,1.8057,1.7298,1.6855,1.631,1.556,1.5184,1.4761,1.4232,1.4182,1.4178,1.4178,1.5213,1.5556,1.5019,1.4617,1.4022,1.3222,1.32,1.32,1.3204,1.3861,1.3851,1.3191,1.3198,1.3209,0.0,2.0449,2.0404,2.0359,1.9447,1.8371,1.7713,1.7115,0.0,1.5919,1.5799,1.5814,1.5858,1.6098,1.6237,1.6036,1.7318,1.8625,1.9514,2.0903,2.2742,2.5157,2.6183,2.7177,2.8356,2.8014,2.7665,2.7511,2.6405,2.5401,2.4672,2.4048,2.3927,2.445,2.397,2.3739,2.3784,2.4364,2.4574,2.4467,2.4605,2.4829,2.5125,2.4158,2.3991,2.443,2.39,2.3681,2.3724,2.3681,2.3681,2.3709,2.3709,2.3709,2.3709,2.3709,2.3702,2.3659,2.3659,2.3638,2.3595,2.3595,2.3595,2.3595,2.3595,2.3212,2.2628,2.1889,2.1261,2.0748,2.0643,2.0168,1.9708,1.9708,1.9708,1.9708,1.9708,1.9708,1.9708,1.9708,1.9708,1.9708,1.9708,1.9708,1.9708,1.9708,1.9708,1.945,1.876,1.8512,1.8087,1.7233,1.6339,1.5794,1.5794,1.5802,1.5798,1.5799,1.5798,1.5798,1.5799,1.523,1.4431,1.3435,1.3301,1.3245,1.3204,1.4946,1.4983,1.3377,1.3372,1.3385,1.8562,0.0,1.7518,1.7072,1.7071,1.7011,0.0,1.6488,1.6532,1.5919,1.5799,1.5934,1.6398,1.6389,1.6685,1.7824,1.8857,1.9862,2.0886,2.3417,2.5588,2.6707,2.7939,2.8841,2.9134,2.9046,2.8521,2.7439,2.7073,2.6356,2.5127,2.491,2.4875,2.5012,2.4891,2.5064,2.5575,2.5233,2.5091,2.5153,2.5096,2.4889,2.4576,2.4752,2.4894,2.4973,2.445,2.445,2.4776,2.4369,2.445,2.4816,2.4816,2.4816,2.4816,2.4816,2.4556,2.4204,2.4204,2.3927,2.3595,2.3595,2.3595,2.3595,2.3595,2.349,2.3146,2.2024,2.159,2.1231,2.0198,1.9828,1.9708,1.9708,1.9708,1.9708,1.9708,1.9708,1.9708,1.9708,1.9708,1.9708,1.9708,1.9708,1.9708,1.9708,1.9708,1.9403,1.8587,1.8433,1.818,1.7619,1.6506,1.58,1.58,1.5801,1.5798,1.5802,1.5799,1.5813,1.5802,1.5312,1.5179,1.5405,1.4406,1.3667,1.32,1.4944,1.5586,1.5187,1.5196,1.5186,1.7619,1.7455,1.7549,1.7206,1.7145,1.707,1.6742,1.6593,1.6423,1.6101,1.615,1.6461,1.7125,1.7263,1.7608,1.8672,1.9876,2.1262,2.2885,2.5342,2.7273,2.7978,2.882,2.9555,3.0175,2.9717,2.9068,2.8289,2.7653,2.6835,2.5766,2.5378,2.5316,2.5559,2.5577,2.5785,2.6234,2.5867,2.5831,2.6174,2.5831,2.5599,2.5451,2.5281,2.5335,2.554,2.5008,2.4914,2.5182,2.4891,2.495,2.5202,2.5202,2.5202,2.5202,2.5202,2.5028,2.4772,2.4772,2.4572,2.4328,2.4328,2.4328,2.4241,2.3666,2.3513,2.3375,2.275,2.2143,2.153,2.0816,2.0172,1.9708,1.9708,1.9708,1.9708,1.9708,1.9708,1.9708,1.9708,1.9708,1.9708,1.9708,1.9708,1.9708,1.9708,1.9708,1.954,1.9054,1.8991,1.8904,1.864,1.7998,1.7602,1.7602,1.7601,1.7067,1.5876,1.5799,1.5801,1.5799,1.5566,1.5489,1.5638,1.5268,1.471,1.398,1.52,1.5808,1.5798,1.5795,1.6441,1.745,1.8065,1.8967,1.8664,1.8332,1.8015,1.7771,1.7117,1.6505,1.6398,1.6686,1.7196,1.7925,1.8434,1.8864,1.9258,2.0809,2.2745,2.4945,2.6823,2.8281,2.9077,2.9371,2.9959,3.1083,3.0288,2.9599,2.943,2.827,2.7256,2.6564,2.5837,2.5652,2.6086,2.622,2.6416,2.6713,2.6538,2.6665,2.7083,2.6646,2.6484,2.6573,2.5783,2.5689,2.6085,2.5542,0.0,2.5414,2.5354,2.5354,2.543,2.543,2.543,2.543,2.543,2.5392,2.5316,2.524,2.5202,2.5202,2.5202,2.5202,2.5013,2.3986,2.362,2.3551,2.357,2.2579,2.1515,2.141,2.0561,1.9708,1.9708,1.9708,1.9708,1.9708,1.9708,1.9708,1.9708,1.9708,1.9708,1.9708,1.9708,1.9708,1.9708,1.9708,1.9708,1.9708,1.9708,1.9708,1.9708,1.9693,1.971,1.971,1.971,1.8751,1.6538,1.6268,1.6155,1.6099,1.6188,1.5965,1.5369,1.6066,1.6111,1.5428,1.567,1.5801,1.5806,1.6212,1.7569,1.8628,1.9633,2.021,1.8464,1.8872,1.941,1.8159,1.7771,1.7479,1.6852,1.7266,1.7944,1.8619,1.9575,2.0385,2.0713,2.2375,2.4297,2.6169,2.7806,2.9076,2.9837,3.0487,3.0977,3.119,3.1035,3.0673,3.0027,2.9213,2.8401,2.7611,2.6873,2.6505,2.659,2.7196,2.7868,2.8589,2.7896,2.7398,2.7102,2.7398,2.705,2.612,2.6367,2.6505,2.6573,0.0,2.6104,2.6436,2.605,2.6104,2.647,2.647,2.647,2.647,2.647,2.621,2.5815,2.5354,2.5202,2.5202,2.5202,2.5202,2.5166,2.4978,2.4615,2.4126,2.3582,2.2185,2.0718,2.0139,1.9857,1.9708,1.9708,1.9708,1.9708,1.9708,1.9708,1.9708,1.9708,1.9708,1.9708,1.9708,1.9708,1.9708,1.9708,1.9708,1.9708,1.9708,1.9708,1.9708,1.9708,1.9699,1.9702,1.9702,1.9702,1.9532,1.9125,1.8418,1.7822,1.7429,1.7938,1.7697,1.6485,1.7119,1.7611,1.7854,1.6473,1.58,1.5855,1.8074,1.9313,1.8402,1.9379,2.0325,1.9813,2.0745,2.1601,2.091,2.0367,1.9778,1.9018,1.9295,1.9909,2.061,2.1169,2.2091,2.385,2.4529,2.558,2.7655,2.818,2.8789,2.9954,3.0395,3.0768,3.1157,3.119,3.0886,3.0176,2.9414,2.8654,2.7841,2.7097,2.6691,2.6691,2.7029,2.7571,2.8349,2.7976,2.7903,2.8107,2.75,2.6927,2.6384,2.6607,2.6691,2.6691,0.0,2.6487,2.6674,2.647,2.6521,2.6691,2.6691,2.6691,2.6691,2.6691,2.6556,2.6349,2.6087,2.6016,2.6016,2.6016,2.6016,2.5898,2.5286,2.492,2.4518,2.3557,2.2555,2.1545,2.0513,2.0243,2.0154,1.9798,1.9708,1.9708,1.9708,1.9708,1.9708,1.9708,1.9708,1.9708,1.9708,1.9708,1.9708,1.9708,1.9708,1.9708,1.9708,1.9708,1.9708,1.9708,1.9708,1.9708,1.9708,1.9708,1.9504,1.9032,1.8388,1.7918,1.7697,1.7997,1.7713,1.6711,1.7697,1.7991,1.7486,1.7774,1.7177,1.5862,1.8472,1.9689,1.8657,1.9336,2.031,2.1237,2.2109,2.2817,2.3176,2.2435,2.1561,2.1181,2.145,2.1861,2.233,2.2652,2.3613,2.6048,2.6268,2.6708,2.8467,2.8501,2.877,2.9954,3.0108,3.0328,3.0886,3.0784,3.0446,2.9888,2.9144,2.845,2.7841,2.7097,2.6691,2.6691,2.686,2.7232,2.779,2.7807,2.8094,2.8687,2.752,2.686,2.6691,2.6691,2.6691,2.6691,2.6691,2.6691,2.6691,2.6691,2.6691,2.6691,2.6691,2.6691,2.6691,2.6691,2.6691,2.6691,2.6691,2.6691,2.6691,2.6691,2.6691,2.6539,2.5664,2.5327,2.5006,2.3939,2.3466,2.295,2.1492,2.0847,2.0493,2.004,1.9885,1.9839,1.9839,1.9927,1.9962,1.9856,1.9839,1.9803,1.9726,1.9708,1.9708,1.9708,1.9708,1.9708,1.9708,1.9708,1.9708,1.9708,1.9708,1.9708,1.9708,1.9708,1.9418,1.875,1.8218,1.7997,1.8162,1.8162,1.7848,1.7189,1.8177,1.8192,1.7174,1.8667,1.847,1.6763,1.8777,1.97,2.0581,2.067,2.0661,2.1908,2.1778,2.17,2.3083,2.2268,2.1508,2.2449,2.2963,2.3133,2.2821,2.363,2.4643,2.5541,2.6776,2.7705,2.7858,2.9058,2.9989,3.0091,3.0108,3.0125,3.0176,2.955,2.9145,2.9077,2.8349,2.7858,2.7807,2.7097,2.6691,2.6691,2.735,2.7756,2.7807,2.7807,2.7824,2.7891,2.7773,2.735,2.6691,2.6691,2.6691,2.6691,2.6691,2.6691,2.6691,2.6691,2.6691,2.6691,2.6691,2.6691,2.6691,2.6691,2.6691,2.6691,2.6691,2.6691,2.6691,2.6691,2.6691,2.6674,2.659,2.6266,2.5782,2.5074,2.4944,2.4592,2.2752,2.1317,2.0389,2.0576,2.0436,2.0263,2.0263,2.06,2.078,2.0331,2.0263,2.0141,1.9764,1.9708,1.9708,1.9708,1.9708,1.9708,1.9708,1.9708,1.9708,1.9708,1.9708,1.9708,1.9708,1.9708,1.9678,1.96,1.8986,1.8912,1.9528,1.9558,1.9226,1.8565,1.8657,1.8657,1.8568,1.8511,1.881,1.9409,1.9624,1.97,1.9046,1.961,2.0258,2.075,2.1161,2.1914,2.3672,2.4208,2.4422,2.4823,2.5034,2.4927,2.4289,2.5313,2.6311,2.6573,2.6892,2.7452,2.8416,2.8619,2.8873,2.9347,2.9433,2.9433,2.9433,2.9162,2.8807,2.8298,2.7976,2.7604,2.7148,2.6843,2.6691,2.6691,2.6962,2.7114,2.7114,2.7114,2.7114,2.7131,2.757,2.7401,2.6708,2.7182,2.7131,2.6691,2.6691,2.6691,2.6691,2.6691,2.6691,2.6691,2.6691,2.6691,2.6691,2.6691,2.6691,2.6691,2.6691,2.6691,2.6691,2.6691,2.6691,2.6691,2.6691,2.659,2.6386,2.6118,2.5764,2.5038,2.3344,2.2812,2.2536,2.1743,2.1484,2.1304,2.0826,2.0878,2.0943,2.078,2.0603,2.0426,2.0292,2.0403,2.0514,2.0514,2.0643,2.0691,2.0531,2.0035,1.9687,1.9687,1.9695,1.9708,1.9708,1.9708,1.9708,1.9708,1.9468,1.9453,1.9693,1.9286,1.8957,1.8702,1.8702,1.8702,1.8702,1.9041,1.9389,1.9708,1.971,1.9692,1.8663,1.9205,1.9973,2.0116,2.096,2.2235,2.4046,2.5068,2.5869,2.6732,2.65,2.6051,2.5631,2.6214,2.678,2.6874,2.7086,2.747,2.8181,2.8213,2.8298,2.8586,2.8619,2.8619,2.8619,2.8417,2.8044,2.7486,2.7452,2.7232,2.6725,2.6691,2.6691,2.6691,2.6691,2.6691,2.6691,2.6691,2.6691,2.6708,2.7452,2.7401,2.6708,2.7232,2.7182,2.6691,2.6691,2.6691,2.6691,2.6691,2.6691,2.6691,2.6691,2.6691,2.6691,2.6691,2.6691,2.6691,2.6691,2.6691,2.6691,2.6691,2.6691,2.6691,2.6691,2.6691,2.6691,2.6691,2.6336,2.5681,2.4593,2.4218,2.388,2.2967,2.252,2.2151,2.1649,2.1469,2.1354,2.1165,2.1133,2.1054,2.0767,2.0879,2.1039,2.1103,2.1199,2.1183,2.0911,2.0188,1.9703,1.9703,1.9686,1.9815,2.0087,2.012,2.012,2.012,2.012,1.998,1.9711,1.9256,1.9016,1.9016,1.9016,1.9016,1.9016,1.9483,1.9708,1.9708,1.9708,1.9708,2.0081,1.9906,1.9929,2.0401,2.1329,2.2544,2.4075,2.4429,2.5186,2.7851,2.7199,2.6267,2.6712,2.6087,2.5671,2.6144,2.7444,2.8009,2.686,2.8028,2.867,2.7874,2.779,2.779,2.779,2.7131,2.6691,2.6691,2.6691,2.6691,2.6691,2.6691,2.6691,2.6691,2.6691,2.6691,2.6691,2.6691,2.6691,2.6708,2.7435,2.7401,2.6691,2.6725,2.6725,2.6691,2.6691,2.6691,2.6691,2.6691,2.6691,2.6691,2.6691,2.6691,2.6691,2.6691,2.6691,2.6691,2.6691,2.6691,2.6691,2.6691,2.6691,2.6691,2.6691,2.6691,2.6691,2.6691,2.6691,2.6691,2.6691,2.5313,2.3983,2.4182,2.3452,2.2714,2.2714,2.249,2.2132,2.1528,2.1902,2.2038,2.1167,2.1007,2.1103,2.136,2.1167,2.0927,2.0655,2.0083,1.9719,1.9719,1.9719,2.0067,2.0943,2.1007,2.1007,2.0991,2.0991,2.0615,1.9747,1.9711,1.9711,1.9711,1.9711,1.9711,1.9711,1.9708,1.9708,1.9708,1.9708,1.9708,1.9106,2.0016,2.1273,2.0933,2.2859,2.5117,2.6207,2.6435,2.6807,2.8124,2.8264,2.7917,2.7196,2.733,2.7412,2.6973,2.73,2.7516,2.7181,2.7265,2.7283,2.7046,2.7029,2.7029,2.7029,2.6826,2.6691,2.6691,2.6691,2.6691,2.6691,2.6691,2.6691,2.6691,2.6691,2.6691,2.6691,2.6691,2.6691,2.6691,2.6911,2.6911,2.6708,2.7249,2.7199,2.6691,2.6691,2.6691,2.6691,2.6691,2.6691,2.6691,2.6691,2.6691,2.6691,2.6691,2.6691,2.6691,2.6691,2.6691,2.6691,2.6691,2.6691,2.6691,2.6691,2.6691,2.6691,2.6691,2.6691,2.6691,2.6691,2.6286,2.5749,2.528,2.4962,2.4505,2.3659,2.341,2.3086,2.2221,2.2188,2.2224,2.1961,2.1915,2.1932,2.2028,2.1963,2.1895,2.1819,2.1628,2.1534,2.1536,2.1537,2.1633,2.1891,2.1908,2.1649,2.1039,2.1181,2.1086,2.0632,2.0615,2.0615,2.0615,2.0615,2.0615,2.0615,2.0278,2.0124,2.0106,1.9821,1.9856,1.9998,2.0962,2.2296,2.2493,2.4084,2.6013,2.7615,2.7966,2.8112,2.8548,2.8584,2.8409,2.7991,2.8046,2.8064,2.7729,2.7603,2.7485,2.7334,2.6938,2.6691,2.6691,2.6691,2.6691,2.6691,2.6691,2.6691,2.6691,2.6691,2.6691,2.6691,2.6691,2.6691,2.6691,2.6691,2.6691,2.6691,2.6691,2.6691,2.6691,2.6691,2.6691,2.6708,2.7165,2.7131,2.6691,2.6691,2.6691,2.6691,2.6691,2.6691,2.6691,2.6691,2.6691,2.6691,2.6691,2.6691,2.6691,2.6691,2.6691,2.6691,2.6691,2.6691,2.6691,2.6691,2.6691,2.6691,2.6691,2.6691,2.6691,2.6691,2.6691,2.659,2.615,2.5812,2.5371,2.4547,2.375,2.3022,2.2417,2.229,2.2295,2.2299,2.2296,2.2296,2.2296,2.2296,2.231,2.2293,2.2297,2.2302,2.2296,2.2312,2.2312,2.2312,2.2312,2.2086,2.154,2.166,2.169,2.1524,2.1182,2.0991,2.0991,2.0991,2.0991,2.0991,2.0731,2.0583,2.0566,2.0328,2.0362,2.1836,2.2259,2.3017,2.4559,2.5153,2.5968,2.8354,2.895,2.9005,2.9005,2.8429,2.8136,2.8877,2.8411,2.8027,2.8401,2.817,2.7808,2.7409,2.7003,2.6741,2.6708,2.6691,2.6691,2.6691,2.6691,2.6691,2.6691,2.6691,2.6691,2.6691,2.6691,2.6691,2.6691,2.6691,2.6691,2.6691,2.6691,2.6691,2.6691,2.6691,2.6691,2.6691,2.6691,2.6691,2.6691,2.6691,2.6691,2.6691,2.6691,2.6691,2.6691,2.6691,2.6691,2.6691,2.6691,2.6691,2.6691,2.6691,2.6691,2.6691,2.6691,2.6691,2.6691,2.6691,2.6691,2.6691,2.6691,2.6691,2.6691,2.6691,2.6691,2.6691,2.6691,2.6184,2.5641,2.5392,2.3867,2.2586,2.2688,2.2632,2.2528,2.2451,2.2429,2.2381,2.2313,2.2299,2.2302,2.2296,2.2296,2.2296,2.2296,2.2296,2.2296,2.2296,2.2296,2.2296,2.2296,2.2296,2.2296,2.2296,2.1539,2.1118,2.1118,2.1118,2.1118,2.1118,2.1087,2.1039,2.1039,2.1007,2.1007,2.0815,2.1742,2.3307,2.488,2.6739,2.8123,2.8069,2.8546,2.9005,2.9005,2.8858,2.8785,2.8968,2.8858,2.8762,2.8857,2.854,2.8183,2.7808,2.7424,2.7051,2.6741,2.6691,2.6691,2.6691,2.6691,2.6691,2.6691,2.6691,2.6691,2.6691,2.6691,2.6691,2.6691,2.6691,2.6691,2.6691,2.6691,2.6691,2.6691,2.6691,2.6691,2.6691,2.6691,2.6691,2.6691,2.6691,2.6691,2.6691,2.6691,2.6691,2.6691,2.6691,2.6691,2.6691,2.6691,2.6691,2.6691,2.6691,2.6691,2.6691,2.6691,2.6691,2.6691,2.6691,2.6691,2.6691,2.6691,2.6691,2.6691,2.6691,2.6691,2.6691,2.6691,2.6573,2.6453,2.6395,2.5439,2.4803,2.5611,2.5111,2.4347,2.3602,2.3287,2.297,2.2381,2.2291,2.2314,2.2299,2.2296,2.2296,2.2296,2.2296,2.2296,2.2296,2.2296,2.2296,2.2296,2.2296,2.2296,2.2296,2.2123,2.202,2.202,2.202,2.202,2.202,2.1643,2.1476,2.146,2.115,2.1166,2.0996,2.1963,2.3483,2.5474,2.7218,2.8429,2.8374,2.8693,2.9005,2.9005,2.9005,2.9005,2.9005,2.9005,2.9005,2.9005,2.8658,2.8342,2.817,2.7823,2.7439,2.7052,2.6988,2.6906,2.6725,2.6691,2.6691,2.6691,2.6691,2.6691,2.6691,2.6691,2.6691,2.6691,2.6691,2.6691,2.6691,2.6691,2.6691,2.6691,2.6691,2.6691,2.6691,2.6691,2.6691,2.6691,2.6691,2.6691,2.6691,2.6691,2.6691,2.6691,2.6691,2.6691,2.6691,2.6691,2.6691,2.6691,2.6691,2.6691,2.6691,2.6691,2.6691,2.6691,2.6691,2.6691,2.6691,2.6691,2.6691,2.6691,2.6691,2.6691,2.6691,2.6691,2.6691,2.6691,2.6702,2.6282,2.6063,2.6613,2.5702,2.4934,2.5139,2.3894,2.323,2.4247,2.441,2.4405,2.4416,2.4415,2.4408,2.4408,2.3141,2.2296,2.2296,2.2296,2.2296,2.2296,2.2296,2.2296,2.2296,2.2296,2.2296,2.2296,2.2296,2.2296,2.2296,2.2046,2.1928,2.1928,2.1721,2.172,2.0968,2.2061,2.3501,2.5648,2.6998,2.7934,2.8473,2.8803,2.9005,2.9005,2.9005,2.9005,2.9005,2.9005,2.9005,2.9005,2.8725,2.8471,2.842,2.817,2.7837,2.7439,2.7332,2.7178,2.6841,2.6741,2.6691,2.6691,2.6691,2.6691,2.6691,2.6691,2.6691,2.6691,2.6691,2.6691,2.6691,2.6691,2.6691,2.6691,2.6775,2.6791,2.6808,2.6873,2.6824,2.6708,2.6758,2.6758,2.6708,2.6841,2.6841,2.6708,2.6775,2.6758,2.6691,2.6691,2.6691,2.6691,2.6691,2.6691,2.6691,2.6691,2.6691,2.6691,2.6691,2.6691,2.6691,2.6691,2.6691,2.6691,2.6691,2.6691,2.6691,2.6691,2.6691,2.6708,2.6687,2.669,2.6707,2.6706,2.5507,2.4956,2.6447,2.4454,2.3422,2.5606,2.6365,2.6708,2.6708,2.6709,2.6691,2.6691,2.4069,2.2499,2.3006,2.3071,2.2837,2.233,2.2296,2.2296,2.2296,2.2296,2.2296,2.2296,2.2296,2.2296,2.2296,2.2296,2.2296,2.2296,2.2296,2.2296,1.8555,2.0749,2.3244,2.4263,2.6172,2.764,2.7042,2.7996,2.9005,2.9005,2.9005,2.9005,2.9005,2.9005,2.9005,2.9005,2.8952,2.8797,2.8446,2.835,2.821,2.7851,2.75,2.7288,2.7225,2.6906,2.6691,2.6691,2.6691,2.6691,2.6691,2.6691,2.6691,2.6691,2.6691,2.6691,2.6691,2.6691,2.6691,2.6708,2.7051,2.7225,2.7241,2.7574,2.7348,2.6725,2.7067,2.7019,2.6758,2.7439,2.7317,2.6741,2.7083,2.702,2.6691,2.6691,2.6691,2.6691,2.6691,2.6691,2.6691,2.6691,2.6691,2.6691,2.6691,2.6691,2.6691,2.6691,2.6691,2.6691,2.6691,2.6691,2.6691,2.6691,2.6691,2.6708,2.6691,2.6691,2.6691,2.669,2.5504,2.4963,2.6436,2.5303,2.3917,2.3008,2.5057,2.6705,2.6705,2.6707,2.6691,2.6691,2.4069,2.3327,2.5896,2.6116,2.5017,2.2448,2.2296,2.2296,2.2296,2.2296,2.2296,2.2296,2.2296,2.2296,2.2296,2.2296,2.2296,2.2296,2.2296,2.2296,1.908,2.0868,2.274,2.4456,2.5668,2.6605,2.7145,2.7475,2.7904,2.8822,2.8638,2.8473,2.8932,2.9005,2.9005,2.9005,2.9005,2.894,2.8761,2.8737,2.8596,2.8224,2.8029,2.7848,2.7648,2.7487,2.7288,2.7051,2.7052,2.6939,2.6708,2.6691,2.6691,2.6691,2.6691,2.6691,2.6691,2.6923,2.7147,2.7363,2.7545,2.7651,2.7634,2.7826,2.771,2.7378,2.756,2.7547,2.7394,2.7751,2.7678,2.7378,2.7577,2.7378,2.7052,2.7052,2.689,2.6691,2.6691,2.6691,2.6691,2.6691,2.6691,2.6691,2.6691,2.6691,2.6691,2.6691,2.6691,2.6691,2.6691,2.6691,2.6691,2.6691,2.6691,2.6691,2.6691,2.6691,2.6454,2.5642,2.5608,2.5422,2.4408,2.5067,2.5507,2.4864,2.5862,2.6691,2.6691,2.6691,2.6691,2.6691,2.5541,2.5287,2.659,2.6691,2.5748,2.3514,2.2677,2.2296,2.2296,2.3088,2.3528,2.3528,2.2733,2.2296,2.2296,2.2296,2.2296,2.2296,2.2296,2.2296,1.8981,2.0207,2.1444,2.3916,2.4865,2.5547,2.6946,2.7111,2.7311,2.8459,2.8374,2.8282,2.8895,2.9005,2.9005,2.9005,2.9005,2.9005,2.9005,2.9005,2.8893,2.859,2.8458,2.8303,2.8047,2.7954,2.7783,2.7487,2.7348,2.7178,2.6873,2.6758,2.6691,2.6691,2.6691,2.6691,2.6691,2.7099,2.75,2.7897,2.7996,2.8037,2.802,2.8134,2.8174,2.8174,2.8079,2.7982,2.7911,2.8106,2.8065,2.7911,2.7992,2.7794,2.7439,2.7439,2.7255,2.7003,2.7003,2.6939,2.6841,2.6841,2.6774,2.6691,2.6691,2.6691,2.6691,2.6691,2.6691,2.6691,2.6691,2.6691,2.6691,2.6691,2.6691,2.6691,2.6691,2.6691,2.637,2.5269,2.5963,2.5998,2.3799,2.5236,2.6691,2.6691,2.6691,2.6691,2.6691,2.6691,2.6691,2.6691,2.6691,2.6691,2.6691,2.6691,2.6328,2.5466,2.416,2.3412,2.3412,2.4458,2.5066,2.5066,2.3731,2.2888,2.2581,2.2581,2.2482,2.2296,2.2296,2.2296,1.6633,1.7686,1.8926,2.1522,2.3359,2.4776,2.5624,2.6953,2.799,2.7878,2.8448,2.895,2.8987,2.9005,2.9005,2.9005,2.9005,2.9005,2.9005,2.9005,2.8994,2.8964,2.8633,2.8394,2.8381,2.8088,2.7897,2.7869,2.7532,2.7303,2.7272,2.6906,2.6691,2.6691,2.6691,2.6691,2.6691,2.7099,2.75,2.7911,2.8224,2.8363,2.8394,2.8761,2.894,2.8917,2.854,2.8197,2.7954,2.8651,2.852,2.794,2.825,2.817,2.7869,2.7869,2.7855,2.784,2.784,2.7589,2.7272,2.7272,2.7003,2.6691,2.6691,2.6691,2.6691,2.6691,2.6691,2.6691,2.6691,2.6691,2.6691,2.6691,2.6691,2.6691,2.6691,2.6691,2.6674,2.659,2.664,2.664,2.6505,2.659,2.6691,2.6691,2.6691,2.6691,2.6691,2.6691,2.6691,2.6691,2.6691,2.6691,2.6691,2.6691,2.7276,2.8667,2.7312,2.6471,2.6471,2.6539,2.6589,2.6589,2.5559,2.4494,2.3342,2.3342,2.2987,2.2296,2.2296,2.2296,1.6583,1.7306,1.8162,2.0573,2.2001,2.3209,2.4608,2.577,2.672,2.7307,2.8091,2.8633,2.8452,2.8732,2.9005,2.9005,2.9005,2.9005,2.9005,2.9005,2.9005,2.9005,2.8863,2.8803,2.8803,2.8676,2.8507,2.8237,2.8084,2.7805,2.7317,2.7162,2.6971,2.6708,2.6691,2.6955,2.7472,2.7604,2.801,2.8614,2.8725,2.8803,2.8785,2.8929,2.9005,2.8994,2.8851,2.8713,2.8626,2.8893,2.8839,2.8626,2.8737,2.854,2.8224,2.8224,2.8075,2.7897,2.7897,2.7811,2.7695,2.7695,2.7409,2.7131,2.7378,2.7115,2.6775,2.7115,2.6971,2.6691,2.6691,2.6691,2.6691,2.6691,2.6691,2.6691,2.6691,2.6691,2.6691,2.6691,2.6691,2.6691,2.6691,2.6691,2.6691,2.6691,2.6691,2.6691,2.6691,2.6691,2.6691,2.6691,2.6691,2.6691,2.6691,2.6691,2.6938,2.7497,2.7019,2.6691,2.6691,2.6691,2.6691,2.6691,2.6353,2.5473,2.4118,2.4118,2.3729,2.3004,2.3004,2.275,1.5992,1.6562,1.7347,1.9514,2.0469,2.144,2.3659,2.462,2.5343,2.6474,2.7422,2.8072,2.81,2.8429,2.8758,2.8962,2.9005,2.9005,2.9005,2.9005,2.9005,2.9005,2.9005,2.9005,2.9005,2.9005,2.8893,2.8633,2.8471,2.8192,2.7704,2.7439,2.7115,2.6708,2.6691,2.7019,2.7678,2.7692,2.8006,2.8639,2.8737,2.8797,2.8797,2.894,2.9005,2.9005,2.9005,2.9005,2.9005,2.9005,2.9005,2.9005,2.9005,2.8839,2.859,2.859,2.8451,2.8268,2.8268,2.8188,2.8061,2.8061,2.7808,2.7545,2.7826,2.7454,2.7035,2.7394,2.7115,2.6691,2.6691,2.6691,2.6691,2.6691,2.6691,2.6691,2.6691,2.6691,2.6691,2.6691,2.6691,2.6691,2.6691,2.6691,2.6691,2.6691,2.6691,2.6691,2.6691,2.6691,2.6691,2.6691,2.6691,2.6691,2.6691,2.6691,2.6691,2.6691,2.6691,2.6691,2.6691,2.6691,2.6691,2.6691,2.6691,2.6218,2.5235,2.4998,2.4491,2.378,2.378,2.3376,0.0,0.0,0.0,1.8236,1.8734,1.9568,2.269,2.3512,2.4011,2.5373,2.6449,2.7324,2.7923,2.8079,2.8287,2.8879,2.8987,2.9005,2.9005,2.9005,2.9005,2.9005,2.9005,2.9005,2.9005,2.9005,2.9005,2.9005,2.8645,2.8402,2.8407,2.7704,2.7115,2.6725,2.6725,2.6906,2.7303,2.7317,2.753,2.7926,2.8264,2.842,2.8433,2.8827,2.9005,2.9005,2.9023,2.9023,2.9005,2.9005,2.9005,2.9005,2.9005,2.9005,2.9005,2.9005,2.9005,2.9005,2.9005,2.8749,2.842,2.842,2.8197,2.7926,2.7926,2.7739,2.7532,2.753,2.7178,2.6758,2.6708,2.6691,2.6691,2.6691,2.6691,2.6691,2.6691,2.6691,2.6691,2.6691,2.6691,2.6691,2.6691,2.6691,2.6691,2.6691,2.6691,2.6691,2.6691,2.6691,2.6691,2.6691,2.6691,2.6691,2.6691,2.6691,2.6691,2.6691,2.6691,2.6691,2.6691,2.6691,2.6691,2.6691,2.6691,2.6691,2.6691,2.5981,2.5253,2.4525,2.4491,2.4101,1.4697,0.0,0.0,0.0,0.0,0.0,2.047,2.1456,2.2391,2.4177,2.5101,2.5848,2.6585,2.7488,2.8154,2.8314,2.8725,2.9005,2.9005,2.9005,2.9005,2.9005,2.9005,2.9005,2.9005,2.9005,2.9005,2.9005,2.8905,2.8713,2.842,2.7704,2.7257,2.7147,2.7131,2.7194,2.7303,2.7833,2.8152,2.8277,2.8645,2.8839,2.8839,2.894,2.9005,2.9023,2.961,2.9537,2.9005,2.9005,2.9005,2.9005,2.9005,2.9005,2.9005,2.9005,2.9005,2.9005,2.9005,2.8929,2.8839,2.8839,2.8565,2.8316,2.8614,2.8268,2.7911,2.8425,2.8476,2.8112,2.6987,2.6691,2.6691,2.6691,2.6691,2.6691,2.6691,2.6691,2.6691,2.6691,2.6691,2.6691,2.6691,2.6691,2.6691,2.6691,2.6691,2.6691,2.6691,2.6691,2.6691,2.6691,2.6691,2.6691,2.6691,2.6691,2.6691,2.6691,2.6691,2.6691,2.6691,2.6691,2.6691,2.6691,2.6691,2.6691,2.6691,2.6488,2.6015,2.527,2.4188,2.3881,1.5272,1.5526,1.6017,1.6559,0.0,0.0,1.954,2.0155,2.0871,2.2997,2.406,2.4822,2.5454,2.6522,2.7443,2.7896,2.8339,2.8706,2.8962,2.9005,2.9005,2.9005,2.9005,2.9005,2.9005,2.9005,2.9005,2.9005,2.9005,2.8827,2.842,2.7984,2.7689,2.7545,2.7545,2.7545,2.7545,2.7978,2.8197,2.8197,2.857,2.8749,2.8761,2.8929,2.9005,2.9023,2.95,2.9427,2.9005,2.9005,2.9005,2.9005,2.9005,2.9005,2.9005,2.9005,2.9005,2.9005,2.9005,2.9005,2.9005,2.9005,2.8839,2.867,2.8737,2.8412,2.8057,2.8321,2.821,2.7918,2.7348,2.6955,2.6691,2.6691,2.6691,2.6691,2.6691,2.6691,2.6691,2.6691,2.6691,2.6691,2.6691,2.6691,2.6691,2.6691,2.6691,2.6691,2.6691,2.6691,2.6691,2.6691,2.6691,2.6691,2.6691,2.6691,2.6691,2.6691,2.6691,2.6691,2.6691,2.6691,2.6691,2.6691,2.6691,2.6691,2.6691,2.6691,2.6471,2.6031,2.4864,2.4543,1.6217,1.6567,1.7188,1.7449,1.7007,0.0,1.9235,1.9273,1.9473,2.1623,2.2761,2.3557,2.4183,2.5083,2.6061,2.7126,2.7668,2.819,2.8911,2.9005,2.9005,2.9005,2.9005,2.9005,2.9005,2.9005,2.9005,2.9005,2.9005,2.8839,2.8502,2.8433,2.8264,2.795,2.7968,2.794,2.7897,2.7982,2.7996,2.7968,2.8303,2.8458,2.8471,2.8839,2.9005,2.9005,2.9189,2.9225,2.9133,2.9225,2.9152,2.9005,2.9005,2.9005,2.9005,2.9005,2.9005,2.9005,2.9005,2.9005,2.9005,2.9005,2.8964,2.8863,2.8484,2.8259,2.8025,2.7545,2.7067,2.6857,2.7574,2.7241,2.6691,2.6691,2.6691,2.6691,2.6691,2.6691,2.6691,2.6691,2.6691,2.6691,2.6691,2.6691,2.6691,2.6691,2.6691,2.6691,2.6691,2.6691,2.6691,2.6691,2.6691,2.6691,2.6691,2.6691,2.6691,2.6691,2.6691,2.6691,2.6691,2.6691,2.6691,2.6691,2.6691,2.6691,2.6691,2.6691,2.6691,2.6674,2.5947,2.5642,1.7107,1.7109,1.7305,1.754,1.801,0.0,1.8122,1.8014,1.8233,1.923,1.904,1.933,2.1416,2.2323,2.3058,2.4016,2.5716,2.74,2.8815,2.9005,2.9005,2.9005,2.9005,2.9005,2.9005,2.9005,2.9005,2.9005,2.9005,2.897,2.8893,2.8577,2.8381,2.8298,2.8298,2.817,2.7911,2.8482,2.862,2.8316,2.87,2.8875,2.8893,2.8952,2.9005,2.9078,3.0375,3.0558,3.0026,3.065,3.0173,2.9005,2.9005,2.9005,2.9005,2.9005,2.9005,2.9005,2.9005,2.9005,2.9005,2.9005,2.8773,2.8471,2.8298,2.7974,2.753,2.7003,2.6791,2.6741,2.689,2.6808,2.6691,2.6691,2.6691,2.6691,2.6691,2.6691,2.6691,2.6691,2.6691,2.6691,2.6691,2.6691,2.6691,2.6691,2.6691,2.6691,2.6691,2.6691,2.6691,2.6691,2.6691,2.6691,2.6691,2.6691,2.6691,2.6691,2.6691,2.6691,2.6691,2.6691,2.6691,2.6691,2.6691,2.6691,2.6691,2.6691,2.6691,2.6674,2.5947,2.593,1.8106,1.8168,1.8588,1.8764,1.885,0.0,0.0,1.8208,1.8066,1.9547,1.8865,1.859,2.0596,2.1258,2.1903,2.3103,2.4559,2.5966,2.7175,2.8294,2.9005,2.9005,2.9005,2.9005,2.9005,2.9005,2.9005,2.9005,2.8797,2.8785,2.8994,2.8633,2.8484,2.8694,2.8694,2.862,2.8456,2.8815,2.8905,2.8694,2.8887,2.9005,2.9005,2.9005,2.9005,2.9042,2.9861,2.9971,2.9629,3.0044,2.9721,2.9005,2.9005,2.9005,2.9005,2.9005,2.9005,2.9005,2.9005,2.9005,2.9005,2.9005,2.8863,2.862,2.8166,2.7601,2.7035,2.6775,2.6691,2.6691,2.6691,2.6691,2.6691,2.6691,2.6691,2.6691,2.6691,2.6691,2.6691,2.6691,2.7315,2.7601,2.6841,2.6691,2.6691,2.6691,2.6691,2.6691,2.6691,2.6691,2.6691,2.6691,2.6691,2.6691,2.6691,2.7407,2.7527,2.6758,2.6691,2.6691,2.6691,2.6691,2.6691,2.6691,2.6691,2.6691,2.6691,2.6691,2.6691,2.6691,2.6319,2.6353,1.955,1.9737,2.0329,2.0269,1.9912,1.9611,0.0,0.0,0.0,1.9967,1.9254,1.8747,2.0029,2.042,2.0985,2.2315,2.3477,2.4371,2.4882,2.6903,2.8308,2.8308,2.8583,2.8767,2.8767,2.8638,2.8634,2.8868,2.8305,2.8214,2.8845,2.8577,2.8577,2.8994,2.9005,2.9005,2.9005,2.9005,2.9005,2.9005,2.9005,2.9005,2.9005,2.9005,2.9005,2.9005,2.9152,2.9225,2.9225,2.9225,2.9225,2.9225,2.906,2.9005,2.9005,2.9005,2.9005,2.9005,2.9005,2.9005,2.9005,2.9005,2.894,2.8749,2.8106,2.7457,2.6939,2.6939,2.6939,2.689,2.6741,2.6691,2.6691,2.6691,2.6691,2.6774,2.7066,2.7145,2.7145,2.7145,2.8156,2.8596,2.7361,2.7145,2.7051,2.6741,2.6691,2.6691,2.6691,2.6954,2.7145,2.7145,2.7145,2.7145,2.7145,2.829,2.8342,2.6791,2.6691,2.6691,2.6691,2.6691,2.6691,2.6691,2.6691,2.6691,2.6691,2.6691,2.6691,2.6691,2.6691,2.6691,2.2076,2.2065,2.21,2.1343,2.1756,2.1712,1.9313,0.0,1.932,1.7913,0.0,1.7641,1.8292,0.0,0.0,1.9623,2.1681,2.2941,2.2334,2.4292,2.5815,2.5815,2.7082,2.7934,2.7934,2.7291,2.7316,2.8393,2.7091,2.6928,2.8386,2.8433,2.8577,2.8994,2.9005,2.9005,2.9005,2.9005,2.9005,2.9005,2.9005,2.9005,2.9005,2.9005,2.9005,2.9042,2.9739,3.0063,3.0063,3.0063,3.0063,2.9989,2.928,2.9005,2.9005,2.9005,2.9005,2.9005,2.9005,2.9005,2.9005,2.9005,2.8761,2.8394,2.8024,2.784,2.7751,2.7751,2.7751,2.7589,2.689,2.6691,2.6691,2.6691,2.6691,2.7066,2.8451,2.8737,2.8737,2.8737,2.8893,2.894,2.8761,2.8737,2.8277,2.6923,2.6691,2.6691,2.6691,2.7904,2.8737,2.8737,2.8737,2.8737,2.8737,2.8905,2.8342,2.6791,2.6691,2.6691,2.6691,2.6691,2.6691,2.6691,2.6691,2.6691,2.6691,2.6691,2.6691,2.6691,2.6691,2.6691,2.2335,2.2246,2.2311,2.2068,2.1936,2.1574,2.0434,1.9651,1.9225,1.9374,0.0,0.0,0.0,0.0,0.0,0.0,2.0644,2.1461,2.1245,2.2432,2.3832,2.5227,2.5999,2.677,2.7714,2.6926,2.6761,2.7694,2.6346,2.6065,2.7402,2.766,2.8043,2.8633,2.8658,2.8761,2.9005,2.9005,2.9005,2.9005,2.9005,2.9005,2.9005,2.9005,2.9005,2.9023,2.9354,2.95,2.95,2.95,2.95,2.9464,2.9133,2.9005,2.9005,2.9005,2.9005,2.9005,2.9005,2.9005,2.9005,2.9005,2.8737,2.8363,2.8237,2.8047,2.7897,2.7897,2.7797,2.7636,2.7439,2.7051,2.6691,2.6691,2.6691,2.689,2.7527,2.8373,2.9005,2.9005,2.9005,2.9005,2.9005,2.9005,2.8791,2.8125,2.8029,2.8029,2.8029,2.8596,2.9005,2.9005,2.9005,2.9005,2.9005,2.9005,2.8725,2.8071,2.7631,2.7454,2.7569,2.7452,2.7288,2.7051,2.7051,2.6939,2.6691,2.6691,2.6691,2.6691,2.6691,2.6691,2.2843,2.2795,2.2826,2.2457,2.1925,2.1384,2.0975,2.0056,1.9635,2.0819,1.9755,0.0,0.0,0.0,1.9499,1.9867,0.0,2.0741,2.0426,2.1,2.218,2.4181,2.4929,2.581,2.7211,2.5959,2.5529,2.6611,2.509,2.4857,2.6539,2.6979,2.7536,2.8376,2.8515,2.8694,2.8994,2.9005,2.9005,2.9005,2.9005,2.9005,2.9005,2.9005,2.9005,2.9005,2.9005,2.9133,2.9335,2.9335,2.9335,2.9335,2.9335,2.9189,2.9005,2.9005,2.9005,2.9005,2.9005,2.9005,2.9005,2.9005,2.8797,2.8565,2.8565,2.8399,2.8201,2.8201,2.8061,2.7964,2.8161,2.7762,2.733,2.733,2.733,2.733,2.733,2.821,2.9005,2.9005,2.9005,2.9005,2.9005,2.9005,2.9005,2.9005,2.9005,2.9005,2.9005,2.9005,2.9005,2.9005,2.9005,2.9005,2.9005,2.9005,2.9005,2.9005,2.8495,2.8197,2.8201,2.8006,2.7707,2.7319,2.7303,2.7099,2.6691,2.6691,2.6691,2.6691,2.6691,2.6691,2.4429,2.4572,2.427,2.2476,2.2135,2.1846,2.0211,2.0455,2.1075,2.1254,2.1747,2.2149,2.2199,2.2034,2.1644,2.0886,2.1324,0.0,0.0,2.0042,2.0878,2.1812,2.3678,2.5242,2.6067,2.3781,2.3047,2.5021,2.2959,2.2954,2.6051,2.6602,2.7295,2.8358,2.8773,2.8994,2.9005,2.9005,2.9005,2.9005,2.9005,2.9005,2.9005,2.9005,2.9005,2.9005,2.9005,2.9445,3.0173,3.0173,3.0173,3.0173,3.0173,2.9684,2.9005,2.9005,2.9005,2.9005,2.9005,2.9005,2.9005,2.9005,2.8994,2.8982,2.8982,2.8964,2.8952,2.8952,2.897,2.894,2.8952,2.8959,2.8929,2.8929,2.8929,2.8929,2.8929,2.897,2.9005,2.9005,2.9005,2.9005,2.9005,2.9005,2.9005,2.9005,2.9005,2.9005,2.9005,2.9005,2.9005,2.9005,2.9005,2.9005,2.9005,2.9005,2.9005,2.9005,2.8982,2.8737,2.8214,2.8006,2.7707,2.7319,2.7303,2.7099,2.6691,2.6691,2.6691,2.6691,2.6691,2.6691,0.0,0.0,2.4141,2.3058,0.0,2.184,2.0822,2.1178,2.1628,2.1347,2.2142,2.2804,2.2543,2.2221,2.1898,2.1644,2.1232,2.0731,0.0,2.0327,2.0621,2.0896,2.3005,2.4257,2.3828,2.3245,2.3088,2.3541,2.3069,2.3431,2.4993,2.6383,2.7429,2.8047,2.8425,2.8737,2.8994,2.9005,2.9005,2.9005,2.9005,2.9005,2.9005,2.9005,2.9005,2.9023,2.9555,2.9941,3.021,3.021,3.021,3.0155,2.961,2.9244,2.9005,2.9005,2.9005,2.9005,2.9005,2.9005,2.9005,2.9005,2.9005,2.9005,2.9005,2.9005,2.9005,2.9005,2.9005,2.9005,2.9005,2.9005,2.9005,2.9005,2.9005,2.9005,2.9005,2.9005,2.9005,2.9005,2.9005,2.9005,2.9005,2.9005,2.9005,2.9005,2.9005,2.9005,2.9005,2.9005,2.9005,2.9005,2.9005,2.9005,2.9005,2.9005,2.9005,2.9005,2.9005,2.8917,2.8737,2.8663,2.8438,2.8043,2.7823,2.75,2.7099,2.6824,2.6691,2.6691,2.6691,2.6691,2.419,2.419,0.0,2.3314,2.2942,0.0,2.1559,0.0,2.2813,0.0,0.0,0.0,2.4169,2.3253,2.2449,2.245,2.1353,2.0401,0.0,2.0327,2.0401,2.0107,2.2164,2.3318,2.2632,2.2228,2.2269,2.2907,2.2665,2.3196,2.4772,2.6411,2.7674,2.8481,2.8582,2.9022,2.9849,2.9574,2.9427,2.9427,2.9427,2.928,2.9005,2.9005,2.9005,2.9023,2.9537,3.0099,3.0595,3.032,3.0375,3.0558,2.9739,2.9244,2.9005,2.9005,2.9005,2.9005,2.9005,2.9005,2.9005,2.9005,2.9005,2.9005,2.9005,2.9005,2.9005,2.9005,2.9005,2.9005,2.9005,2.9005,2.9005,2.9005,2.9005,2.9005,2.9005,2.9005,2.9005,2.9005,2.9005,2.9005,2.9005,2.9464,2.9647,2.9097,2.9005,2.9005,2.9005,2.9005,2.9005,2.9005,2.9005,2.9005,2.9005,2.9005,2.9005,2.9005,2.9005,2.9005,2.9005,2.9005,2.8749,2.8237,2.8006,2.7619,2.7083,2.6841,2.6691,2.6691,2.6691,2.6691]}]]